<?xml version="1.0" encoding="UTF-8" standalone="no" ?>
<gpx xmlns="http://www.topografix.com/GPX/1/1" xmlns:xsi="http://www.w3.org/2001/XMLSchema-instance" xsi:schemaLocation="http://www.topografix.com/GPX/1/1 http://www.topografix.com/GPX/1/1/gpx.xsd" version="1.1" creator="VisuGPX - https://www.visugpx.com">
  <metadata>
    <name>randonnée clairvaux les lacs</name>
  </metadata>
  <trk>
    <name><![CDATA[2019-04-27 14:34:14]]></name>
    <trkseg>
      <trkpt lat="46.57647" lon="5.75217">
        <ele>559.93</ele>
        <time>2019-04-27T07:45:39Z</time>
      </trkpt>
      <trkpt lat="46.57645" lon="5.75216">
        <ele>559.71</ele>
        <time>2019-04-27T07:45:41Z</time>
      </trkpt>
      <trkpt lat="46.57641" lon="5.75217">
        <ele>558.86</ele>
        <time>2019-04-27T07:45:52Z</time>
      </trkpt>
      <trkpt lat="46.57649" lon="5.75208">
        <ele>558.88</ele>
        <time>2019-04-27T07:46:14Z</time>
      </trkpt>
      <trkpt lat="46.57649" lon="5.75184">
        <ele>558.93</ele>
        <time>2019-04-27T07:46:32Z</time>
      </trkpt>
      <trkpt lat="46.57649" lon="5.75181">
        <ele>558.89</ele>
        <time>2019-04-27T07:46:35Z</time>
      </trkpt>
      <trkpt lat="46.57649" lon="5.75176">
        <ele>558.58</ele>
        <time>2019-04-27T07:46:57Z</time>
      </trkpt>
      <trkpt lat="46.57655" lon="5.75181">
        <ele>558.21</ele>
        <time>2019-04-27T07:47:17Z</time>
      </trkpt>
      <trkpt lat="46.57658" lon="5.75174">
        <ele>557.75</ele>
        <time>2019-04-27T07:47:46Z</time>
      </trkpt>
      <trkpt lat="46.57647" lon="5.75162">
        <ele>557.55</ele>
        <time>2019-04-27T07:47:59Z</time>
      </trkpt>
      <trkpt lat="46.57639" lon="5.75151">
        <ele>559.65</ele>
        <time>2019-04-27T07:48:09Z</time>
      </trkpt>
      <trkpt lat="46.57639" lon="5.75147">
        <ele>559.66</ele>
        <time>2019-04-27T07:48:11Z</time>
      </trkpt>
      <trkpt lat="46.57637" lon="5.7512">
        <ele>559.36</ele>
        <time>2019-04-27T07:48:25Z</time>
      </trkpt>
      <trkpt lat="46.57639" lon="5.75113">
        <ele>559.31</ele>
        <time>2019-04-27T07:48:29Z</time>
      </trkpt>
      <trkpt lat="46.57637" lon="5.75101">
        <ele>559.11</ele>
        <time>2019-04-27T07:48:35Z</time>
      </trkpt>
      <trkpt lat="46.5764" lon="5.75089">
        <ele>558.97</ele>
        <time>2019-04-27T07:48:43Z</time>
      </trkpt>
      <trkpt lat="46.5764" lon="5.75081">
        <ele>558.89</ele>
        <time>2019-04-27T07:48:47Z</time>
      </trkpt>
      <trkpt lat="46.57645" lon="5.75065">
        <ele>558.67</ele>
        <time>2019-04-27T07:48:57Z</time>
      </trkpt>
      <trkpt lat="46.57648" lon="5.7504">
        <ele>558.33</ele>
        <time>2019-04-27T07:49:12Z</time>
      </trkpt>
      <trkpt lat="46.57645" lon="5.75038">
        <ele>558.27</ele>
        <time>2019-04-27T07:49:15Z</time>
      </trkpt>
      <trkpt lat="46.57641" lon="5.75037">
        <ele>558.18</ele>
        <time>2019-04-27T07:49:18Z</time>
      </trkpt>
      <trkpt lat="46.57636" lon="5.75029">
        <ele>558.02</ele>
        <time>2019-04-27T07:49:24Z</time>
      </trkpt>
      <trkpt lat="46.5763" lon="5.75027">
        <ele>557.92</ele>
        <time>2019-04-27T07:49:27Z</time>
      </trkpt>
      <trkpt lat="46.57628" lon="5.75027">
        <ele>557.92</ele>
        <time>2019-04-27T07:49:28Z</time>
      </trkpt>
      <trkpt lat="46.57626" lon="5.75026">
        <ele>557.88</ele>
        <time>2019-04-27T07:49:29Z</time>
      </trkpt>
      <trkpt lat="46.57625" lon="5.75025">
        <ele>558.63</ele>
        <time>2019-04-27T07:49:30Z</time>
      </trkpt>
      <trkpt lat="46.57626" lon="5.75023">
        <ele>558.61</ele>
        <time>2019-04-27T07:49:31Z</time>
      </trkpt>
      <trkpt lat="46.57617" lon="5.75014">
        <ele>558.36</ele>
        <time>2019-04-27T07:49:41Z</time>
      </trkpt>
      <trkpt lat="46.57606" lon="5.75004">
        <ele>558.06</ele>
        <time>2019-04-27T07:49:52Z</time>
      </trkpt>
      <trkpt lat="46.57605" lon="5.75004">
        <ele>558.04</ele>
        <time>2019-04-27T07:49:53Z</time>
      </trkpt>
      <trkpt lat="46.57604" lon="5.75003">
        <ele>558.01</ele>
        <time>2019-04-27T07:49:54Z</time>
      </trkpt>
      <trkpt lat="46.57603" lon="5.75002">
        <ele>557.98</ele>
        <time>2019-04-27T07:49:55Z</time>
      </trkpt>
      <trkpt lat="46.57601" lon="5.75002">
        <ele>558.74</ele>
        <time>2019-04-27T07:49:56Z</time>
      </trkpt>
      <trkpt lat="46.57599" lon="5.75002">
        <ele>558.7</ele>
        <time>2019-04-27T07:49:57Z</time>
      </trkpt>
      <trkpt lat="46.57588" lon="5.74998">
        <ele>558.49</ele>
        <time>2019-04-27T07:50:05Z</time>
      </trkpt>
      <trkpt lat="46.57595" lon="5.74993">
        <ele>559.03</ele>
        <time>2019-04-27T07:50:15Z</time>
      </trkpt>
      <trkpt lat="46.57594" lon="5.74992">
        <ele>559.08</ele>
        <time>2019-04-27T07:50:16Z</time>
      </trkpt>
      <trkpt lat="46.57593" lon="5.74993">
        <ele>559.07</ele>
        <time>2019-04-27T07:50:17Z</time>
      </trkpt>
      <trkpt lat="46.57592" lon="5.74993">
        <ele>559.05</ele>
        <time>2019-04-27T07:50:18Z</time>
      </trkpt>
      <trkpt lat="46.5759" lon="5.74993">
        <ele>559.03</ele>
        <time>2019-04-27T07:50:19Z</time>
      </trkpt>
      <trkpt lat="46.57567" lon="5.74999">
        <ele>558.7</ele>
        <time>2019-04-27T07:50:32Z</time>
      </trkpt>
      <trkpt lat="46.57555" lon="5.75008">
        <ele>559.37</ele>
        <time>2019-04-27T07:50:41Z</time>
      </trkpt>
      <trkpt lat="46.57551" lon="5.75015">
        <ele>558.99</ele>
        <time>2019-04-27T07:51:01Z</time>
      </trkpt>
      <trkpt lat="46.57551" lon="5.75016">
        <ele>558.98</ele>
        <time>2019-04-27T07:51:02Z</time>
      </trkpt>
      <trkpt lat="46.57551" lon="5.75018">
        <ele>558.96</ele>
        <time>2019-04-27T07:51:03Z</time>
      </trkpt>
      <trkpt lat="46.57551" lon="5.75026">
        <ele>558.88</ele>
        <time>2019-04-27T07:51:08Z</time>
      </trkpt>
      <trkpt lat="46.57541" lon="5.75047">
        <ele>558.72</ele>
        <time>2019-04-27T07:51:23Z</time>
      </trkpt>
      <trkpt lat="46.5754" lon="5.75055">
        <ele>558.66</ele>
        <time>2019-04-27T07:51:28Z</time>
      </trkpt>
      <trkpt lat="46.57539" lon="5.75057">
        <ele>558.67</ele>
        <time>2019-04-27T07:51:29Z</time>
      </trkpt>
      <trkpt lat="46.57535" lon="5.75072">
        <ele>558.47</ele>
        <time>2019-04-27T07:51:41Z</time>
      </trkpt>
      <trkpt lat="46.57531" lon="5.75069">
        <ele>558.33</ele>
        <time>2019-04-27T07:51:48Z</time>
      </trkpt>
      <trkpt lat="46.57517" lon="5.75054">
        <ele>558.19</ele>
        <time>2019-04-27T07:51:57Z</time>
      </trkpt>
      <trkpt lat="46.57516" lon="5.75053">
        <ele>558.18</ele>
        <time>2019-04-27T07:51:58Z</time>
      </trkpt>
      <trkpt lat="46.57496" lon="5.75043">
        <ele>555.53</ele>
        <time>2019-04-27T07:52:10Z</time>
      </trkpt>
      <trkpt lat="46.57491" lon="5.75046">
        <ele>555.53</ele>
        <time>2019-04-27T07:52:13Z</time>
      </trkpt>
      <trkpt lat="46.57491" lon="5.75048">
        <ele>555.53</ele>
        <time>2019-04-27T07:52:14Z</time>
      </trkpt>
      <trkpt lat="46.5749" lon="5.75048">
        <ele>555.53</ele>
        <time>2019-04-27T07:52:15Z</time>
      </trkpt>
      <trkpt lat="46.57489" lon="5.75049">
        <ele>555.51</ele>
        <time>2019-04-27T07:52:16Z</time>
      </trkpt>
      <trkpt lat="46.57488" lon="5.75049">
        <ele>554.71</ele>
        <time>2019-04-27T07:52:17Z</time>
      </trkpt>
      <trkpt lat="46.57466" lon="5.75065">
        <ele>553.72</ele>
        <time>2019-04-27T07:52:31Z</time>
      </trkpt>
      <trkpt lat="46.57451" lon="5.75075">
        <ele>552.64</ele>
        <time>2019-04-27T07:52:43Z</time>
      </trkpt>
      <trkpt lat="46.57433" lon="5.75087">
        <ele>550.74</ele>
        <time>2019-04-27T07:52:58Z</time>
      </trkpt>
      <trkpt lat="46.57431" lon="5.75087">
        <ele>550.71</ele>
        <time>2019-04-27T07:52:59Z</time>
      </trkpt>
      <trkpt lat="46.57429" lon="5.75087">
        <ele>549.87</ele>
        <time>2019-04-27T07:53:00Z</time>
      </trkpt>
      <trkpt lat="46.57426" lon="5.75089">
        <ele>548.95</ele>
        <time>2019-04-27T07:53:02Z</time>
      </trkpt>
      <trkpt lat="46.57411" lon="5.75082">
        <ele>548.09</ele>
        <time>2019-04-27T07:53:12Z</time>
      </trkpt>
      <trkpt lat="46.5741" lon="5.75049">
        <ele>547.26</ele>
        <time>2019-04-27T07:53:28Z</time>
      </trkpt>
      <trkpt lat="46.57409" lon="5.7502">
        <ele>545.16</ele>
        <time>2019-04-27T07:53:40Z</time>
      </trkpt>
      <trkpt lat="46.57409" lon="5.74991">
        <ele>545.05</ele>
        <time>2019-04-27T07:53:54Z</time>
      </trkpt>
      <trkpt lat="46.57409" lon="5.74981">
        <ele>545.03</ele>
        <time>2019-04-27T07:53:59Z</time>
      </trkpt>
      <trkpt lat="46.57404" lon="5.74951">
        <ele>544.95</ele>
        <time>2019-04-27T07:54:12Z</time>
      </trkpt>
      <trkpt lat="46.57401" lon="5.74927">
        <ele>543.41</ele>
        <time>2019-04-27T07:54:22Z</time>
      </trkpt>
      <trkpt lat="46.57394" lon="5.74885">
        <ele>543.24</ele>
        <time>2019-04-27T07:54:41Z</time>
      </trkpt>
      <trkpt lat="46.57389" lon="5.7485">
        <ele>542.36</ele>
        <time>2019-04-27T07:54:57Z</time>
      </trkpt>
      <trkpt lat="46.57385" lon="5.74816">
        <ele>542.3</ele>
        <time>2019-04-27T07:55:13Z</time>
      </trkpt>
      <trkpt lat="46.57381" lon="5.74785">
        <ele>542.2</ele>
        <time>2019-04-27T07:55:28Z</time>
      </trkpt>
      <trkpt lat="46.57373" lon="5.7475">
        <ele>542.08</ele>
        <time>2019-04-27T07:55:44Z</time>
      </trkpt>
      <trkpt lat="46.57375" lon="5.74718">
        <ele>544.32</ele>
        <time>2019-04-27T07:55:58Z</time>
      </trkpt>
      <trkpt lat="46.57376" lon="5.74715">
        <ele>544.31</ele>
        <time>2019-04-27T07:56:00Z</time>
      </trkpt>
      <trkpt lat="46.57377" lon="5.74713">
        <ele>544.31</ele>
        <time>2019-04-27T07:56:01Z</time>
      </trkpt>
      <trkpt lat="46.57378" lon="5.74711">
        <ele>544.3</ele>
        <time>2019-04-27T07:56:02Z</time>
      </trkpt>
      <trkpt lat="46.57382" lon="5.74694">
        <ele>544.21</ele>
        <time>2019-04-27T07:56:12Z</time>
      </trkpt>
      <trkpt lat="46.57386" lon="5.74684">
        <ele>546.04</ele>
        <time>2019-04-27T07:56:19Z</time>
      </trkpt>
      <trkpt lat="46.57382" lon="5.74674">
        <ele>546.04</ele>
        <time>2019-04-27T07:56:23Z</time>
      </trkpt>
      <trkpt lat="46.57381" lon="5.74673">
        <ele>546.05</ele>
        <time>2019-04-27T07:56:24Z</time>
      </trkpt>
      <trkpt lat="46.57381" lon="5.74669">
        <ele>546.99</ele>
        <time>2019-04-27T07:56:26Z</time>
      </trkpt>
      <trkpt lat="46.57378" lon="5.74648">
        <ele>547.75</ele>
        <time>2019-04-27T07:56:36Z</time>
      </trkpt>
      <trkpt lat="46.57377" lon="5.74646">
        <ele>547.75</ele>
        <time>2019-04-27T07:56:37Z</time>
      </trkpt>
      <trkpt lat="46.57377" lon="5.74645">
        <ele>547.72</ele>
        <time>2019-04-27T07:56:38Z</time>
      </trkpt>
      <trkpt lat="46.57376" lon="5.74642">
        <ele>547.72</ele>
        <time>2019-04-27T07:56:39Z</time>
      </trkpt>
      <trkpt lat="46.57375" lon="5.7464">
        <ele>548.54</ele>
        <time>2019-04-27T07:56:40Z</time>
      </trkpt>
      <trkpt lat="46.57374" lon="5.74638">
        <ele>548.52</ele>
        <time>2019-04-27T07:56:41Z</time>
      </trkpt>
      <trkpt lat="46.57374" lon="5.74636">
        <ele>548.51</ele>
        <time>2019-04-27T07:56:42Z</time>
      </trkpt>
      <trkpt lat="46.57374" lon="5.74635">
        <ele>548.51</ele>
        <time>2019-04-27T07:56:43Z</time>
      </trkpt>
      <trkpt lat="46.57373" lon="5.74633">
        <ele>548.52</ele>
        <time>2019-04-27T07:56:44Z</time>
      </trkpt>
      <trkpt lat="46.57371" lon="5.74623">
        <ele>549.23</ele>
        <time>2019-04-27T07:56:49Z</time>
      </trkpt>
      <trkpt lat="46.5737" lon="5.74621">
        <ele>550.07</ele>
        <time>2019-04-27T07:56:50Z</time>
      </trkpt>
      <trkpt lat="46.5737" lon="5.74619">
        <ele>550.05</ele>
        <time>2019-04-27T07:56:51Z</time>
      </trkpt>
      <trkpt lat="46.57369" lon="5.74617">
        <ele>550.07</ele>
        <time>2019-04-27T07:56:52Z</time>
      </trkpt>
      <trkpt lat="46.57369" lon="5.74615">
        <ele>550.06</ele>
        <time>2019-04-27T07:56:53Z</time>
      </trkpt>
      <trkpt lat="46.57369" lon="5.74613">
        <ele>550.06</ele>
        <time>2019-04-27T07:56:54Z</time>
      </trkpt>
      <trkpt lat="46.57368" lon="5.74611">
        <ele>550.05</ele>
        <time>2019-04-27T07:56:55Z</time>
      </trkpt>
      <trkpt lat="46.57368" lon="5.74609">
        <ele>550.01</ele>
        <time>2019-04-27T07:56:56Z</time>
      </trkpt>
      <trkpt lat="46.57365" lon="5.74578">
        <ele>552.83</ele>
        <time>2019-04-27T07:57:11Z</time>
      </trkpt>
      <trkpt lat="46.57366" lon="5.74563">
        <ele>554.57</ele>
        <time>2019-04-27T07:57:19Z</time>
      </trkpt>
      <trkpt lat="46.57367" lon="5.74561">
        <ele>554.54</ele>
        <time>2019-04-27T07:57:20Z</time>
      </trkpt>
      <trkpt lat="46.57367" lon="5.7456">
        <ele>554.55</ele>
        <time>2019-04-27T07:57:21Z</time>
      </trkpt>
      <trkpt lat="46.57368" lon="5.74558">
        <ele>554.53</ele>
        <time>2019-04-27T07:57:22Z</time>
      </trkpt>
      <trkpt lat="46.57368" lon="5.74556">
        <ele>554.51</ele>
        <time>2019-04-27T07:57:23Z</time>
      </trkpt>
      <trkpt lat="46.57369" lon="5.74553">
        <ele>554.49</ele>
        <time>2019-04-27T07:57:24Z</time>
      </trkpt>
      <trkpt lat="46.57369" lon="5.74551">
        <ele>555.51</ele>
        <time>2019-04-27T07:57:25Z</time>
      </trkpt>
      <trkpt lat="46.57369" lon="5.74549">
        <ele>555.5</ele>
        <time>2019-04-27T07:57:26Z</time>
      </trkpt>
      <trkpt lat="46.5737" lon="5.74547">
        <ele>555.48</ele>
        <time>2019-04-27T07:57:27Z</time>
      </trkpt>
      <trkpt lat="46.57371" lon="5.74536">
        <ele>556.34</ele>
        <time>2019-04-27T07:57:32Z</time>
      </trkpt>
      <trkpt lat="46.57372" lon="5.74534">
        <ele>557.21</ele>
        <time>2019-04-27T07:57:33Z</time>
      </trkpt>
      <trkpt lat="46.57372" lon="5.74532">
        <ele>557.16</ele>
        <time>2019-04-27T07:57:34Z</time>
      </trkpt>
      <trkpt lat="46.57372" lon="5.7453">
        <ele>557.14</ele>
        <time>2019-04-27T07:57:35Z</time>
      </trkpt>
      <trkpt lat="46.57373" lon="5.74528">
        <ele>557.12</ele>
        <time>2019-04-27T07:57:36Z</time>
      </trkpt>
      <trkpt lat="46.57375" lon="5.74518">
        <ele>557.09</ele>
        <time>2019-04-27T07:57:41Z</time>
      </trkpt>
      <trkpt lat="46.57375" lon="5.74516">
        <ele>557.08</ele>
        <time>2019-04-27T07:57:42Z</time>
      </trkpt>
      <trkpt lat="46.57376" lon="5.74514">
        <ele>557.92</ele>
        <time>2019-04-27T07:57:43Z</time>
      </trkpt>
      <trkpt lat="46.57376" lon="5.74513">
        <ele>557.91</ele>
        <time>2019-04-27T07:57:44Z</time>
      </trkpt>
      <trkpt lat="46.57377" lon="5.74511">
        <ele>557.91</ele>
        <time>2019-04-27T07:57:45Z</time>
      </trkpt>
      <trkpt lat="46.57377" lon="5.74509">
        <ele>558.67</ele>
        <time>2019-04-27T07:57:46Z</time>
      </trkpt>
      <trkpt lat="46.57378" lon="5.74507">
        <ele>558.65</ele>
        <time>2019-04-27T07:57:47Z</time>
      </trkpt>
      <trkpt lat="46.57379" lon="5.74505">
        <ele>558.62</ele>
        <time>2019-04-27T07:57:48Z</time>
      </trkpt>
      <trkpt lat="46.5738" lon="5.74492">
        <ele>558.56</ele>
        <time>2019-04-27T07:57:54Z</time>
      </trkpt>
      <trkpt lat="46.5738" lon="5.7449">
        <ele>558.55</ele>
        <time>2019-04-27T07:57:55Z</time>
      </trkpt>
      <trkpt lat="46.57383" lon="5.74463">
        <ele>560.75</ele>
        <time>2019-04-27T07:58:09Z</time>
      </trkpt>
      <trkpt lat="46.57383" lon="5.7446">
        <ele>560.72</ele>
        <time>2019-04-27T07:58:10Z</time>
      </trkpt>
      <trkpt lat="46.57383" lon="5.74458">
        <ele>560.7</ele>
        <time>2019-04-27T07:58:11Z</time>
      </trkpt>
      <trkpt lat="46.57383" lon="5.74456">
        <ele>560.69</ele>
        <time>2019-04-27T07:58:12Z</time>
      </trkpt>
      <trkpt lat="46.57383" lon="5.74454">
        <ele>560.69</ele>
        <time>2019-04-27T07:58:13Z</time>
      </trkpt>
      <trkpt lat="46.57383" lon="5.74451">
        <ele>560.68</ele>
        <time>2019-04-27T07:58:14Z</time>
      </trkpt>
      <trkpt lat="46.57383" lon="5.74449">
        <ele>560.65</ele>
        <time>2019-04-27T07:58:15Z</time>
      </trkpt>
      <trkpt lat="46.57382" lon="5.74447">
        <ele>560.65</ele>
        <time>2019-04-27T07:58:16Z</time>
      </trkpt>
      <trkpt lat="46.57381" lon="5.74432">
        <ele>562.49</ele>
        <time>2019-04-27T07:58:26Z</time>
      </trkpt>
      <trkpt lat="46.57373" lon="5.74413">
        <ele>564.91</ele>
        <time>2019-04-27T07:58:41Z</time>
      </trkpt>
      <trkpt lat="46.57371" lon="5.74409">
        <ele>565.7</ele>
        <time>2019-04-27T07:58:44Z</time>
      </trkpt>
      <trkpt lat="46.57369" lon="5.74407">
        <ele>565.7</ele>
        <time>2019-04-27T07:58:45Z</time>
      </trkpt>
      <trkpt lat="46.57362" lon="5.74396">
        <ele>567.3</ele>
        <time>2019-04-27T07:58:52Z</time>
      </trkpt>
      <trkpt lat="46.57362" lon="5.74394">
        <ele>567.29</ele>
        <time>2019-04-27T07:58:53Z</time>
      </trkpt>
      <trkpt lat="46.57361" lon="5.74393">
        <ele>568.24</ele>
        <time>2019-04-27T07:58:54Z</time>
      </trkpt>
      <trkpt lat="46.5736" lon="5.74391">
        <ele>568.26</ele>
        <time>2019-04-27T07:58:55Z</time>
      </trkpt>
      <trkpt lat="46.57359" lon="5.7439">
        <ele>568.22</ele>
        <time>2019-04-27T07:58:56Z</time>
      </trkpt>
      <trkpt lat="46.57349" lon="5.74375">
        <ele>570.77</ele>
        <time>2019-04-27T07:59:08Z</time>
      </trkpt>
      <trkpt lat="46.57333" lon="5.74353">
        <ele>574.01</ele>
        <time>2019-04-27T07:59:26Z</time>
      </trkpt>
      <trkpt lat="46.57317" lon="5.74331">
        <ele>577.49</ele>
        <time>2019-04-27T07:59:42Z</time>
      </trkpt>
      <trkpt lat="46.57298" lon="5.74312">
        <ele>579.84</ele>
        <time>2019-04-27T08:00:02Z</time>
      </trkpt>
      <trkpt lat="46.5729" lon="5.74308">
        <ele>583.15</ele>
        <time>2019-04-27T08:00:15Z</time>
      </trkpt>
      <trkpt lat="46.57277" lon="5.74303">
        <ele>583.97</ele>
        <time>2019-04-27T08:00:26Z</time>
      </trkpt>
      <trkpt lat="46.57262" lon="5.74312">
        <ele>585.42</ele>
        <time>2019-04-27T08:00:37Z</time>
      </trkpt>
      <trkpt lat="46.57261" lon="5.74314">
        <ele>586.42</ele>
        <time>2019-04-27T08:00:38Z</time>
      </trkpt>
      <trkpt lat="46.5726" lon="5.74315">
        <ele>586.39</ele>
        <time>2019-04-27T08:00:39Z</time>
      </trkpt>
      <trkpt lat="46.57252" lon="5.74335">
        <ele>589.05</ele>
        <time>2019-04-27T08:00:52Z</time>
      </trkpt>
      <trkpt lat="46.57253" lon="5.74352">
        <ele>592.59</ele>
        <time>2019-04-27T08:01:06Z</time>
      </trkpt>
      <trkpt lat="46.57252" lon="5.74368">
        <ele>594.22</ele>
        <time>2019-04-27T08:01:22Z</time>
      </trkpt>
      <trkpt lat="46.57248" lon="5.74369">
        <ele>595.42</ele>
        <time>2019-04-27T08:01:27Z</time>
      </trkpt>
      <trkpt lat="46.57231" lon="5.74374">
        <ele>595.31</ele>
        <time>2019-04-27T08:01:42Z</time>
      </trkpt>
      <trkpt lat="46.57225" lon="5.74376">
        <ele>596.14</ele>
        <time>2019-04-27T08:01:47Z</time>
      </trkpt>
      <trkpt lat="46.57217" lon="5.74375">
        <ele>596.96</ele>
        <time>2019-04-27T08:01:54Z</time>
      </trkpt>
      <trkpt lat="46.57209" lon="5.74371">
        <ele>596.87</ele>
        <time>2019-04-27T08:02:01Z</time>
      </trkpt>
      <trkpt lat="46.57195" lon="5.74363">
        <ele>597.5</ele>
        <time>2019-04-27T08:02:13Z</time>
      </trkpt>
      <trkpt lat="46.57182" lon="5.74349">
        <ele>598.17</ele>
        <time>2019-04-27T08:02:26Z</time>
      </trkpt>
      <trkpt lat="46.57165" lon="5.74328">
        <ele>597.99</ele>
        <time>2019-04-27T08:02:42Z</time>
      </trkpt>
      <trkpt lat="46.57144" lon="5.7431">
        <ele>597.93</ele>
        <time>2019-04-27T08:02:59Z</time>
      </trkpt>
      <trkpt lat="46.57126" lon="5.74298">
        <ele>598.64</ele>
        <time>2019-04-27T08:03:12Z</time>
      </trkpt>
      <trkpt lat="46.57109" lon="5.74283">
        <ele>601.41</ele>
        <time>2019-04-27T08:03:28Z</time>
      </trkpt>
      <trkpt lat="46.57092" lon="5.74269">
        <ele>603.17</ele>
        <time>2019-04-27T08:03:43Z</time>
      </trkpt>
      <trkpt lat="46.57072" lon="5.74254">
        <ele>604.58</ele>
        <time>2019-04-27T08:03:59Z</time>
      </trkpt>
      <trkpt lat="46.57055" lon="5.74242">
        <ele>604.47</ele>
        <time>2019-04-27T08:04:13Z</time>
      </trkpt>
      <trkpt lat="46.57034" lon="5.74227">
        <ele>604.38</ele>
        <time>2019-04-27T08:04:28Z</time>
      </trkpt>
      <trkpt lat="46.5701" lon="5.7421">
        <ele>604.25</ele>
        <time>2019-04-27T08:04:46Z</time>
      </trkpt>
      <trkpt lat="46.56992" lon="5.74199">
        <ele>604.15</ele>
        <time>2019-04-27T08:05:00Z</time>
      </trkpt>
      <trkpt lat="46.5699" lon="5.74196">
        <ele>601.71</ele>
        <time>2019-04-27T08:05:02Z</time>
      </trkpt>
      <trkpt lat="46.56974" lon="5.74184">
        <ele>600.78</ele>
        <time>2019-04-27T08:05:14Z</time>
      </trkpt>
      <trkpt lat="46.56957" lon="5.74179">
        <ele>597.08</ele>
        <time>2019-04-27T08:05:28Z</time>
      </trkpt>
      <trkpt lat="46.56954" lon="5.74178">
        <ele>597.06</ele>
        <time>2019-04-27T08:05:30Z</time>
      </trkpt>
      <trkpt lat="46.56952" lon="5.74181">
        <ele>596.26</ele>
        <time>2019-04-27T08:05:33Z</time>
      </trkpt>
      <trkpt lat="46.56945" lon="5.74183">
        <ele>594.6</ele>
        <time>2019-04-27T08:05:38Z</time>
      </trkpt>
      <trkpt lat="46.56925" lon="5.74193">
        <ele>593.87</ele>
        <time>2019-04-27T08:05:53Z</time>
      </trkpt>
      <trkpt lat="46.56921" lon="5.74194">
        <ele>593</ele>
        <time>2019-04-27T08:05:57Z</time>
      </trkpt>
      <trkpt lat="46.56915" lon="5.74206">
        <ele>592.14</ele>
        <time>2019-04-27T08:06:05Z</time>
      </trkpt>
      <trkpt lat="46.56912" lon="5.74218">
        <ele>590.35</ele>
        <time>2019-04-27T08:06:18Z</time>
      </trkpt>
      <trkpt lat="46.56911" lon="5.74234">
        <ele>588.73</ele>
        <time>2019-04-27T08:06:29Z</time>
      </trkpt>
      <trkpt lat="46.56908" lon="5.74252">
        <ele>586.21</ele>
        <time>2019-04-27T08:06:41Z</time>
      </trkpt>
      <trkpt lat="46.56905" lon="5.74271">
        <ele>584.48</ele>
        <time>2019-04-27T08:06:55Z</time>
      </trkpt>
      <trkpt lat="46.56912" lon="5.74283">
        <ele>583.48</ele>
        <time>2019-04-27T08:07:08Z</time>
      </trkpt>
      <trkpt lat="46.56913" lon="5.74286">
        <ele>583.48</ele>
        <time>2019-04-27T08:07:10Z</time>
      </trkpt>
      <trkpt lat="46.56911" lon="5.74312">
        <ele>582.08</ele>
        <time>2019-04-27T08:07:24Z</time>
      </trkpt>
      <trkpt lat="46.56909" lon="5.74325">
        <ele>579.39</ele>
        <time>2019-04-27T08:07:31Z</time>
      </trkpt>
      <trkpt lat="46.56903" lon="5.74346">
        <ele>575.68</ele>
        <time>2019-04-27T08:07:44Z</time>
      </trkpt>
      <trkpt lat="46.56902" lon="5.74352">
        <ele>574.85</ele>
        <time>2019-04-27T08:07:50Z</time>
      </trkpt>
      <trkpt lat="46.56911" lon="5.7437">
        <ele>573.09</ele>
        <time>2019-04-27T08:08:04Z</time>
      </trkpt>
      <trkpt lat="46.5693" lon="5.74389">
        <ele>571.43</ele>
        <time>2019-04-27T08:08:19Z</time>
      </trkpt>
      <trkpt lat="46.56949" lon="5.74403">
        <ele>568.78</ele>
        <time>2019-04-27T08:08:34Z</time>
      </trkpt>
      <trkpt lat="46.56963" lon="5.74409">
        <ele>568.79</ele>
        <time>2019-04-27T08:08:46Z</time>
      </trkpt>
      <trkpt lat="46.56971" lon="5.74411">
        <ele>567.82</ele>
        <time>2019-04-27T08:08:52Z</time>
      </trkpt>
      <trkpt lat="46.56975" lon="5.74413">
        <ele>566.69</ele>
        <time>2019-04-27T08:08:55Z</time>
      </trkpt>
      <trkpt lat="46.56992" lon="5.74417">
        <ele>564.85</ele>
        <time>2019-04-27T08:09:06Z</time>
      </trkpt>
      <trkpt lat="46.57" lon="5.7442">
        <ele>564.84</ele>
        <time>2019-04-27T08:09:10Z</time>
      </trkpt>
      <trkpt lat="46.57006" lon="5.74427">
        <ele>563.15</ele>
        <time>2019-04-27T08:09:21Z</time>
      </trkpt>
      <trkpt lat="46.57002" lon="5.74427">
        <ele>562.34</ele>
        <time>2019-04-27T08:09:25Z</time>
      </trkpt>
      <trkpt lat="46.57001" lon="5.74427">
        <ele>562.34</ele>
        <time>2019-04-27T08:09:26Z</time>
      </trkpt>
      <trkpt lat="46.56987" lon="5.74423">
        <ele>562.32</ele>
        <time>2019-04-27T08:09:38Z</time>
      </trkpt>
      <trkpt lat="46.56976" lon="5.74422">
        <ele>562.22</ele>
        <time>2019-04-27T08:09:49Z</time>
      </trkpt>
      <trkpt lat="46.56962" lon="5.74419">
        <ele>562.07</ele>
        <time>2019-04-27T08:10:00Z</time>
      </trkpt>
      <trkpt lat="46.56959" lon="5.74418">
        <ele>562.04</ele>
        <time>2019-04-27T08:10:02Z</time>
      </trkpt>
      <trkpt lat="46.56957" lon="5.74417">
        <ele>562.02</ele>
        <time>2019-04-27T08:10:03Z</time>
      </trkpt>
      <trkpt lat="46.56956" lon="5.74417">
        <ele>562</ele>
        <time>2019-04-27T08:10:04Z</time>
      </trkpt>
      <trkpt lat="46.56936" lon="5.74418">
        <ele>561.85</ele>
        <time>2019-04-27T08:10:14Z</time>
      </trkpt>
      <trkpt lat="46.56916" lon="5.74416">
        <ele>561.69</ele>
        <time>2019-04-27T08:10:23Z</time>
      </trkpt>
      <trkpt lat="46.56894" lon="5.74409">
        <ele>561.52</ele>
        <time>2019-04-27T08:10:34Z</time>
      </trkpt>
      <trkpt lat="46.56878" lon="5.74404">
        <ele>561.43</ele>
        <time>2019-04-27T08:10:43Z</time>
      </trkpt>
      <trkpt lat="46.56876" lon="5.74405">
        <ele>561.41</ele>
        <time>2019-04-27T08:10:44Z</time>
      </trkpt>
      <trkpt lat="46.56873" lon="5.74405">
        <ele>561.4</ele>
        <time>2019-04-27T08:10:45Z</time>
      </trkpt>
      <trkpt lat="46.56871" lon="5.74404">
        <ele>561.39</ele>
        <time>2019-04-27T08:10:46Z</time>
      </trkpt>
      <trkpt lat="46.56869" lon="5.74403">
        <ele>561.39</ele>
        <time>2019-04-27T08:10:47Z</time>
      </trkpt>
      <trkpt lat="46.56852" lon="5.74397">
        <ele>561.29</ele>
        <time>2019-04-27T08:10:59Z</time>
      </trkpt>
      <trkpt lat="46.56836" lon="5.74391">
        <ele>561.23</ele>
        <time>2019-04-27T08:11:10Z</time>
      </trkpt>
      <trkpt lat="46.56831" lon="5.7439">
        <ele>561.21</ele>
        <time>2019-04-27T08:11:13Z</time>
      </trkpt>
      <trkpt lat="46.56829" lon="5.74389">
        <ele>561.2</ele>
        <time>2019-04-27T08:11:14Z</time>
      </trkpt>
      <trkpt lat="46.56827" lon="5.74388">
        <ele>561.2</ele>
        <time>2019-04-27T08:11:15Z</time>
      </trkpt>
      <trkpt lat="46.56826" lon="5.74388">
        <ele>561.18</ele>
        <time>2019-04-27T08:11:16Z</time>
      </trkpt>
      <trkpt lat="46.5681" lon="5.74381">
        <ele>561.15</ele>
        <time>2019-04-27T08:11:27Z</time>
      </trkpt>
      <trkpt lat="46.56792" lon="5.74376">
        <ele>561.1</ele>
        <time>2019-04-27T08:11:40Z</time>
      </trkpt>
      <trkpt lat="46.56788" lon="5.74375">
        <ele>561.08</ele>
        <time>2019-04-27T08:11:43Z</time>
      </trkpt>
      <trkpt lat="46.56779" lon="5.74371">
        <ele>561.03</ele>
        <time>2019-04-27T08:11:53Z</time>
      </trkpt>
      <trkpt lat="46.56761" lon="5.74367">
        <ele>560.98</ele>
        <time>2019-04-27T08:12:05Z</time>
      </trkpt>
      <trkpt lat="46.56746" lon="5.74363">
        <ele>560.1</ele>
        <time>2019-04-27T08:12:15Z</time>
      </trkpt>
      <trkpt lat="46.5672" lon="5.7436">
        <ele>560.04</ele>
        <time>2019-04-27T08:12:29Z</time>
      </trkpt>
      <trkpt lat="46.567" lon="5.74358">
        <ele>559.97</ele>
        <time>2019-04-27T08:12:41Z</time>
      </trkpt>
      <trkpt lat="46.56681" lon="5.74355">
        <ele>558.9</ele>
        <time>2019-04-27T08:12:54Z</time>
      </trkpt>
      <trkpt lat="46.56663" lon="5.74352">
        <ele>558.83</ele>
        <time>2019-04-27T08:13:08Z</time>
      </trkpt>
      <trkpt lat="46.56658" lon="5.74352">
        <ele>558.82</ele>
        <time>2019-04-27T08:13:11Z</time>
      </trkpt>
      <trkpt lat="46.56641" lon="5.74348">
        <ele>557.9</ele>
        <time>2019-04-27T08:13:25Z</time>
      </trkpt>
      <trkpt lat="46.56624" lon="5.74351">
        <ele>557.78</ele>
        <time>2019-04-27T08:13:40Z</time>
      </trkpt>
      <trkpt lat="46.56604" lon="5.74352">
        <ele>557.63</ele>
        <time>2019-04-27T08:13:53Z</time>
      </trkpt>
      <trkpt lat="46.56584" lon="5.74353">
        <ele>557.47</ele>
        <time>2019-04-27T08:14:05Z</time>
      </trkpt>
      <trkpt lat="46.56567" lon="5.74353">
        <ele>557.29</ele>
        <time>2019-04-27T08:14:19Z</time>
      </trkpt>
      <trkpt lat="46.56563" lon="5.74353">
        <ele>557.25</ele>
        <time>2019-04-27T08:14:22Z</time>
      </trkpt>
      <trkpt lat="46.56544" lon="5.74351">
        <ele>557.06</ele>
        <time>2019-04-27T08:14:35Z</time>
      </trkpt>
      <trkpt lat="46.56525" lon="5.74348">
        <ele>556.12</ele>
        <time>2019-04-27T08:14:47Z</time>
      </trkpt>
      <trkpt lat="46.56502" lon="5.74342">
        <ele>555.98</ele>
        <time>2019-04-27T08:14:57Z</time>
      </trkpt>
      <trkpt lat="46.56496" lon="5.74344">
        <ele>555.93</ele>
        <time>2019-04-27T08:15:01Z</time>
      </trkpt>
      <trkpt lat="46.56476" lon="5.74347">
        <ele>555.75</ele>
        <time>2019-04-27T08:15:16Z</time>
      </trkpt>
      <trkpt lat="46.56456" lon="5.74345">
        <ele>554.77</ele>
        <time>2019-04-27T08:15:29Z</time>
      </trkpt>
      <trkpt lat="46.56445" lon="5.74347">
        <ele>554.68</ele>
        <time>2019-04-27T08:15:36Z</time>
      </trkpt>
      <trkpt lat="46.56435" lon="5.74344">
        <ele>553.8</ele>
        <time>2019-04-27T08:15:45Z</time>
      </trkpt>
      <trkpt lat="46.56412" lon="5.74336">
        <ele>553.63</ele>
        <time>2019-04-27T08:15:59Z</time>
      </trkpt>
      <trkpt lat="46.5639" lon="5.74332">
        <ele>553.48</ele>
        <time>2019-04-27T08:16:12Z</time>
      </trkpt>
      <trkpt lat="46.56384" lon="5.74332">
        <ele>553.42</ele>
        <time>2019-04-27T08:16:17Z</time>
      </trkpt>
      <trkpt lat="46.56374" lon="5.74333">
        <ele>553.32</ele>
        <time>2019-04-27T08:16:26Z</time>
      </trkpt>
      <trkpt lat="46.56362" lon="5.74335">
        <ele>553.04</ele>
        <time>2019-04-27T08:17:00Z</time>
      </trkpt>
      <trkpt lat="46.56361" lon="5.74335">
        <ele>553.03</ele>
        <time>2019-04-27T08:17:01Z</time>
      </trkpt>
      <trkpt lat="46.56342" lon="5.74338">
        <ele>552.95</ele>
        <time>2019-04-27T08:17:13Z</time>
      </trkpt>
      <trkpt lat="46.56319" lon="5.74338">
        <ele>552.9</ele>
        <time>2019-04-27T08:17:27Z</time>
      </trkpt>
      <trkpt lat="46.56306" lon="5.74338">
        <ele>551.84</ele>
        <time>2019-04-27T08:17:36Z</time>
      </trkpt>
      <trkpt lat="46.56294" lon="5.74349">
        <ele>551.81</ele>
        <time>2019-04-27T08:17:46Z</time>
      </trkpt>
      <trkpt lat="46.56274" lon="5.74352">
        <ele>551.01</ele>
        <time>2019-04-27T08:17:59Z</time>
      </trkpt>
      <trkpt lat="46.56255" lon="5.74358">
        <ele>550.01</ele>
        <time>2019-04-27T08:18:11Z</time>
      </trkpt>
      <trkpt lat="46.56235" lon="5.74363">
        <ele>549.23</ele>
        <time>2019-04-27T08:18:23Z</time>
      </trkpt>
      <trkpt lat="46.56219" lon="5.74368">
        <ele>549.21</ele>
        <time>2019-04-27T08:18:35Z</time>
      </trkpt>
      <trkpt lat="46.56197" lon="5.74378">
        <ele>548.39</ele>
        <time>2019-04-27T08:18:48Z</time>
      </trkpt>
      <trkpt lat="46.56194" lon="5.74381">
        <ele>548.37</ele>
        <time>2019-04-27T08:18:51Z</time>
      </trkpt>
      <trkpt lat="46.56192" lon="5.74381">
        <ele>548.38</ele>
        <time>2019-04-27T08:18:52Z</time>
      </trkpt>
      <trkpt lat="46.5619" lon="5.74382">
        <ele>548.37</ele>
        <time>2019-04-27T08:18:53Z</time>
      </trkpt>
      <trkpt lat="46.56172" lon="5.7439">
        <ele>548.36</ele>
        <time>2019-04-27T08:19:04Z</time>
      </trkpt>
      <trkpt lat="46.56153" lon="5.74396">
        <ele>548.36</ele>
        <time>2019-04-27T08:19:16Z</time>
      </trkpt>
      <trkpt lat="46.56134" lon="5.74402">
        <ele>548.34</ele>
        <time>2019-04-27T08:19:28Z</time>
      </trkpt>
      <trkpt lat="46.5611" lon="5.74409">
        <ele>548.33</ele>
        <time>2019-04-27T08:19:42Z</time>
      </trkpt>
      <trkpt lat="46.56095" lon="5.74424">
        <ele>548.31</ele>
        <time>2019-04-27T08:19:53Z</time>
      </trkpt>
      <trkpt lat="46.56093" lon="5.74425">
        <ele>548.31</ele>
        <time>2019-04-27T08:19:54Z</time>
      </trkpt>
      <trkpt lat="46.56072" lon="5.74432">
        <ele>548.3</ele>
        <time>2019-04-27T08:20:07Z</time>
      </trkpt>
      <trkpt lat="46.56052" lon="5.74437">
        <ele>548.29</ele>
        <time>2019-04-27T08:20:19Z</time>
      </trkpt>
      <trkpt lat="46.56037" lon="5.74444">
        <ele>548.28</ele>
        <time>2019-04-27T08:20:29Z</time>
      </trkpt>
      <trkpt lat="46.56035" lon="5.74444">
        <ele>548.28</ele>
        <time>2019-04-27T08:20:30Z</time>
      </trkpt>
      <trkpt lat="46.56033" lon="5.74444">
        <ele>548.28</ele>
        <time>2019-04-27T08:20:31Z</time>
      </trkpt>
      <trkpt lat="46.56032" lon="5.74444">
        <ele>548.28</ele>
        <time>2019-04-27T08:20:32Z</time>
      </trkpt>
      <trkpt lat="46.5603" lon="5.74445">
        <ele>548.28</ele>
        <time>2019-04-27T08:20:33Z</time>
      </trkpt>
      <trkpt lat="46.56029" lon="5.74445">
        <ele>548.28</ele>
        <time>2019-04-27T08:20:34Z</time>
      </trkpt>
      <trkpt lat="46.56028" lon="5.74446">
        <ele>548.28</ele>
        <time>2019-04-27T08:20:35Z</time>
      </trkpt>
      <trkpt lat="46.56026" lon="5.74447">
        <ele>548.28</ele>
        <time>2019-04-27T08:20:36Z</time>
      </trkpt>
      <trkpt lat="46.56025" lon="5.74447">
        <ele>548.28</ele>
        <time>2019-04-27T08:20:37Z</time>
      </trkpt>
      <trkpt lat="46.56023" lon="5.74448">
        <ele>548.28</ele>
        <time>2019-04-27T08:20:38Z</time>
      </trkpt>
      <trkpt lat="46.56014" lon="5.74466">
        <ele>548.28</ele>
        <time>2019-04-27T08:20:49Z</time>
      </trkpt>
      <trkpt lat="46.56" lon="5.7449">
        <ele>548.26</ele>
        <time>2019-04-27T08:21:03Z</time>
      </trkpt>
      <trkpt lat="46.55983" lon="5.74517">
        <ele>548.29</ele>
        <time>2019-04-27T08:21:20Z</time>
      </trkpt>
      <trkpt lat="46.55969" lon="5.74536">
        <ele>547.37</ele>
        <time>2019-04-27T08:21:33Z</time>
      </trkpt>
      <trkpt lat="46.55955" lon="5.74546">
        <ele>546.49</ele>
        <time>2019-04-27T08:21:44Z</time>
      </trkpt>
      <trkpt lat="46.55939" lon="5.74557">
        <ele>544.89</ele>
        <time>2019-04-27T08:21:57Z</time>
      </trkpt>
      <trkpt lat="46.55928" lon="5.74563">
        <ele>544.02</ele>
        <time>2019-04-27T08:22:05Z</time>
      </trkpt>
      <trkpt lat="46.55926" lon="5.74564">
        <ele>544.01</ele>
        <time>2019-04-27T08:22:06Z</time>
      </trkpt>
      <trkpt lat="46.55904" lon="5.74572">
        <ele>544.02</ele>
        <time>2019-04-27T08:22:20Z</time>
      </trkpt>
      <trkpt lat="46.55885" lon="5.74572">
        <ele>543.22</ele>
        <time>2019-04-27T08:22:33Z</time>
      </trkpt>
      <trkpt lat="46.55865" lon="5.7457">
        <ele>543.28</ele>
        <time>2019-04-27T08:22:47Z</time>
      </trkpt>
      <trkpt lat="46.55856" lon="5.74572">
        <ele>543.27</ele>
        <time>2019-04-27T08:22:55Z</time>
      </trkpt>
      <trkpt lat="46.55855" lon="5.74573">
        <ele>543.27</ele>
        <time>2019-04-27T08:22:56Z</time>
      </trkpt>
      <trkpt lat="46.55851" lon="5.74575">
        <ele>543.25</ele>
        <time>2019-04-27T08:22:58Z</time>
      </trkpt>
      <trkpt lat="46.55851" lon="5.74577">
        <ele>543.25</ele>
        <time>2019-04-27T08:22:59Z</time>
      </trkpt>
      <trkpt lat="46.5585" lon="5.74579">
        <ele>543.2</ele>
        <time>2019-04-27T08:23:00Z</time>
      </trkpt>
      <trkpt lat="46.55849" lon="5.74579">
        <ele>543.24</ele>
        <time>2019-04-27T08:23:01Z</time>
      </trkpt>
      <trkpt lat="46.55847" lon="5.7458">
        <ele>543.27</ele>
        <time>2019-04-27T08:23:02Z</time>
      </trkpt>
      <trkpt lat="46.55845" lon="5.74581">
        <ele>543.26</ele>
        <time>2019-04-27T08:23:03Z</time>
      </trkpt>
      <trkpt lat="46.55844" lon="5.74582">
        <ele>543.24</ele>
        <time>2019-04-27T08:23:04Z</time>
      </trkpt>
      <trkpt lat="46.55842" lon="5.74583">
        <ele>543.21</ele>
        <time>2019-04-27T08:23:05Z</time>
      </trkpt>
      <trkpt lat="46.55828" lon="5.74598">
        <ele>543.29</ele>
        <time>2019-04-27T08:23:18Z</time>
      </trkpt>
      <trkpt lat="46.55821" lon="5.74605">
        <ele>543.31</ele>
        <time>2019-04-27T08:23:24Z</time>
      </trkpt>
      <trkpt lat="46.5582" lon="5.74606">
        <ele>543.3</ele>
        <time>2019-04-27T08:23:25Z</time>
      </trkpt>
      <trkpt lat="46.55819" lon="5.74608">
        <ele>543.3</ele>
        <time>2019-04-27T08:23:26Z</time>
      </trkpt>
      <trkpt lat="46.55818" lon="5.74609">
        <ele>543.31</ele>
        <time>2019-04-27T08:23:27Z</time>
      </trkpt>
      <trkpt lat="46.55817" lon="5.7461">
        <ele>543.32</ele>
        <time>2019-04-27T08:23:28Z</time>
      </trkpt>
      <trkpt lat="46.55815" lon="5.74611">
        <ele>543.32</ele>
        <time>2019-04-27T08:23:29Z</time>
      </trkpt>
      <trkpt lat="46.55814" lon="5.74613">
        <ele>542.52</ele>
        <time>2019-04-27T08:23:30Z</time>
      </trkpt>
      <trkpt lat="46.55813" lon="5.74614">
        <ele>542.52</ele>
        <time>2019-04-27T08:23:31Z</time>
      </trkpt>
      <trkpt lat="46.55812" lon="5.74616">
        <ele>542.52</ele>
        <time>2019-04-27T08:23:32Z</time>
      </trkpt>
      <trkpt lat="46.55809" lon="5.7462">
        <ele>542.54</ele>
        <time>2019-04-27T08:23:35Z</time>
      </trkpt>
      <trkpt lat="46.55808" lon="5.74621">
        <ele>542.56</ele>
        <time>2019-04-27T08:23:36Z</time>
      </trkpt>
      <trkpt lat="46.55798" lon="5.74639">
        <ele>542.61</ele>
        <time>2019-04-27T08:23:49Z</time>
      </trkpt>
      <trkpt lat="46.55798" lon="5.7464">
        <ele>542.6</ele>
        <time>2019-04-27T08:23:50Z</time>
      </trkpt>
      <trkpt lat="46.55797" lon="5.74642">
        <ele>542.58</ele>
        <time>2019-04-27T08:23:51Z</time>
      </trkpt>
      <trkpt lat="46.55792" lon="5.74642">
        <ele>542.61</ele>
        <time>2019-04-27T08:23:56Z</time>
      </trkpt>
      <trkpt lat="46.55791" lon="5.74642">
        <ele>542.59</ele>
        <time>2019-04-27T08:23:57Z</time>
      </trkpt>
      <trkpt lat="46.55789" lon="5.74643">
        <ele>542.63</ele>
        <time>2019-04-27T08:23:58Z</time>
      </trkpt>
      <trkpt lat="46.55788" lon="5.74643">
        <ele>542.64</ele>
        <time>2019-04-27T08:23:59Z</time>
      </trkpt>
      <trkpt lat="46.55787" lon="5.74643">
        <ele>542.62</ele>
        <time>2019-04-27T08:24:00Z</time>
      </trkpt>
      <trkpt lat="46.55781" lon="5.74642">
        <ele>542.66</ele>
        <time>2019-04-27T08:24:04Z</time>
      </trkpt>
      <trkpt lat="46.55777" lon="5.74642">
        <ele>544.92</ele>
        <time>2019-04-27T08:24:07Z</time>
      </trkpt>
      <trkpt lat="46.55758" lon="5.74642">
        <ele>546.62</ele>
        <time>2019-04-27T08:24:22Z</time>
      </trkpt>
      <trkpt lat="46.55736" lon="5.7464">
        <ele>548.43</ele>
        <time>2019-04-27T08:24:40Z</time>
      </trkpt>
      <trkpt lat="46.55732" lon="5.74639">
        <ele>549.7</ele>
        <time>2019-04-27T08:24:43Z</time>
      </trkpt>
      <trkpt lat="46.55714" lon="5.74639">
        <ele>549.65</ele>
        <time>2019-04-27T08:24:55Z</time>
      </trkpt>
      <trkpt lat="46.55713" lon="5.74639">
        <ele>550.49</ele>
        <time>2019-04-27T08:24:56Z</time>
      </trkpt>
      <trkpt lat="46.55695" lon="5.74635">
        <ele>550.42</ele>
        <time>2019-04-27T08:25:08Z</time>
      </trkpt>
      <trkpt lat="46.55678" lon="5.74632">
        <ele>550.34</ele>
        <time>2019-04-27T08:25:22Z</time>
      </trkpt>
      <trkpt lat="46.55662" lon="5.74629">
        <ele>551.18</ele>
        <time>2019-04-27T08:25:36Z</time>
      </trkpt>
      <trkpt lat="46.55638" lon="5.74627">
        <ele>552.97</ele>
        <time>2019-04-27T08:25:54Z</time>
      </trkpt>
      <trkpt lat="46.55622" lon="5.74631">
        <ele>556.54</ele>
        <time>2019-04-27T08:26:09Z</time>
      </trkpt>
      <trkpt lat="46.55598" lon="5.74635">
        <ele>559.15</ele>
        <time>2019-04-27T08:26:27Z</time>
      </trkpt>
      <trkpt lat="46.55574" lon="5.74637">
        <ele>561.28</ele>
        <time>2019-04-27T08:26:47Z</time>
      </trkpt>
      <trkpt lat="46.55552" lon="5.74642">
        <ele>561.24</ele>
        <time>2019-04-27T08:27:04Z</time>
      </trkpt>
      <trkpt lat="46.55526" lon="5.74652">
        <ele>561.27</ele>
        <time>2019-04-27T08:27:20Z</time>
      </trkpt>
      <trkpt lat="46.55508" lon="5.74661">
        <ele>562.25</ele>
        <time>2019-04-27T08:27:35Z</time>
      </trkpt>
      <trkpt lat="46.5548" lon="5.74665">
        <ele>562.28</ele>
        <time>2019-04-27T08:27:54Z</time>
      </trkpt>
      <trkpt lat="46.55469" lon="5.74665">
        <ele>562.25</ele>
        <time>2019-04-27T08:28:03Z</time>
      </trkpt>
      <trkpt lat="46.55464" lon="5.74665">
        <ele>562.26</ele>
        <time>2019-04-27T08:28:06Z</time>
      </trkpt>
      <trkpt lat="46.5544" lon="5.74664">
        <ele>562.29</ele>
        <time>2019-04-27T08:28:21Z</time>
      </trkpt>
      <trkpt lat="46.55416" lon="5.74661">
        <ele>562.29</ele>
        <time>2019-04-27T08:28:36Z</time>
      </trkpt>
      <trkpt lat="46.55411" lon="5.74664">
        <ele>562.31</ele>
        <time>2019-04-27T08:28:38Z</time>
      </trkpt>
      <trkpt lat="46.55394" lon="5.74676">
        <ele>562.32</ele>
        <time>2019-04-27T08:28:49Z</time>
      </trkpt>
      <trkpt lat="46.55374" lon="5.74696">
        <ele>562.29</ele>
        <time>2019-04-27T08:29:03Z</time>
      </trkpt>
      <trkpt lat="46.55367" lon="5.74711">
        <ele>562.31</ele>
        <time>2019-04-27T08:29:11Z</time>
      </trkpt>
      <trkpt lat="46.55366" lon="5.74713">
        <ele>562.31</ele>
        <time>2019-04-27T08:29:12Z</time>
      </trkpt>
      <trkpt lat="46.55366" lon="5.74714">
        <ele>562.31</ele>
        <time>2019-04-27T08:29:13Z</time>
      </trkpt>
      <trkpt lat="46.55365" lon="5.74716">
        <ele>562.32</ele>
        <time>2019-04-27T08:29:14Z</time>
      </trkpt>
      <trkpt lat="46.55364" lon="5.74718">
        <ele>562.32</ele>
        <time>2019-04-27T08:29:15Z</time>
      </trkpt>
      <trkpt lat="46.55363" lon="5.7472">
        <ele>563.22</ele>
        <time>2019-04-27T08:29:16Z</time>
      </trkpt>
      <trkpt lat="46.55363" lon="5.74722">
        <ele>563.24</ele>
        <time>2019-04-27T08:29:17Z</time>
      </trkpt>
      <trkpt lat="46.55356" lon="5.7475">
        <ele>565.08</ele>
        <time>2019-04-27T08:29:30Z</time>
      </trkpt>
      <trkpt lat="46.55356" lon="5.74752">
        <ele>565.09</ele>
        <time>2019-04-27T08:29:31Z</time>
      </trkpt>
      <trkpt lat="46.55355" lon="5.74754">
        <ele>565.09</ele>
        <time>2019-04-27T08:29:32Z</time>
      </trkpt>
      <trkpt lat="46.55354" lon="5.74756">
        <ele>565.1</ele>
        <time>2019-04-27T08:29:33Z</time>
      </trkpt>
      <trkpt lat="46.55346" lon="5.7478">
        <ele>566.96</ele>
        <time>2019-04-27T08:29:48Z</time>
      </trkpt>
      <trkpt lat="46.55345" lon="5.74783">
        <ele>566.93</ele>
        <time>2019-04-27T08:29:50Z</time>
      </trkpt>
      <trkpt lat="46.55342" lon="5.748">
        <ele>566.85</ele>
        <time>2019-04-27T08:30:01Z</time>
      </trkpt>
      <trkpt lat="46.55341" lon="5.74807">
        <ele>566.78</ele>
        <time>2019-04-27T08:30:05Z</time>
      </trkpt>
      <trkpt lat="46.55341" lon="5.74809">
        <ele>566.76</ele>
        <time>2019-04-27T08:30:06Z</time>
      </trkpt>
      <trkpt lat="46.5534" lon="5.74825">
        <ele>564.49</ele>
        <time>2019-04-27T08:30:15Z</time>
      </trkpt>
      <trkpt lat="46.55335" lon="5.74846">
        <ele>562.57</ele>
        <time>2019-04-27T08:30:28Z</time>
      </trkpt>
      <trkpt lat="46.55331" lon="5.74862">
        <ele>560.8</ele>
        <time>2019-04-27T08:30:36Z</time>
      </trkpt>
      <trkpt lat="46.5533" lon="5.74863">
        <ele>560.78</ele>
        <time>2019-04-27T08:30:37Z</time>
      </trkpt>
      <trkpt lat="46.55329" lon="5.74866">
        <ele>560.79</ele>
        <time>2019-04-27T08:30:38Z</time>
      </trkpt>
      <trkpt lat="46.55328" lon="5.74868">
        <ele>560</ele>
        <time>2019-04-27T08:30:39Z</time>
      </trkpt>
      <trkpt lat="46.5532" lon="5.74891">
        <ele>558.3</ele>
        <time>2019-04-27T08:30:52Z</time>
      </trkpt>
      <trkpt lat="46.55315" lon="5.74903">
        <ele>558.29</ele>
        <time>2019-04-27T08:30:57Z</time>
      </trkpt>
      <trkpt lat="46.55304" lon="5.74918">
        <ele>556.73</ele>
        <time>2019-04-27T08:31:09Z</time>
      </trkpt>
      <trkpt lat="46.55301" lon="5.74922">
        <ele>556.73</ele>
        <time>2019-04-27T08:31:11Z</time>
      </trkpt>
      <trkpt lat="46.55299" lon="5.74928">
        <ele>556.72</ele>
        <time>2019-04-27T08:31:14Z</time>
      </trkpt>
      <trkpt lat="46.55286" lon="5.74945">
        <ele>555.01</ele>
        <time>2019-04-27T08:31:24Z</time>
      </trkpt>
      <trkpt lat="46.55283" lon="5.7495">
        <ele>554.18</ele>
        <time>2019-04-27T08:31:27Z</time>
      </trkpt>
      <trkpt lat="46.55273" lon="5.74958">
        <ele>553.36</ele>
        <time>2019-04-27T08:31:34Z</time>
      </trkpt>
      <trkpt lat="46.55272" lon="5.74959">
        <ele>553.35</ele>
        <time>2019-04-27T08:31:35Z</time>
      </trkpt>
      <trkpt lat="46.55269" lon="5.74962">
        <ele>553.35</ele>
        <time>2019-04-27T08:31:37Z</time>
      </trkpt>
      <trkpt lat="46.55268" lon="5.74964">
        <ele>553.35</ele>
        <time>2019-04-27T08:31:38Z</time>
      </trkpt>
      <trkpt lat="46.55267" lon="5.74966">
        <ele>553.34</ele>
        <time>2019-04-27T08:31:39Z</time>
      </trkpt>
      <trkpt lat="46.55266" lon="5.74967">
        <ele>553.34</ele>
        <time>2019-04-27T08:31:40Z</time>
      </trkpt>
      <trkpt lat="46.55265" lon="5.74968">
        <ele>553.32</ele>
        <time>2019-04-27T08:31:41Z</time>
      </trkpt>
      <trkpt lat="46.55264" lon="5.74969">
        <ele>553.32</ele>
        <time>2019-04-27T08:31:42Z</time>
      </trkpt>
      <trkpt lat="46.55257" lon="5.74979">
        <ele>552.49</ele>
        <time>2019-04-27T08:31:48Z</time>
      </trkpt>
      <trkpt lat="46.55251" lon="5.74988">
        <ele>551.54</ele>
        <time>2019-04-27T08:31:54Z</time>
      </trkpt>
      <trkpt lat="46.5525" lon="5.7499">
        <ele>551.51</ele>
        <time>2019-04-27T08:31:55Z</time>
      </trkpt>
      <trkpt lat="46.55248" lon="5.74993">
        <ele>550.66</ele>
        <time>2019-04-27T08:31:57Z</time>
      </trkpt>
      <trkpt lat="46.55243" lon="5.74999">
        <ele>549.72</ele>
        <time>2019-04-27T08:32:03Z</time>
      </trkpt>
      <trkpt lat="46.55242" lon="5.75">
        <ele>549.72</ele>
        <time>2019-04-27T08:32:04Z</time>
      </trkpt>
      <trkpt lat="46.5524" lon="5.75001">
        <ele>549.68</ele>
        <time>2019-04-27T08:32:05Z</time>
      </trkpt>
      <trkpt lat="46.55238" lon="5.75002">
        <ele>548.88</ele>
        <time>2019-04-27T08:32:06Z</time>
      </trkpt>
      <trkpt lat="46.55237" lon="5.75004">
        <ele>548.87</ele>
        <time>2019-04-27T08:32:07Z</time>
      </trkpt>
      <trkpt lat="46.55236" lon="5.75005">
        <ele>548.87</ele>
        <time>2019-04-27T08:32:08Z</time>
      </trkpt>
      <trkpt lat="46.55234" lon="5.75007">
        <ele>548.86</ele>
        <time>2019-04-27T08:32:09Z</time>
      </trkpt>
      <trkpt lat="46.55233" lon="5.75009">
        <ele>548.86</ele>
        <time>2019-04-27T08:32:10Z</time>
      </trkpt>
      <trkpt lat="46.55228" lon="5.75014">
        <ele>548.83</ele>
        <time>2019-04-27T08:32:13Z</time>
      </trkpt>
      <trkpt lat="46.55226" lon="5.75016">
        <ele>547.95</ele>
        <time>2019-04-27T08:32:14Z</time>
      </trkpt>
      <trkpt lat="46.55225" lon="5.75018">
        <ele>547.94</ele>
        <time>2019-04-27T08:32:15Z</time>
      </trkpt>
      <trkpt lat="46.55224" lon="5.75021">
        <ele>547.94</ele>
        <time>2019-04-27T08:32:16Z</time>
      </trkpt>
      <trkpt lat="46.55223" lon="5.75023">
        <ele>547.93</ele>
        <time>2019-04-27T08:32:17Z</time>
      </trkpt>
      <trkpt lat="46.55222" lon="5.75025">
        <ele>547.94</ele>
        <time>2019-04-27T08:32:18Z</time>
      </trkpt>
      <trkpt lat="46.5522" lon="5.75027">
        <ele>547.92</ele>
        <time>2019-04-27T08:32:19Z</time>
      </trkpt>
      <trkpt lat="46.55219" lon="5.75028">
        <ele>547.92</ele>
        <time>2019-04-27T08:32:20Z</time>
      </trkpt>
      <trkpt lat="46.55217" lon="5.7503">
        <ele>547.91</ele>
        <time>2019-04-27T08:32:21Z</time>
      </trkpt>
      <trkpt lat="46.55216" lon="5.75031">
        <ele>547.9</ele>
        <time>2019-04-27T08:32:22Z</time>
      </trkpt>
      <trkpt lat="46.55214" lon="5.75032">
        <ele>547.91</ele>
        <time>2019-04-27T08:32:23Z</time>
      </trkpt>
      <trkpt lat="46.55212" lon="5.75033">
        <ele>547.9</ele>
        <time>2019-04-27T08:32:24Z</time>
      </trkpt>
      <trkpt lat="46.55211" lon="5.75034">
        <ele>547.9</ele>
        <time>2019-04-27T08:32:25Z</time>
      </trkpt>
      <trkpt lat="46.55209" lon="5.75035">
        <ele>547.89</ele>
        <time>2019-04-27T08:32:26Z</time>
      </trkpt>
      <trkpt lat="46.55207" lon="5.75036">
        <ele>547.87</ele>
        <time>2019-04-27T08:32:27Z</time>
      </trkpt>
      <trkpt lat="46.55206" lon="5.75036">
        <ele>547.89</ele>
        <time>2019-04-27T08:32:28Z</time>
      </trkpt>
      <trkpt lat="46.55199" lon="5.75041">
        <ele>547.89</ele>
        <time>2019-04-27T08:32:33Z</time>
      </trkpt>
      <trkpt lat="46.55196" lon="5.75046">
        <ele>547.86</ele>
        <time>2019-04-27T08:32:36Z</time>
      </trkpt>
      <trkpt lat="46.5519" lon="5.75052">
        <ele>547.82</ele>
        <time>2019-04-27T08:32:41Z</time>
      </trkpt>
      <trkpt lat="46.55188" lon="5.75054">
        <ele>547.8</ele>
        <time>2019-04-27T08:32:42Z</time>
      </trkpt>
      <trkpt lat="46.55187" lon="5.75055">
        <ele>547.79</ele>
        <time>2019-04-27T08:32:43Z</time>
      </trkpt>
      <trkpt lat="46.55183" lon="5.75059">
        <ele>547.75</ele>
        <time>2019-04-27T08:32:46Z</time>
      </trkpt>
      <trkpt lat="46.55181" lon="5.7506">
        <ele>547.73</ele>
        <time>2019-04-27T08:32:47Z</time>
      </trkpt>
      <trkpt lat="46.5518" lon="5.75062">
        <ele>547.72</ele>
        <time>2019-04-27T08:32:48Z</time>
      </trkpt>
      <trkpt lat="46.55179" lon="5.75062">
        <ele>547.69</ele>
        <time>2019-04-27T08:32:49Z</time>
      </trkpt>
      <trkpt lat="46.55174" lon="5.7507">
        <ele>547.59</ele>
        <time>2019-04-27T08:32:55Z</time>
      </trkpt>
      <trkpt lat="46.55172" lon="5.75071">
        <ele>547.59</ele>
        <time>2019-04-27T08:32:56Z</time>
      </trkpt>
      <trkpt lat="46.55171" lon="5.75073">
        <ele>547.57</ele>
        <time>2019-04-27T08:32:57Z</time>
      </trkpt>
      <trkpt lat="46.55169" lon="5.75076">
        <ele>547.53</ele>
        <time>2019-04-27T08:33:00Z</time>
      </trkpt>
      <trkpt lat="46.55166" lon="5.75082">
        <ele>547.46</ele>
        <time>2019-04-27T08:33:06Z</time>
      </trkpt>
      <trkpt lat="46.55164" lon="5.75084">
        <ele>547.45</ele>
        <time>2019-04-27T08:33:07Z</time>
      </trkpt>
      <trkpt lat="46.55156" lon="5.75094">
        <ele>549.6</ele>
        <time>2019-04-27T08:33:15Z</time>
      </trkpt>
      <trkpt lat="46.55146" lon="5.75099">
        <ele>549.42</ele>
        <time>2019-04-27T08:33:26Z</time>
      </trkpt>
      <trkpt lat="46.55144" lon="5.75101">
        <ele>549.4</ele>
        <time>2019-04-27T08:33:27Z</time>
      </trkpt>
      <trkpt lat="46.55142" lon="5.75102">
        <ele>549.38</ele>
        <time>2019-04-27T08:33:28Z</time>
      </trkpt>
      <trkpt lat="46.55139" lon="5.75113">
        <ele>549.29</ele>
        <time>2019-04-27T08:33:37Z</time>
      </trkpt>
      <trkpt lat="46.55134" lon="5.7512">
        <ele>550.18</ele>
        <time>2019-04-27T08:33:44Z</time>
      </trkpt>
      <trkpt lat="46.55133" lon="5.75122">
        <ele>550.18</ele>
        <time>2019-04-27T08:33:45Z</time>
      </trkpt>
      <trkpt lat="46.55132" lon="5.75123">
        <ele>550.17</ele>
        <time>2019-04-27T08:33:46Z</time>
      </trkpt>
      <trkpt lat="46.55124" lon="5.75133">
        <ele>550.85</ele>
        <time>2019-04-27T08:33:56Z</time>
      </trkpt>
      <trkpt lat="46.55116" lon="5.7515">
        <ele>550.72</ele>
        <time>2019-04-27T08:34:04Z</time>
      </trkpt>
      <trkpt lat="46.55116" lon="5.75153">
        <ele>550.72</ele>
        <time>2019-04-27T08:34:05Z</time>
      </trkpt>
      <trkpt lat="46.55115" lon="5.75156">
        <ele>550.7</ele>
        <time>2019-04-27T08:34:06Z</time>
      </trkpt>
      <trkpt lat="46.55116" lon="5.7516">
        <ele>550.68</ele>
        <time>2019-04-27T08:34:07Z</time>
      </trkpt>
      <trkpt lat="46.55116" lon="5.75163">
        <ele>550.68</ele>
        <time>2019-04-27T08:34:08Z</time>
      </trkpt>
      <trkpt lat="46.55116" lon="5.75166">
        <ele>550.67</ele>
        <time>2019-04-27T08:34:09Z</time>
      </trkpt>
      <trkpt lat="46.55116" lon="5.75168">
        <ele>550.65</ele>
        <time>2019-04-27T08:34:10Z</time>
      </trkpt>
      <trkpt lat="46.55116" lon="5.75173">
        <ele>551.38</ele>
        <time>2019-04-27T08:34:12Z</time>
      </trkpt>
      <trkpt lat="46.55112" lon="5.75195">
        <ele>551.29</ele>
        <time>2019-04-27T08:34:24Z</time>
      </trkpt>
      <trkpt lat="46.55111" lon="5.75198">
        <ele>551.28</ele>
        <time>2019-04-27T08:34:26Z</time>
      </trkpt>
      <trkpt lat="46.5511" lon="5.752">
        <ele>551.28</ele>
        <time>2019-04-27T08:34:27Z</time>
      </trkpt>
      <trkpt lat="46.55109" lon="5.75202">
        <ele>551.26</ele>
        <time>2019-04-27T08:34:28Z</time>
      </trkpt>
      <trkpt lat="46.55108" lon="5.75209">
        <ele>551.24</ele>
        <time>2019-04-27T08:34:32Z</time>
      </trkpt>
      <trkpt lat="46.55108" lon="5.75212">
        <ele>551.24</ele>
        <time>2019-04-27T08:34:33Z</time>
      </trkpt>
      <trkpt lat="46.55109" lon="5.75216">
        <ele>551.23</ele>
        <time>2019-04-27T08:34:35Z</time>
      </trkpt>
      <trkpt lat="46.55109" lon="5.75218">
        <ele>551.23</ele>
        <time>2019-04-27T08:34:36Z</time>
      </trkpt>
      <trkpt lat="46.55106" lon="5.75235">
        <ele>551.19</ele>
        <time>2019-04-27T08:34:44Z</time>
      </trkpt>
      <trkpt lat="46.55103" lon="5.75242">
        <ele>551.18</ele>
        <time>2019-04-27T08:34:46Z</time>
      </trkpt>
      <trkpt lat="46.55102" lon="5.75244">
        <ele>551.18</ele>
        <time>2019-04-27T08:34:47Z</time>
      </trkpt>
      <trkpt lat="46.55101" lon="5.75247">
        <ele>551.17</ele>
        <time>2019-04-27T08:34:48Z</time>
      </trkpt>
      <trkpt lat="46.551" lon="5.7525">
        <ele>551.18</ele>
        <time>2019-04-27T08:34:49Z</time>
      </trkpt>
      <trkpt lat="46.55099" lon="5.75252">
        <ele>551.18</ele>
        <time>2019-04-27T08:34:50Z</time>
      </trkpt>
      <trkpt lat="46.55097" lon="5.75258">
        <ele>551.17</ele>
        <time>2019-04-27T08:34:53Z</time>
      </trkpt>
      <trkpt lat="46.55096" lon="5.75259">
        <ele>551.16</ele>
        <time>2019-04-27T08:34:54Z</time>
      </trkpt>
      <trkpt lat="46.55096" lon="5.75261">
        <ele>551.16</ele>
        <time>2019-04-27T08:34:55Z</time>
      </trkpt>
      <trkpt lat="46.55095" lon="5.75263">
        <ele>551.16</ele>
        <time>2019-04-27T08:34:56Z</time>
      </trkpt>
      <trkpt lat="46.55095" lon="5.75266">
        <ele>551.16</ele>
        <time>2019-04-27T08:34:57Z</time>
      </trkpt>
      <trkpt lat="46.55095" lon="5.75269">
        <ele>551.15</ele>
        <time>2019-04-27T08:34:58Z</time>
      </trkpt>
      <trkpt lat="46.55094" lon="5.75271">
        <ele>551.15</ele>
        <time>2019-04-27T08:34:59Z</time>
      </trkpt>
      <trkpt lat="46.55093" lon="5.75273">
        <ele>551.15</ele>
        <time>2019-04-27T08:35:00Z</time>
      </trkpt>
      <trkpt lat="46.55093" lon="5.75276">
        <ele>551.14</ele>
        <time>2019-04-27T08:35:01Z</time>
      </trkpt>
      <trkpt lat="46.55093" lon="5.7528">
        <ele>551.15</ele>
        <time>2019-04-27T08:35:02Z</time>
      </trkpt>
      <trkpt lat="46.55093" lon="5.75284">
        <ele>551.14</ele>
        <time>2019-04-27T08:35:03Z</time>
      </trkpt>
      <trkpt lat="46.55088" lon="5.75305">
        <ele>551.13</ele>
        <time>2019-04-27T08:35:11Z</time>
      </trkpt>
      <trkpt lat="46.55086" lon="5.75313">
        <ele>551.1</ele>
        <time>2019-04-27T08:35:15Z</time>
      </trkpt>
      <trkpt lat="46.55084" lon="5.75318">
        <ele>551.14</ele>
        <time>2019-04-27T08:35:18Z</time>
      </trkpt>
      <trkpt lat="46.55084" lon="5.75322">
        <ele>551.15</ele>
        <time>2019-04-27T08:35:20Z</time>
      </trkpt>
      <trkpt lat="46.55083" lon="5.75324">
        <ele>551.15</ele>
        <time>2019-04-27T08:35:21Z</time>
      </trkpt>
      <trkpt lat="46.55082" lon="5.75326">
        <ele>551.17</ele>
        <time>2019-04-27T08:35:22Z</time>
      </trkpt>
      <trkpt lat="46.55081" lon="5.75328">
        <ele>551.16</ele>
        <time>2019-04-27T08:35:23Z</time>
      </trkpt>
      <trkpt lat="46.5508" lon="5.7533">
        <ele>551.17</ele>
        <time>2019-04-27T08:35:24Z</time>
      </trkpt>
      <trkpt lat="46.55077" lon="5.75339">
        <ele>552.03</ele>
        <time>2019-04-27T08:35:29Z</time>
      </trkpt>
      <trkpt lat="46.55076" lon="5.75341">
        <ele>552.04</ele>
        <time>2019-04-27T08:35:30Z</time>
      </trkpt>
      <trkpt lat="46.55075" lon="5.75343">
        <ele>552.05</ele>
        <time>2019-04-27T08:35:31Z</time>
      </trkpt>
      <trkpt lat="46.55074" lon="5.75345">
        <ele>552.05</ele>
        <time>2019-04-27T08:35:32Z</time>
      </trkpt>
      <trkpt lat="46.55073" lon="5.75347">
        <ele>552.05</ele>
        <time>2019-04-27T08:35:33Z</time>
      </trkpt>
      <trkpt lat="46.55072" lon="5.75349">
        <ele>552.06</ele>
        <time>2019-04-27T08:35:34Z</time>
      </trkpt>
      <trkpt lat="46.55069" lon="5.75357">
        <ele>552.78</ele>
        <time>2019-04-27T08:35:40Z</time>
      </trkpt>
      <trkpt lat="46.55068" lon="5.75361">
        <ele>552.76</ele>
        <time>2019-04-27T08:35:42Z</time>
      </trkpt>
      <trkpt lat="46.55067" lon="5.75362">
        <ele>552.73</ele>
        <time>2019-04-27T08:35:43Z</time>
      </trkpt>
      <trkpt lat="46.55066" lon="5.75364">
        <ele>552.72</ele>
        <time>2019-04-27T08:35:44Z</time>
      </trkpt>
      <trkpt lat="46.55055" lon="5.75386">
        <ele>549.96</ele>
        <time>2019-04-27T08:35:56Z</time>
      </trkpt>
      <trkpt lat="46.55052" lon="5.75391">
        <ele>549.14</ele>
        <time>2019-04-27T08:35:59Z</time>
      </trkpt>
      <trkpt lat="46.55051" lon="5.75393">
        <ele>549.13</ele>
        <time>2019-04-27T08:36:00Z</time>
      </trkpt>
      <trkpt lat="46.5505" lon="5.75395">
        <ele>549.12</ele>
        <time>2019-04-27T08:36:01Z</time>
      </trkpt>
      <trkpt lat="46.55047" lon="5.75399">
        <ele>549.09</ele>
        <time>2019-04-27T08:36:04Z</time>
      </trkpt>
      <trkpt lat="46.55046" lon="5.75401">
        <ele>548.22</ele>
        <time>2019-04-27T08:36:05Z</time>
      </trkpt>
      <trkpt lat="46.55045" lon="5.75403">
        <ele>548.21</ele>
        <time>2019-04-27T08:36:06Z</time>
      </trkpt>
      <trkpt lat="46.55044" lon="5.75405">
        <ele>548.18</ele>
        <time>2019-04-27T08:36:07Z</time>
      </trkpt>
      <trkpt lat="46.55043" lon="5.75407">
        <ele>548.18</ele>
        <time>2019-04-27T08:36:08Z</time>
      </trkpt>
      <trkpt lat="46.55037" lon="5.75424">
        <ele>547.24</ele>
        <time>2019-04-27T08:36:19Z</time>
      </trkpt>
      <trkpt lat="46.55026" lon="5.75443">
        <ele>546.99</ele>
        <time>2019-04-27T08:36:36Z</time>
      </trkpt>
      <trkpt lat="46.55022" lon="5.7545">
        <ele>546.92</ele>
        <time>2019-04-27T08:36:40Z</time>
      </trkpt>
      <trkpt lat="46.55018" lon="5.75458">
        <ele>546.83</ele>
        <time>2019-04-27T08:36:45Z</time>
      </trkpt>
      <trkpt lat="46.55013" lon="5.7547">
        <ele>546.7</ele>
        <time>2019-04-27T08:36:53Z</time>
      </trkpt>
      <trkpt lat="46.55012" lon="5.75472">
        <ele>546.65</ele>
        <time>2019-04-27T08:36:54Z</time>
      </trkpt>
      <trkpt lat="46.55011" lon="5.75475">
        <ele>546.62</ele>
        <time>2019-04-27T08:36:55Z</time>
      </trkpt>
      <trkpt lat="46.55003" lon="5.75499">
        <ele>546.36</ele>
        <time>2019-04-27T08:37:06Z</time>
      </trkpt>
      <trkpt lat="46.54998" lon="5.75518">
        <ele>546.05</ele>
        <time>2019-04-27T08:37:17Z</time>
      </trkpt>
      <trkpt lat="46.54997" lon="5.75525">
        <ele>545.97</ele>
        <time>2019-04-27T08:37:20Z</time>
      </trkpt>
      <trkpt lat="46.54998" lon="5.75528">
        <ele>545.93</ele>
        <time>2019-04-27T08:37:21Z</time>
      </trkpt>
      <trkpt lat="46.54999" lon="5.7553">
        <ele>545.89</ele>
        <time>2019-04-27T08:37:22Z</time>
      </trkpt>
      <trkpt lat="46.55" lon="5.75537">
        <ele>544.94</ele>
        <time>2019-04-27T08:37:25Z</time>
      </trkpt>
      <trkpt lat="46.54995" lon="5.75552">
        <ele>543.72</ele>
        <time>2019-04-27T08:37:34Z</time>
      </trkpt>
      <trkpt lat="46.54993" lon="5.75572">
        <ele>542.5</ele>
        <time>2019-04-27T08:37:45Z</time>
      </trkpt>
      <trkpt lat="46.54985" lon="5.75599">
        <ele>541.38</ele>
        <time>2019-04-27T08:38:00Z</time>
      </trkpt>
      <trkpt lat="46.54984" lon="5.75604">
        <ele>541.33</ele>
        <time>2019-04-27T08:38:02Z</time>
      </trkpt>
      <trkpt lat="46.5498" lon="5.75619">
        <ele>541.12</ele>
        <time>2019-04-27T08:38:10Z</time>
      </trkpt>
      <trkpt lat="46.54979" lon="5.75621">
        <ele>541.09</ele>
        <time>2019-04-27T08:38:11Z</time>
      </trkpt>
      <trkpt lat="46.54978" lon="5.75623">
        <ele>541.06</ele>
        <time>2019-04-27T08:38:12Z</time>
      </trkpt>
      <trkpt lat="46.54978" lon="5.75625">
        <ele>541.01</ele>
        <time>2019-04-27T08:38:13Z</time>
      </trkpt>
      <trkpt lat="46.54977" lon="5.75628">
        <ele>540.98</ele>
        <time>2019-04-27T08:38:14Z</time>
      </trkpt>
      <trkpt lat="46.54977" lon="5.7563">
        <ele>540.95</ele>
        <time>2019-04-27T08:38:15Z</time>
      </trkpt>
      <trkpt lat="46.54976" lon="5.75632">
        <ele>540.93</ele>
        <time>2019-04-27T08:38:16Z</time>
      </trkpt>
      <trkpt lat="46.54975" lon="5.75634">
        <ele>540.9</ele>
        <time>2019-04-27T08:38:17Z</time>
      </trkpt>
      <trkpt lat="46.54974" lon="5.75641">
        <ele>540.81</ele>
        <time>2019-04-27T08:38:20Z</time>
      </trkpt>
      <trkpt lat="46.54974" lon="5.75644">
        <ele>540.78</ele>
        <time>2019-04-27T08:38:21Z</time>
      </trkpt>
      <trkpt lat="46.54974" lon="5.75646">
        <ele>540.77</ele>
        <time>2019-04-27T08:38:22Z</time>
      </trkpt>
      <trkpt lat="46.54974" lon="5.75649">
        <ele>540.74</ele>
        <time>2019-04-27T08:38:23Z</time>
      </trkpt>
      <trkpt lat="46.54975" lon="5.75661">
        <ele>540.64</ele>
        <time>2019-04-27T08:38:27Z</time>
      </trkpt>
      <trkpt lat="46.54977" lon="5.75674">
        <ele>540.52</ele>
        <time>2019-04-27T08:38:33Z</time>
      </trkpt>
      <trkpt lat="46.54979" lon="5.757">
        <ele>539.32</ele>
        <time>2019-04-27T08:38:48Z</time>
      </trkpt>
      <trkpt lat="46.54978" lon="5.75719">
        <ele>539.13</ele>
        <time>2019-04-27T08:38:57Z</time>
      </trkpt>
      <trkpt lat="46.54979" lon="5.75722">
        <ele>539.12</ele>
        <time>2019-04-27T08:38:58Z</time>
      </trkpt>
      <trkpt lat="46.5498" lon="5.75726">
        <ele>539.09</ele>
        <time>2019-04-27T08:38:59Z</time>
      </trkpt>
      <trkpt lat="46.54981" lon="5.75728">
        <ele>539.08</ele>
        <time>2019-04-27T08:39:00Z</time>
      </trkpt>
      <trkpt lat="46.54983" lon="5.75743">
        <ele>538.17</ele>
        <time>2019-04-27T08:39:07Z</time>
      </trkpt>
      <trkpt lat="46.54983" lon="5.75745">
        <ele>538.15</ele>
        <time>2019-04-27T08:39:08Z</time>
      </trkpt>
      <trkpt lat="46.54984" lon="5.75748">
        <ele>537.36</ele>
        <time>2019-04-27T08:39:09Z</time>
      </trkpt>
      <trkpt lat="46.54983" lon="5.7575">
        <ele>537.35</ele>
        <time>2019-04-27T08:39:10Z</time>
      </trkpt>
      <trkpt lat="46.54983" lon="5.75754">
        <ele>537.34</ele>
        <time>2019-04-27T08:39:11Z</time>
      </trkpt>
      <trkpt lat="46.54984" lon="5.75758">
        <ele>537.32</ele>
        <time>2019-04-27T08:39:12Z</time>
      </trkpt>
      <trkpt lat="46.54983" lon="5.7576">
        <ele>537.32</ele>
        <time>2019-04-27T08:39:13Z</time>
      </trkpt>
      <trkpt lat="46.54983" lon="5.75762">
        <ele>524.07</ele>
        <time>2019-04-27T08:39:14Z</time>
      </trkpt>
      <trkpt lat="46.54983" lon="5.75764">
        <ele>539.01</ele>
        <time>2019-04-27T08:39:15Z</time>
      </trkpt>
      <trkpt lat="46.54983" lon="5.75765">
        <ele>531.99</ele>
        <time>2019-04-27T08:39:16Z</time>
      </trkpt>
      <trkpt lat="46.54984" lon="5.75769">
        <ele>543.98</ele>
        <time>2019-04-27T08:39:18Z</time>
      </trkpt>
      <trkpt lat="46.54983" lon="5.75771">
        <ele>532.27</ele>
        <time>2019-04-27T08:39:19Z</time>
      </trkpt>
      <trkpt lat="46.54984" lon="5.75773">
        <ele>536.57</ele>
        <time>2019-04-27T08:39:20Z</time>
      </trkpt>
      <trkpt lat="46.54985" lon="5.75779">
        <ele>538.98</ele>
        <time>2019-04-27T08:39:22Z</time>
      </trkpt>
      <trkpt lat="46.54984" lon="5.75783">
        <ele>535.44</ele>
        <time>2019-04-27T08:39:24Z</time>
      </trkpt>
      <trkpt lat="46.54984" lon="5.75785">
        <ele>535.43</ele>
        <time>2019-04-27T08:39:25Z</time>
      </trkpt>
      <trkpt lat="46.54982" lon="5.75804">
        <ele>535.45</ele>
        <time>2019-04-27T08:39:33Z</time>
      </trkpt>
      <trkpt lat="46.54982" lon="5.75807">
        <ele>535.43</ele>
        <time>2019-04-27T08:39:34Z</time>
      </trkpt>
      <trkpt lat="46.54982" lon="5.75808">
        <ele>538.82</ele>
        <time>2019-04-27T08:39:35Z</time>
      </trkpt>
      <trkpt lat="46.54981" lon="5.75811">
        <ele>538.8</ele>
        <time>2019-04-27T08:39:36Z</time>
      </trkpt>
      <trkpt lat="46.54979" lon="5.75816">
        <ele>536</ele>
        <time>2019-04-27T08:39:40Z</time>
      </trkpt>
      <trkpt lat="46.54972" lon="5.75829">
        <ele>537.04</ele>
        <time>2019-04-27T08:39:51Z</time>
      </trkpt>
      <trkpt lat="46.54969" lon="5.75835">
        <ele>534.83</ele>
        <time>2019-04-27T08:39:55Z</time>
      </trkpt>
      <trkpt lat="46.5497" lon="5.75838">
        <ele>534.81</ele>
        <time>2019-04-27T08:39:57Z</time>
      </trkpt>
      <trkpt lat="46.54969" lon="5.75841">
        <ele>534.81</ele>
        <time>2019-04-27T08:39:58Z</time>
      </trkpt>
      <trkpt lat="46.54969" lon="5.75843">
        <ele>534.82</ele>
        <time>2019-04-27T08:39:59Z</time>
      </trkpt>
      <trkpt lat="46.54969" lon="5.75845">
        <ele>534.82</ele>
        <time>2019-04-27T08:40:00Z</time>
      </trkpt>
      <trkpt lat="46.54968" lon="5.75848">
        <ele>534.81</ele>
        <time>2019-04-27T08:40:01Z</time>
      </trkpt>
      <trkpt lat="46.54968" lon="5.7585">
        <ele>534.81</ele>
        <time>2019-04-27T08:40:02Z</time>
      </trkpt>
      <trkpt lat="46.54965" lon="5.75869">
        <ele>533.79</ele>
        <time>2019-04-27T08:40:16Z</time>
      </trkpt>
      <trkpt lat="46.54962" lon="5.75895">
        <ele>532.89</ele>
        <time>2019-04-27T08:40:30Z</time>
      </trkpt>
      <trkpt lat="46.54961" lon="5.75897">
        <ele>532.87</ele>
        <time>2019-04-27T08:40:31Z</time>
      </trkpt>
      <trkpt lat="46.5496" lon="5.75899">
        <ele>532.88</ele>
        <time>2019-04-27T08:40:32Z</time>
      </trkpt>
      <trkpt lat="46.54959" lon="5.75921">
        <ele>532.81</ele>
        <time>2019-04-27T08:40:45Z</time>
      </trkpt>
      <trkpt lat="46.54959" lon="5.75927">
        <ele>532.78</ele>
        <time>2019-04-27T08:40:48Z</time>
      </trkpt>
      <trkpt lat="46.54959" lon="5.75939">
        <ele>535.17</ele>
        <time>2019-04-27T08:40:54Z</time>
      </trkpt>
      <trkpt lat="46.54963" lon="5.75967">
        <ele>535.84</ele>
        <time>2019-04-27T08:41:07Z</time>
      </trkpt>
      <trkpt lat="46.54966" lon="5.75985">
        <ele>535.59</ele>
        <time>2019-04-27T08:41:19Z</time>
      </trkpt>
      <trkpt lat="46.54963" lon="5.75989">
        <ele>535.45</ele>
        <time>2019-04-27T08:41:37Z</time>
      </trkpt>
      <trkpt lat="46.54964" lon="5.75995">
        <ele>535.36</ele>
        <time>2019-04-27T08:41:57Z</time>
      </trkpt>
      <trkpt lat="46.54961" lon="5.76015">
        <ele>535.35</ele>
        <time>2019-04-27T08:42:14Z</time>
      </trkpt>
      <trkpt lat="46.54964" lon="5.76028">
        <ele>537.11</ele>
        <time>2019-04-27T08:42:31Z</time>
      </trkpt>
      <trkpt lat="46.54979" lon="5.76054">
        <ele>537</ele>
        <time>2019-04-27T08:42:48Z</time>
      </trkpt>
      <trkpt lat="46.54982" lon="5.76056">
        <ele>537.01</ele>
        <time>2019-04-27T08:42:56Z</time>
      </trkpt>
      <trkpt lat="46.54983" lon="5.76057">
        <ele>536.94</ele>
        <time>2019-04-27T08:42:57Z</time>
      </trkpt>
      <trkpt lat="46.54989" lon="5.76058">
        <ele>534.4</ele>
        <time>2019-04-27T08:43:01Z</time>
      </trkpt>
      <trkpt lat="46.54998" lon="5.76077">
        <ele>532.68</ele>
        <time>2019-04-27T08:43:17Z</time>
      </trkpt>
      <trkpt lat="46.54999" lon="5.76088">
        <ele>532.74</ele>
        <time>2019-04-27T08:43:24Z</time>
      </trkpt>
      <trkpt lat="46.54999" lon="5.76089">
        <ele>532.73</ele>
        <time>2019-04-27T08:43:25Z</time>
      </trkpt>
      <trkpt lat="46.55" lon="5.76091">
        <ele>532.73</ele>
        <time>2019-04-27T08:43:26Z</time>
      </trkpt>
      <trkpt lat="46.55011" lon="5.76106">
        <ele>532.68</ele>
        <time>2019-04-27T08:43:43Z</time>
      </trkpt>
      <trkpt lat="46.55013" lon="5.76115">
        <ele>532.69</ele>
        <time>2019-04-27T08:43:52Z</time>
      </trkpt>
      <trkpt lat="46.55012" lon="5.76119">
        <ele>532.67</ele>
        <time>2019-04-27T08:43:56Z</time>
      </trkpt>
      <trkpt lat="46.55006" lon="5.76126">
        <ele>534.93</ele>
        <time>2019-04-27T08:44:03Z</time>
      </trkpt>
      <trkpt lat="46.55004" lon="5.76135">
        <ele>535.74</ele>
        <time>2019-04-27T08:44:14Z</time>
      </trkpt>
      <trkpt lat="46.55007" lon="5.76148">
        <ele>538.17</ele>
        <time>2019-04-27T08:44:33Z</time>
      </trkpt>
      <trkpt lat="46.55011" lon="5.76162">
        <ele>539.04</ele>
        <time>2019-04-27T08:44:44Z</time>
      </trkpt>
      <trkpt lat="46.55017" lon="5.76173">
        <ele>538.91</ele>
        <time>2019-04-27T08:44:55Z</time>
      </trkpt>
      <trkpt lat="46.55019" lon="5.76175">
        <ele>536.25</ele>
        <time>2019-04-27T08:45:00Z</time>
      </trkpt>
      <trkpt lat="46.55025" lon="5.76179">
        <ele>534.24</ele>
        <time>2019-04-27T08:45:08Z</time>
      </trkpt>
      <trkpt lat="46.55047" lon="5.76199">
        <ele>532.44</ele>
        <time>2019-04-27T08:45:26Z</time>
      </trkpt>
      <trkpt lat="46.55061" lon="5.76227">
        <ele>532.42</ele>
        <time>2019-04-27T08:45:47Z</time>
      </trkpt>
      <trkpt lat="46.55065" lon="5.7624">
        <ele>532.38</ele>
        <time>2019-04-27T08:45:59Z</time>
      </trkpt>
      <trkpt lat="46.55071" lon="5.76256">
        <ele>532.28</ele>
        <time>2019-04-27T08:46:15Z</time>
      </trkpt>
      <trkpt lat="46.55078" lon="5.76269">
        <ele>532.22</ele>
        <time>2019-04-27T08:46:23Z</time>
      </trkpt>
      <trkpt lat="46.55088" lon="5.76293">
        <ele>532.11</ele>
        <time>2019-04-27T08:46:40Z</time>
      </trkpt>
      <trkpt lat="46.55104" lon="5.76315">
        <ele>532.04</ele>
        <time>2019-04-27T08:46:56Z</time>
      </trkpt>
      <trkpt lat="46.55106" lon="5.76324">
        <ele>534.55</ele>
        <time>2019-04-27T08:47:05Z</time>
      </trkpt>
      <trkpt lat="46.55109" lon="5.76331">
        <ele>535.25</ele>
        <time>2019-04-27T08:47:15Z</time>
      </trkpt>
      <trkpt lat="46.55123" lon="5.76347">
        <ele>535.07</ele>
        <time>2019-04-27T08:47:33Z</time>
      </trkpt>
      <trkpt lat="46.55134" lon="5.7638">
        <ele>535.67</ele>
        <time>2019-04-27T08:47:56Z</time>
      </trkpt>
      <trkpt lat="46.55144" lon="5.76408">
        <ele>535.43</ele>
        <time>2019-04-27T08:48:18Z</time>
      </trkpt>
      <trkpt lat="46.55153" lon="5.76425">
        <ele>535.33</ele>
        <time>2019-04-27T08:48:30Z</time>
      </trkpt>
      <trkpt lat="46.55153" lon="5.76426">
        <ele>535.33</ele>
        <time>2019-04-27T08:48:31Z</time>
      </trkpt>
      <trkpt lat="46.5516" lon="5.76434">
        <ele>535.24</ele>
        <time>2019-04-27T08:48:39Z</time>
      </trkpt>
      <trkpt lat="46.55174" lon="5.76449">
        <ele>535.1</ele>
        <time>2019-04-27T08:48:54Z</time>
      </trkpt>
      <trkpt lat="46.55182" lon="5.76476">
        <ele>535.65</ele>
        <time>2019-04-27T08:49:13Z</time>
      </trkpt>
      <trkpt lat="46.55198" lon="5.76488">
        <ele>535.5</ele>
        <time>2019-04-27T08:49:27Z</time>
      </trkpt>
      <trkpt lat="46.55207" lon="5.76494">
        <ele>535.35</ele>
        <time>2019-04-27T08:49:44Z</time>
      </trkpt>
      <trkpt lat="46.55218" lon="5.76509">
        <ele>536.99</ele>
        <time>2019-04-27T08:50:01Z</time>
      </trkpt>
      <trkpt lat="46.55239" lon="5.76529">
        <ele>536.75</ele>
        <time>2019-04-27T08:50:21Z</time>
      </trkpt>
      <trkpt lat="46.55263" lon="5.76545">
        <ele>540.02</ele>
        <time>2019-04-27T08:50:39Z</time>
      </trkpt>
      <trkpt lat="46.55285" lon="5.76556">
        <ele>543.22</ele>
        <time>2019-04-27T08:50:58Z</time>
      </trkpt>
      <trkpt lat="46.55296" lon="5.7658">
        <ele>544.03</ele>
        <time>2019-04-27T08:51:13Z</time>
      </trkpt>
      <trkpt lat="46.553" lon="5.76599">
        <ele>545.78</ele>
        <time>2019-04-27T08:51:31Z</time>
      </trkpt>
      <trkpt lat="46.55303" lon="5.76612">
        <ele>549.26</ele>
        <time>2019-04-27T08:51:44Z</time>
      </trkpt>
      <trkpt lat="46.553" lon="5.76635">
        <ele>552.82</ele>
        <time>2019-04-27T08:51:58Z</time>
      </trkpt>
      <trkpt lat="46.55305" lon="5.76649">
        <ele>556.13</ele>
        <time>2019-04-27T08:52:13Z</time>
      </trkpt>
      <trkpt lat="46.55309" lon="5.76669">
        <ele>559.52</ele>
        <time>2019-04-27T08:52:29Z</time>
      </trkpt>
      <trkpt lat="46.5531" lon="5.76686">
        <ele>561</ele>
        <time>2019-04-27T08:52:44Z</time>
      </trkpt>
      <trkpt lat="46.55309" lon="5.76692">
        <ele>564.12</ele>
        <time>2019-04-27T08:52:51Z</time>
      </trkpt>
      <trkpt lat="46.55307" lon="5.76713">
        <ele>567.79</ele>
        <time>2019-04-27T08:53:05Z</time>
      </trkpt>
      <trkpt lat="46.55301" lon="5.76735">
        <ele>571.45</ele>
        <time>2019-04-27T08:53:22Z</time>
      </trkpt>
      <trkpt lat="46.55298" lon="5.76745">
        <ele>575.22</ele>
        <time>2019-04-27T08:53:36Z</time>
      </trkpt>
      <trkpt lat="46.55297" lon="5.76756">
        <ele>578.81</ele>
        <time>2019-04-27T08:53:50Z</time>
      </trkpt>
      <trkpt lat="46.55299" lon="5.76769">
        <ele>581.51</ele>
        <time>2019-04-27T08:54:06Z</time>
      </trkpt>
      <trkpt lat="46.553" lon="5.76782">
        <ele>585.04</ele>
        <time>2019-04-27T08:54:17Z</time>
      </trkpt>
      <trkpt lat="46.55294" lon="5.76801">
        <ele>588.14</ele>
        <time>2019-04-27T08:54:36Z</time>
      </trkpt>
      <trkpt lat="46.55291" lon="5.76813">
        <ele>587.86</ele>
        <time>2019-04-27T08:54:57Z</time>
      </trkpt>
      <trkpt lat="46.55282" lon="5.76809">
        <ele>590.41</ele>
        <time>2019-04-27T08:55:21Z</time>
      </trkpt>
      <trkpt lat="46.55285" lon="5.76795">
        <ele>593.75</ele>
        <time>2019-04-27T08:55:36Z</time>
      </trkpt>
      <trkpt lat="46.55288" lon="5.76779">
        <ele>593.51</ele>
        <time>2019-04-27T08:55:54Z</time>
      </trkpt>
      <trkpt lat="46.55289" lon="5.76769">
        <ele>597.13</ele>
        <time>2019-04-27T08:56:12Z</time>
      </trkpt>
      <trkpt lat="46.55287" lon="5.76747">
        <ele>599.52</ele>
        <time>2019-04-27T08:56:31Z</time>
      </trkpt>
      <trkpt lat="46.55278" lon="5.76721">
        <ele>599.35</ele>
        <time>2019-04-27T08:56:48Z</time>
      </trkpt>
      <trkpt lat="46.55271" lon="5.76702">
        <ele>599.24</ele>
        <time>2019-04-27T08:57:06Z</time>
      </trkpt>
      <trkpt lat="46.55257" lon="5.76693">
        <ele>599.17</ele>
        <time>2019-04-27T08:57:19Z</time>
      </trkpt>
      <trkpt lat="46.55252" lon="5.76689">
        <ele>596.87</ele>
        <time>2019-04-27T08:57:24Z</time>
      </trkpt>
      <trkpt lat="46.55236" lon="5.76691">
        <ele>594.53</ele>
        <time>2019-04-27T08:57:42Z</time>
      </trkpt>
      <trkpt lat="46.55225" lon="5.7669">
        <ele>592.69</ele>
        <time>2019-04-27T08:57:53Z</time>
      </trkpt>
      <trkpt lat="46.55205" lon="5.7668">
        <ele>590.23</ele>
        <time>2019-04-27T08:58:11Z</time>
      </trkpt>
      <trkpt lat="46.552" lon="5.76679">
        <ele>592.85</ele>
        <time>2019-04-27T08:58:17Z</time>
      </trkpt>
      <trkpt lat="46.55185" lon="5.76676">
        <ele>596.55</ele>
        <time>2019-04-27T08:58:32Z</time>
      </trkpt>
      <trkpt lat="46.55178" lon="5.76672">
        <ele>598.1</ele>
        <time>2019-04-27T08:58:51Z</time>
      </trkpt>
      <trkpt lat="46.5517" lon="5.76669">
        <ele>598.91</ele>
        <time>2019-04-27T08:59:12Z</time>
      </trkpt>
      <trkpt lat="46.5516" lon="5.76652">
        <ele>598.87</ele>
        <time>2019-04-27T08:59:30Z</time>
      </trkpt>
      <trkpt lat="46.55148" lon="5.76639">
        <ele>598.85</ele>
        <time>2019-04-27T08:59:44Z</time>
      </trkpt>
      <trkpt lat="46.55148" lon="5.76632">
        <ele>596.53</ele>
        <time>2019-04-27T08:59:51Z</time>
      </trkpt>
      <trkpt lat="46.55144" lon="5.76622">
        <ele>596.53</ele>
        <time>2019-04-27T09:00:02Z</time>
      </trkpt>
      <trkpt lat="46.5513" lon="5.766">
        <ele>595.67</ele>
        <time>2019-04-27T09:00:19Z</time>
      </trkpt>
      <trkpt lat="46.55123" lon="5.76584">
        <ele>595.65</ele>
        <time>2019-04-27T09:00:38Z</time>
      </trkpt>
      <trkpt lat="46.55116" lon="5.76553">
        <ele>595.62</ele>
        <time>2019-04-27T09:00:55Z</time>
      </trkpt>
      <trkpt lat="46.55108" lon="5.76521">
        <ele>595.59</ele>
        <time>2019-04-27T09:01:10Z</time>
      </trkpt>
      <trkpt lat="46.55107" lon="5.76513">
        <ele>595.58</ele>
        <time>2019-04-27T09:01:14Z</time>
      </trkpt>
      <trkpt lat="46.55102" lon="5.76499">
        <ele>595.53</ele>
        <time>2019-04-27T09:01:26Z</time>
      </trkpt>
      <trkpt lat="46.55098" lon="5.76491">
        <ele>597.82</ele>
        <time>2019-04-27T09:01:32Z</time>
      </trkpt>
      <trkpt lat="46.55085" lon="5.76475">
        <ele>598.52</ele>
        <time>2019-04-27T09:01:48Z</time>
      </trkpt>
      <trkpt lat="46.55084" lon="5.76469">
        <ele>598.45</ele>
        <time>2019-04-27T09:01:52Z</time>
      </trkpt>
      <trkpt lat="46.55079" lon="5.76454">
        <ele>595.87</ele>
        <time>2019-04-27T09:02:00Z</time>
      </trkpt>
      <trkpt lat="46.5507" lon="5.76443">
        <ele>591.81</ele>
        <time>2019-04-27T09:02:13Z</time>
      </trkpt>
      <trkpt lat="46.55064" lon="5.76425">
        <ele>594.04</ele>
        <time>2019-04-27T09:02:31Z</time>
      </trkpt>
      <trkpt lat="46.55064" lon="5.76406">
        <ele>593.81</ele>
        <time>2019-04-27T09:02:48Z</time>
      </trkpt>
      <trkpt lat="46.55058" lon="5.764">
        <ele>591.46</ele>
        <time>2019-04-27T09:02:55Z</time>
      </trkpt>
      <trkpt lat="46.55054" lon="5.76396">
        <ele>590.49</ele>
        <time>2019-04-27T09:03:00Z</time>
      </trkpt>
      <trkpt lat="46.55041" lon="5.76379">
        <ele>588.8</ele>
        <time>2019-04-27T09:03:16Z</time>
      </trkpt>
      <trkpt lat="46.55032" lon="5.76365">
        <ele>588.87</ele>
        <time>2019-04-27T09:03:25Z</time>
      </trkpt>
      <trkpt lat="46.55029" lon="5.76345">
        <ele>586.59</ele>
        <time>2019-04-27T09:03:38Z</time>
      </trkpt>
      <trkpt lat="46.55022" lon="5.76335">
        <ele>585.72</ele>
        <time>2019-04-27T09:03:52Z</time>
      </trkpt>
      <trkpt lat="46.55025" lon="5.76334">
        <ele>585.7</ele>
        <time>2019-04-27T09:04:12Z</time>
      </trkpt>
      <trkpt lat="46.55022" lon="5.76333">
        <ele>585.6</ele>
        <time>2019-04-27T09:04:37Z</time>
      </trkpt>
      <trkpt lat="46.5502" lon="5.7633">
        <ele>582.96</ele>
        <time>2019-04-27T09:04:50Z</time>
      </trkpt>
      <trkpt lat="46.55019" lon="5.7633">
        <ele>586.49</ele>
        <time>2019-04-27T09:04:51Z</time>
      </trkpt>
      <trkpt lat="46.55018" lon="5.76329">
        <ele>586.48</ele>
        <time>2019-04-27T09:04:52Z</time>
      </trkpt>
      <trkpt lat="46.55018" lon="5.76328">
        <ele>581</ele>
        <time>2019-04-27T09:04:54Z</time>
      </trkpt>
      <trkpt lat="46.55017" lon="5.76327">
        <ele>575.99</ele>
        <time>2019-04-27T09:04:55Z</time>
      </trkpt>
      <trkpt lat="46.55016" lon="5.76327">
        <ele>590.65</ele>
        <time>2019-04-27T09:04:56Z</time>
      </trkpt>
      <trkpt lat="46.55016" lon="5.76326">
        <ele>588.29</ele>
        <time>2019-04-27T09:04:57Z</time>
      </trkpt>
      <trkpt lat="46.55015" lon="5.76325">
        <ele>584.81</ele>
        <time>2019-04-27T09:04:59Z</time>
      </trkpt>
      <trkpt lat="46.55013" lon="5.76323">
        <ele>583.88</ele>
        <time>2019-04-27T09:05:01Z</time>
      </trkpt>
      <trkpt lat="46.54998" lon="5.76307">
        <ele>582.02</ele>
        <time>2019-04-27T09:05:15Z</time>
      </trkpt>
      <trkpt lat="46.54995" lon="5.76282">
        <ele>582.22</ele>
        <time>2019-04-27T09:05:30Z</time>
      </trkpt>
      <trkpt lat="46.54986" lon="5.76262">
        <ele>580.24</ele>
        <time>2019-04-27T09:05:48Z</time>
      </trkpt>
      <trkpt lat="46.54982" lon="5.76246">
        <ele>580.23</ele>
        <time>2019-04-27T09:05:57Z</time>
      </trkpt>
      <trkpt lat="46.54963" lon="5.76223">
        <ele>578.58</ele>
        <time>2019-04-27T09:06:14Z</time>
      </trkpt>
      <trkpt lat="46.54958" lon="5.76217">
        <ele>578.62</ele>
        <time>2019-04-27T09:06:19Z</time>
      </trkpt>
      <trkpt lat="46.5495" lon="5.76204">
        <ele>570.97</ele>
        <time>2019-04-27T09:06:33Z</time>
      </trkpt>
      <trkpt lat="46.54949" lon="5.76203">
        <ele>583.22</ele>
        <time>2019-04-27T09:06:34Z</time>
      </trkpt>
      <trkpt lat="46.54949" lon="5.76203">
        <ele>583.2</ele>
        <time>2019-04-27T09:06:35Z</time>
      </trkpt>
      <trkpt lat="46.54948" lon="5.76197">
        <ele>580.68</ele>
        <time>2019-04-27T09:06:39Z</time>
      </trkpt>
      <trkpt lat="46.54945" lon="5.76164">
        <ele>583.24</ele>
        <time>2019-04-27T09:06:57Z</time>
      </trkpt>
      <trkpt lat="46.54939" lon="5.7615">
        <ele>584.95</ele>
        <time>2019-04-27T09:07:12Z</time>
      </trkpt>
      <trkpt lat="46.54926" lon="5.76136">
        <ele>586.65</ele>
        <time>2019-04-27T09:07:29Z</time>
      </trkpt>
      <trkpt lat="46.54925" lon="5.76135">
        <ele>586.64</ele>
        <time>2019-04-27T09:07:30Z</time>
      </trkpt>
      <trkpt lat="46.54919" lon="5.76118">
        <ele>586.44</ele>
        <time>2019-04-27T09:07:43Z</time>
      </trkpt>
      <trkpt lat="46.54919" lon="5.76114">
        <ele>584.13</ele>
        <time>2019-04-27T09:07:46Z</time>
      </trkpt>
      <trkpt lat="46.54913" lon="5.76104">
        <ele>584.11</ele>
        <time>2019-04-27T09:07:54Z</time>
      </trkpt>
      <trkpt lat="46.54915" lon="5.76097">
        <ele>584.14</ele>
        <time>2019-04-27T09:08:00Z</time>
      </trkpt>
      <trkpt lat="46.5491" lon="5.76091">
        <ele>583.36</ele>
        <time>2019-04-27T09:08:21Z</time>
      </trkpt>
      <trkpt lat="46.54901" lon="5.76075">
        <ele>583.35</ele>
        <time>2019-04-27T09:08:32Z</time>
      </trkpt>
      <trkpt lat="46.54899" lon="5.76071">
        <ele>582.42</ele>
        <time>2019-04-27T09:08:36Z</time>
      </trkpt>
      <trkpt lat="46.54892" lon="5.76062">
        <ele>579.65</ele>
        <time>2019-04-27T09:08:45Z</time>
      </trkpt>
      <trkpt lat="46.54881" lon="5.76045">
        <ele>577.04</ele>
        <time>2019-04-27T09:08:59Z</time>
      </trkpt>
      <trkpt lat="46.54874" lon="5.76021">
        <ele>575.34</ele>
        <time>2019-04-27T09:09:12Z</time>
      </trkpt>
      <trkpt lat="46.54877" lon="5.75999">
        <ele>575.53</ele>
        <time>2019-04-27T09:09:26Z</time>
      </trkpt>
      <trkpt lat="46.54877" lon="5.75969">
        <ele>575.55</ele>
        <time>2019-04-27T09:09:39Z</time>
      </trkpt>
      <trkpt lat="46.54879" lon="5.75955">
        <ele>575.48</ele>
        <time>2019-04-27T09:09:52Z</time>
      </trkpt>
      <trkpt lat="46.54877" lon="5.75937">
        <ele>575.47</ele>
        <time>2019-04-27T09:10:06Z</time>
      </trkpt>
      <trkpt lat="46.54875" lon="5.75932">
        <ele>577.74</ele>
        <time>2019-04-27T09:10:10Z</time>
      </trkpt>
      <trkpt lat="46.5487" lon="5.75914">
        <ele>578.59</ele>
        <time>2019-04-27T09:10:19Z</time>
      </trkpt>
      <trkpt lat="46.54868" lon="5.7591">
        <ele>578.57</ele>
        <time>2019-04-27T09:10:22Z</time>
      </trkpt>
      <trkpt lat="46.54865" lon="5.759">
        <ele>578.55</ele>
        <time>2019-04-27T09:10:27Z</time>
      </trkpt>
      <trkpt lat="46.54863" lon="5.75884">
        <ele>578.5</ele>
        <time>2019-04-27T09:10:38Z</time>
      </trkpt>
      <trkpt lat="46.54865" lon="5.75868">
        <ele>578.52</ele>
        <time>2019-04-27T09:10:45Z</time>
      </trkpt>
      <trkpt lat="46.5486" lon="5.75841">
        <ele>578.51</ele>
        <time>2019-04-27T09:10:57Z</time>
      </trkpt>
      <trkpt lat="46.54855" lon="5.75819">
        <ele>576.07</ele>
        <time>2019-04-27T09:11:07Z</time>
      </trkpt>
      <trkpt lat="46.54857" lon="5.75807">
        <ele>576.2</ele>
        <time>2019-04-27T09:11:13Z</time>
      </trkpt>
      <trkpt lat="46.54858" lon="5.75791">
        <ele>576.22</ele>
        <time>2019-04-27T09:11:22Z</time>
      </trkpt>
      <trkpt lat="46.54849" lon="5.75765">
        <ele>576.21</ele>
        <time>2019-04-27T09:11:33Z</time>
      </trkpt>
      <trkpt lat="46.54838" lon="5.75752">
        <ele>576.31</ele>
        <time>2019-04-27T09:11:42Z</time>
      </trkpt>
      <trkpt lat="46.54832" lon="5.75751">
        <ele>576.36</ele>
        <time>2019-04-27T09:11:47Z</time>
      </trkpt>
      <trkpt lat="46.54827" lon="5.75753">
        <ele>578.71</ele>
        <time>2019-04-27T09:11:52Z</time>
      </trkpt>
      <trkpt lat="46.54809" lon="5.75768">
        <ele>579.55</ele>
        <time>2019-04-27T09:12:07Z</time>
      </trkpt>
      <trkpt lat="46.54792" lon="5.75784">
        <ele>579.54</ele>
        <time>2019-04-27T09:12:20Z</time>
      </trkpt>
      <trkpt lat="46.54786" lon="5.75789">
        <ele>580.31</ele>
        <time>2019-04-27T09:12:24Z</time>
      </trkpt>
      <trkpt lat="46.54773" lon="5.75807">
        <ele>580.21</ele>
        <time>2019-04-27T09:12:39Z</time>
      </trkpt>
      <trkpt lat="46.54772" lon="5.75808">
        <ele>580.2</ele>
        <time>2019-04-27T09:12:40Z</time>
      </trkpt>
      <trkpt lat="46.5476" lon="5.75825">
        <ele>581.22</ele>
        <time>2019-04-27T09:12:54Z</time>
      </trkpt>
      <trkpt lat="46.54758" lon="5.75828">
        <ele>581.23</ele>
        <time>2019-04-27T09:12:56Z</time>
      </trkpt>
      <trkpt lat="46.54754" lon="5.75833">
        <ele>577.59</ele>
        <time>2019-04-27T09:13:00Z</time>
      </trkpt>
      <trkpt lat="46.54753" lon="5.75834">
        <ele>581.71</ele>
        <time>2019-04-27T09:13:01Z</time>
      </trkpt>
      <trkpt lat="46.54752" lon="5.75835">
        <ele>581.72</ele>
        <time>2019-04-27T09:13:02Z</time>
      </trkpt>
      <trkpt lat="46.54751" lon="5.75836">
        <ele>577.75</ele>
        <time>2019-04-27T09:13:04Z</time>
      </trkpt>
      <trkpt lat="46.54751" lon="5.75837">
        <ele>577.73</ele>
        <time>2019-04-27T09:13:05Z</time>
      </trkpt>
      <trkpt lat="46.5475" lon="5.75839">
        <ele>583.86</ele>
        <time>2019-04-27T09:13:07Z</time>
      </trkpt>
      <trkpt lat="46.5475" lon="5.7584">
        <ele>583.84</ele>
        <time>2019-04-27T09:13:08Z</time>
      </trkpt>
      <trkpt lat="46.54748" lon="5.75843">
        <ele>580.12</ele>
        <time>2019-04-27T09:13:10Z</time>
      </trkpt>
      <trkpt lat="46.54747" lon="5.75845">
        <ele>580.03</ele>
        <time>2019-04-27T09:13:11Z</time>
      </trkpt>
      <trkpt lat="46.54736" lon="5.75866">
        <ele>579.37</ele>
        <time>2019-04-27T09:13:24Z</time>
      </trkpt>
      <trkpt lat="46.54721" lon="5.7589">
        <ele>579.24</ele>
        <time>2019-04-27T09:13:44Z</time>
      </trkpt>
      <trkpt lat="46.54715" lon="5.75905">
        <ele>581.5</ele>
        <time>2019-04-27T09:13:53Z</time>
      </trkpt>
      <trkpt lat="46.54713" lon="5.75911">
        <ele>581.46</ele>
        <time>2019-04-27T09:13:56Z</time>
      </trkpt>
      <trkpt lat="46.5471" lon="5.75922">
        <ele>581.37</ele>
        <time>2019-04-27T09:14:01Z</time>
      </trkpt>
      <trkpt lat="46.54697" lon="5.75951">
        <ele>581.03</ele>
        <time>2019-04-27T09:14:17Z</time>
      </trkpt>
      <trkpt lat="46.54689" lon="5.75963">
        <ele>580.87</ele>
        <time>2019-04-27T09:14:26Z</time>
      </trkpt>
      <trkpt lat="46.54668" lon="5.75981">
        <ele>580.68</ele>
        <time>2019-04-27T09:14:42Z</time>
      </trkpt>
      <trkpt lat="46.54649" lon="5.75983">
        <ele>580.51</ele>
        <time>2019-04-27T09:14:56Z</time>
      </trkpt>
      <trkpt lat="46.54643" lon="5.75986">
        <ele>580.46</ele>
        <time>2019-04-27T09:14:59Z</time>
      </trkpt>
      <trkpt lat="46.54634" lon="5.75999">
        <ele>580.28</ele>
        <time>2019-04-27T09:15:08Z</time>
      </trkpt>
      <trkpt lat="46.54633" lon="5.76007">
        <ele>580.24</ele>
        <time>2019-04-27T09:15:12Z</time>
      </trkpt>
      <trkpt lat="46.54634" lon="5.76014">
        <ele>580.17</ele>
        <time>2019-04-27T09:15:16Z</time>
      </trkpt>
      <trkpt lat="46.54638" lon="5.76036">
        <ele>580.06</ele>
        <time>2019-04-27T09:15:28Z</time>
      </trkpt>
      <trkpt lat="46.54637" lon="5.76039">
        <ele>577.77</ele>
        <time>2019-04-27T09:15:30Z</time>
      </trkpt>
      <trkpt lat="46.54636" lon="5.76046">
        <ele>577.74</ele>
        <time>2019-04-27T09:15:33Z</time>
      </trkpt>
      <trkpt lat="46.54631" lon="5.7607">
        <ele>577.63</ele>
        <time>2019-04-27T09:15:46Z</time>
      </trkpt>
      <trkpt lat="46.54627" lon="5.76082">
        <ele>577.56</ele>
        <time>2019-04-27T09:15:52Z</time>
      </trkpt>
      <trkpt lat="46.54625" lon="5.76086">
        <ele>577.53</ele>
        <time>2019-04-27T09:15:54Z</time>
      </trkpt>
      <trkpt lat="46.5462" lon="5.76118">
        <ele>577.38</ele>
        <time>2019-04-27T09:16:09Z</time>
      </trkpt>
      <trkpt lat="46.54619" lon="5.76149">
        <ele>577.21</ele>
        <time>2019-04-27T09:16:21Z</time>
      </trkpt>
      <trkpt lat="46.5462" lon="5.76152">
        <ele>577.19</ele>
        <time>2019-04-27T09:16:23Z</time>
      </trkpt>
      <trkpt lat="46.54628" lon="5.76178">
        <ele>577.05</ele>
        <time>2019-04-27T09:16:37Z</time>
      </trkpt>
      <trkpt lat="46.54632" lon="5.76188">
        <ele>576.99</ele>
        <time>2019-04-27T09:16:43Z</time>
      </trkpt>
      <trkpt lat="46.54639" lon="5.76211">
        <ele>576.88</ele>
        <time>2019-04-27T09:16:56Z</time>
      </trkpt>
      <trkpt lat="46.5464" lon="5.76215">
        <ele>576.87</ele>
        <time>2019-04-27T09:16:58Z</time>
      </trkpt>
      <trkpt lat="46.54643" lon="5.76227">
        <ele>576.84</ele>
        <time>2019-04-27T09:17:03Z</time>
      </trkpt>
      <trkpt lat="46.54647" lon="5.76254">
        <ele>576.8</ele>
        <time>2019-04-27T09:17:16Z</time>
      </trkpt>
      <trkpt lat="46.54646" lon="5.76267">
        <ele>579.21</ele>
        <time>2019-04-27T09:17:21Z</time>
      </trkpt>
      <trkpt lat="46.54641" lon="5.76303">
        <ele>579.14</ele>
        <time>2019-04-27T09:17:35Z</time>
      </trkpt>
      <trkpt lat="46.54641" lon="5.76315">
        <ele>579.17</ele>
        <time>2019-04-27T09:17:41Z</time>
      </trkpt>
      <trkpt lat="46.54642" lon="5.76347">
        <ele>580.19</ele>
        <time>2019-04-27T09:17:54Z</time>
      </trkpt>
      <trkpt lat="46.54646" lon="5.76354">
        <ele>580.99</ele>
        <time>2019-04-27T09:18:00Z</time>
      </trkpt>
      <trkpt lat="46.54647" lon="5.76355">
        <ele>581</ele>
        <time>2019-04-27T09:18:01Z</time>
      </trkpt>
      <trkpt lat="46.54647" lon="5.76357">
        <ele>581.01</ele>
        <time>2019-04-27T09:18:02Z</time>
      </trkpt>
      <trkpt lat="46.54648" lon="5.76359">
        <ele>581.01</ele>
        <time>2019-04-27T09:18:03Z</time>
      </trkpt>
      <trkpt lat="46.54649" lon="5.7636">
        <ele>581.03</ele>
        <time>2019-04-27T09:18:04Z</time>
      </trkpt>
      <trkpt lat="46.54649" lon="5.76362">
        <ele>581.04</ele>
        <time>2019-04-27T09:18:05Z</time>
      </trkpt>
      <trkpt lat="46.5465" lon="5.76364">
        <ele>581.04</ele>
        <time>2019-04-27T09:18:06Z</time>
      </trkpt>
      <trkpt lat="46.54659" lon="5.76383">
        <ele>581.13</ele>
        <time>2019-04-27T09:18:19Z</time>
      </trkpt>
      <trkpt lat="46.54662" lon="5.76387">
        <ele>582.02</ele>
        <time>2019-04-27T09:18:22Z</time>
      </trkpt>
      <trkpt lat="46.54663" lon="5.76389">
        <ele>582.02</ele>
        <time>2019-04-27T09:18:23Z</time>
      </trkpt>
      <trkpt lat="46.54668" lon="5.76396">
        <ele>583.03</ele>
        <time>2019-04-27T09:18:35Z</time>
      </trkpt>
      <trkpt lat="46.54673" lon="5.76405">
        <ele>583.09</ele>
        <time>2019-04-27T09:18:41Z</time>
      </trkpt>
      <trkpt lat="46.54675" lon="5.76406">
        <ele>584.24</ele>
        <time>2019-04-27T09:18:42Z</time>
      </trkpt>
      <trkpt lat="46.54683" lon="5.76416">
        <ele>584.3</ele>
        <time>2019-04-27T09:18:50Z</time>
      </trkpt>
      <trkpt lat="46.54684" lon="5.76418">
        <ele>584.31</ele>
        <time>2019-04-27T09:18:51Z</time>
      </trkpt>
      <trkpt lat="46.54686" lon="5.76422">
        <ele>584.34</ele>
        <time>2019-04-27T09:18:54Z</time>
      </trkpt>
      <trkpt lat="46.54698" lon="5.76439">
        <ele>585.95</ele>
        <time>2019-04-27T09:19:08Z</time>
      </trkpt>
      <trkpt lat="46.54709" lon="5.7645">
        <ele>586.83</ele>
        <time>2019-04-27T09:19:18Z</time>
      </trkpt>
      <trkpt lat="46.54721" lon="5.76469">
        <ele>586.83</ele>
        <time>2019-04-27T09:19:28Z</time>
      </trkpt>
      <trkpt lat="46.54722" lon="5.76471">
        <ele>586.83</ele>
        <time>2019-04-27T09:19:29Z</time>
      </trkpt>
      <trkpt lat="46.54734" lon="5.76489">
        <ele>587.74</ele>
        <time>2019-04-27T09:19:42Z</time>
      </trkpt>
      <trkpt lat="46.54735" lon="5.76492">
        <ele>587.75</ele>
        <time>2019-04-27T09:19:43Z</time>
      </trkpt>
      <trkpt lat="46.54736" lon="5.76494">
        <ele>587.75</ele>
        <time>2019-04-27T09:19:44Z</time>
      </trkpt>
      <trkpt lat="46.54738" lon="5.76495">
        <ele>587.75</ele>
        <time>2019-04-27T09:19:45Z</time>
      </trkpt>
      <trkpt lat="46.54753" lon="5.7651">
        <ele>590.37</ele>
        <time>2019-04-27T09:19:59Z</time>
      </trkpt>
      <trkpt lat="46.54769" lon="5.76517">
        <ele>592.04</ele>
        <time>2019-04-27T09:20:12Z</time>
      </trkpt>
      <trkpt lat="46.54783" lon="5.7653">
        <ele>594.45</ele>
        <time>2019-04-27T09:20:26Z</time>
      </trkpt>
      <trkpt lat="46.54784" lon="5.76533">
        <ele>594.47</ele>
        <time>2019-04-27T09:20:27Z</time>
      </trkpt>
      <trkpt lat="46.54784" lon="5.76535">
        <ele>595.35</ele>
        <time>2019-04-27T09:20:28Z</time>
      </trkpt>
      <trkpt lat="46.54784" lon="5.76537">
        <ele>595.36</ele>
        <time>2019-04-27T09:20:29Z</time>
      </trkpt>
      <trkpt lat="46.54785" lon="5.7654">
        <ele>595.36</ele>
        <time>2019-04-27T09:20:30Z</time>
      </trkpt>
      <trkpt lat="46.54786" lon="5.76541">
        <ele>595.37</ele>
        <time>2019-04-27T09:20:31Z</time>
      </trkpt>
      <trkpt lat="46.54786" lon="5.76543">
        <ele>595.35</ele>
        <time>2019-04-27T09:20:32Z</time>
      </trkpt>
      <trkpt lat="46.54788" lon="5.7655">
        <ele>596.18</ele>
        <time>2019-04-27T09:20:37Z</time>
      </trkpt>
      <trkpt lat="46.5479" lon="5.76556">
        <ele>596.15</ele>
        <time>2019-04-27T09:20:41Z</time>
      </trkpt>
      <trkpt lat="46.54792" lon="5.76558">
        <ele>597.04</ele>
        <time>2019-04-27T09:20:42Z</time>
      </trkpt>
      <trkpt lat="46.54793" lon="5.76559">
        <ele>597.04</ele>
        <time>2019-04-27T09:20:43Z</time>
      </trkpt>
      <trkpt lat="46.54795" lon="5.76561">
        <ele>597.03</ele>
        <time>2019-04-27T09:20:44Z</time>
      </trkpt>
      <trkpt lat="46.54796" lon="5.76564">
        <ele>597.02</ele>
        <time>2019-04-27T09:20:45Z</time>
      </trkpt>
      <trkpt lat="46.54798" lon="5.76566">
        <ele>597.02</ele>
        <time>2019-04-27T09:20:46Z</time>
      </trkpt>
      <trkpt lat="46.54799" lon="5.76568">
        <ele>597.06</ele>
        <time>2019-04-27T09:20:47Z</time>
      </trkpt>
      <trkpt lat="46.548" lon="5.7657">
        <ele>597.02</ele>
        <time>2019-04-27T09:20:48Z</time>
      </trkpt>
      <trkpt lat="46.54801" lon="5.76571">
        <ele>597.02</ele>
        <time>2019-04-27T09:20:49Z</time>
      </trkpt>
      <trkpt lat="46.54802" lon="5.76573">
        <ele>597.86</ele>
        <time>2019-04-27T09:20:50Z</time>
      </trkpt>
      <trkpt lat="46.54802" lon="5.76575">
        <ele>597.87</ele>
        <time>2019-04-27T09:20:51Z</time>
      </trkpt>
      <trkpt lat="46.54803" lon="5.76577">
        <ele>597.85</ele>
        <time>2019-04-27T09:20:52Z</time>
      </trkpt>
      <trkpt lat="46.54804" lon="5.76578">
        <ele>597.87</ele>
        <time>2019-04-27T09:20:53Z</time>
      </trkpt>
      <trkpt lat="46.54804" lon="5.7658">
        <ele>597.85</ele>
        <time>2019-04-27T09:20:54Z</time>
      </trkpt>
      <trkpt lat="46.54805" lon="5.76582">
        <ele>597.85</ele>
        <time>2019-04-27T09:20:55Z</time>
      </trkpt>
      <trkpt lat="46.54812" lon="5.76599">
        <ele>598.58</ele>
        <time>2019-04-27T09:21:06Z</time>
      </trkpt>
      <trkpt lat="46.54822" lon="5.76617">
        <ele>599.67</ele>
        <time>2019-04-27T09:21:18Z</time>
      </trkpt>
      <trkpt lat="46.54822" lon="5.76619">
        <ele>599.65</ele>
        <time>2019-04-27T09:21:19Z</time>
      </trkpt>
      <trkpt lat="46.54823" lon="5.76622">
        <ele>599.68</ele>
        <time>2019-04-27T09:21:20Z</time>
      </trkpt>
      <trkpt lat="46.54824" lon="5.76624">
        <ele>600.44</ele>
        <time>2019-04-27T09:21:21Z</time>
      </trkpt>
      <trkpt lat="46.54824" lon="5.76626">
        <ele>600.44</ele>
        <time>2019-04-27T09:21:22Z</time>
      </trkpt>
      <trkpt lat="46.54825" lon="5.76628">
        <ele>600.44</ele>
        <time>2019-04-27T09:21:23Z</time>
      </trkpt>
      <trkpt lat="46.54826" lon="5.7663">
        <ele>600.45</ele>
        <time>2019-04-27T09:21:24Z</time>
      </trkpt>
      <trkpt lat="46.54826" lon="5.76633">
        <ele>600.46</ele>
        <time>2019-04-27T09:21:25Z</time>
      </trkpt>
      <trkpt lat="46.54826" lon="5.76635">
        <ele>600.43</ele>
        <time>2019-04-27T09:21:26Z</time>
      </trkpt>
      <trkpt lat="46.54827" lon="5.76637">
        <ele>600.43</ele>
        <time>2019-04-27T09:21:27Z</time>
      </trkpt>
      <trkpt lat="46.54827" lon="5.76639">
        <ele>601.19</ele>
        <time>2019-04-27T09:21:28Z</time>
      </trkpt>
      <trkpt lat="46.54828" lon="5.76641">
        <ele>601.2</ele>
        <time>2019-04-27T09:21:29Z</time>
      </trkpt>
      <trkpt lat="46.54828" lon="5.76642">
        <ele>601.21</ele>
        <time>2019-04-27T09:21:30Z</time>
      </trkpt>
      <trkpt lat="46.5483" lon="5.76649">
        <ele>602.06</ele>
        <time>2019-04-27T09:21:34Z</time>
      </trkpt>
      <trkpt lat="46.5483" lon="5.7665">
        <ele>602.06</ele>
        <time>2019-04-27T09:21:35Z</time>
      </trkpt>
      <trkpt lat="46.54831" lon="5.76651">
        <ele>602.07</ele>
        <time>2019-04-27T09:21:36Z</time>
      </trkpt>
      <trkpt lat="46.54832" lon="5.76657">
        <ele>603.02</ele>
        <time>2019-04-27T09:21:40Z</time>
      </trkpt>
      <trkpt lat="46.54833" lon="5.76661">
        <ele>604.07</ele>
        <time>2019-04-27T09:21:42Z</time>
      </trkpt>
      <trkpt lat="46.54834" lon="5.76663">
        <ele>604.08</ele>
        <time>2019-04-27T09:21:43Z</time>
      </trkpt>
      <trkpt lat="46.54834" lon="5.76664">
        <ele>604.07</ele>
        <time>2019-04-27T09:21:44Z</time>
      </trkpt>
      <trkpt lat="46.54835" lon="5.76666">
        <ele>604.08</ele>
        <time>2019-04-27T09:21:45Z</time>
      </trkpt>
      <trkpt lat="46.54835" lon="5.76668">
        <ele>604.96</ele>
        <time>2019-04-27T09:21:46Z</time>
      </trkpt>
      <trkpt lat="46.54835" lon="5.76671">
        <ele>604.98</ele>
        <time>2019-04-27T09:21:47Z</time>
      </trkpt>
      <trkpt lat="46.54835" lon="5.76673">
        <ele>605.06</ele>
        <time>2019-04-27T09:21:48Z</time>
      </trkpt>
      <trkpt lat="46.54836" lon="5.76675">
        <ele>605.03</ele>
        <time>2019-04-27T09:21:49Z</time>
      </trkpt>
      <trkpt lat="46.54839" lon="5.7669">
        <ele>606.88</ele>
        <time>2019-04-27T09:21:56Z</time>
      </trkpt>
      <trkpt lat="46.5484" lon="5.76692">
        <ele>606.89</ele>
        <time>2019-04-27T09:21:57Z</time>
      </trkpt>
      <trkpt lat="46.54849" lon="5.76708">
        <ele>607.79</ele>
        <time>2019-04-27T09:22:09Z</time>
      </trkpt>
      <trkpt lat="46.54853" lon="5.76716">
        <ele>607.82</ele>
        <time>2019-04-27T09:22:14Z</time>
      </trkpt>
      <trkpt lat="46.54853" lon="5.76719">
        <ele>607.83</ele>
        <time>2019-04-27T09:22:16Z</time>
      </trkpt>
      <trkpt lat="46.54854" lon="5.7672">
        <ele>608.58</ele>
        <time>2019-04-27T09:22:17Z</time>
      </trkpt>
      <trkpt lat="46.54854" lon="5.76722">
        <ele>608.58</ele>
        <time>2019-04-27T09:22:18Z</time>
      </trkpt>
      <trkpt lat="46.54857" lon="5.76725">
        <ele>608.6</ele>
        <time>2019-04-27T09:22:21Z</time>
      </trkpt>
      <trkpt lat="46.54858" lon="5.76726">
        <ele>608.59</ele>
        <time>2019-04-27T09:22:22Z</time>
      </trkpt>
      <trkpt lat="46.54859" lon="5.76727">
        <ele>608.59</ele>
        <time>2019-04-27T09:22:23Z</time>
      </trkpt>
      <trkpt lat="46.5486" lon="5.76728">
        <ele>608.6</ele>
        <time>2019-04-27T09:22:24Z</time>
      </trkpt>
      <trkpt lat="46.54862" lon="5.7673">
        <ele>608.62</ele>
        <time>2019-04-27T09:22:26Z</time>
      </trkpt>
      <trkpt lat="46.54864" lon="5.76733">
        <ele>609.42</ele>
        <time>2019-04-27T09:22:29Z</time>
      </trkpt>
      <trkpt lat="46.54865" lon="5.76735">
        <ele>609.43</ele>
        <time>2019-04-27T09:22:30Z</time>
      </trkpt>
      <trkpt lat="46.54866" lon="5.76736">
        <ele>609.43</ele>
        <time>2019-04-27T09:22:31Z</time>
      </trkpt>
      <trkpt lat="46.54867" lon="5.76737">
        <ele>609.41</ele>
        <time>2019-04-27T09:22:32Z</time>
      </trkpt>
      <trkpt lat="46.54868" lon="5.76738">
        <ele>609.41</ele>
        <time>2019-04-27T09:22:33Z</time>
      </trkpt>
      <trkpt lat="46.5487" lon="5.76739">
        <ele>609.4</ele>
        <time>2019-04-27T09:22:34Z</time>
      </trkpt>
      <trkpt lat="46.54871" lon="5.7674">
        <ele>609.4</ele>
        <time>2019-04-27T09:22:35Z</time>
      </trkpt>
      <trkpt lat="46.54877" lon="5.76761">
        <ele>610.13</ele>
        <time>2019-04-27T09:22:48Z</time>
      </trkpt>
      <trkpt lat="46.54886" lon="5.76784">
        <ele>611.88</ele>
        <time>2019-04-27T09:23:04Z</time>
      </trkpt>
      <trkpt lat="46.54894" lon="5.76805">
        <ele>613.68</ele>
        <time>2019-04-27T09:23:16Z</time>
      </trkpt>
      <trkpt lat="46.54894" lon="5.76807">
        <ele>613.67</ele>
        <time>2019-04-27T09:23:17Z</time>
      </trkpt>
      <trkpt lat="46.54895" lon="5.76808">
        <ele>613.65</ele>
        <time>2019-04-27T09:23:18Z</time>
      </trkpt>
      <trkpt lat="46.54897" lon="5.76818">
        <ele>604.38</ele>
        <time>2019-04-27T09:23:24Z</time>
      </trkpt>
      <trkpt lat="46.54897" lon="5.76819">
        <ele>616.21</ele>
        <time>2019-04-27T09:23:25Z</time>
      </trkpt>
      <trkpt lat="46.54898" lon="5.76822">
        <ele>617.08</ele>
        <time>2019-04-27T09:23:27Z</time>
      </trkpt>
      <trkpt lat="46.54899" lon="5.76825">
        <ele>614.54</ele>
        <time>2019-04-27T09:23:29Z</time>
      </trkpt>
      <trkpt lat="46.54905" lon="5.76854">
        <ele>614.49</ele>
        <time>2019-04-27T09:23:46Z</time>
      </trkpt>
      <trkpt lat="46.54903" lon="5.76884">
        <ele>614.38</ele>
        <time>2019-04-27T09:24:00Z</time>
      </trkpt>
      <trkpt lat="46.54903" lon="5.76906">
        <ele>614.24</ele>
        <time>2019-04-27T09:24:14Z</time>
      </trkpt>
      <trkpt lat="46.54902" lon="5.76933">
        <ele>614.13</ele>
        <time>2019-04-27T09:24:27Z</time>
      </trkpt>
      <trkpt lat="46.549" lon="5.76952">
        <ele>614.05</ele>
        <time>2019-04-27T09:24:39Z</time>
      </trkpt>
      <trkpt lat="46.54896" lon="5.76969">
        <ele>613.99</ele>
        <time>2019-04-27T09:24:46Z</time>
      </trkpt>
      <trkpt lat="46.54895" lon="5.76971">
        <ele>613.98</ele>
        <time>2019-04-27T09:24:47Z</time>
      </trkpt>
      <trkpt lat="46.54895" lon="5.76973">
        <ele>613.96</ele>
        <time>2019-04-27T09:24:48Z</time>
      </trkpt>
      <trkpt lat="46.54896" lon="5.7698">
        <ele>613.94</ele>
        <time>2019-04-27T09:24:51Z</time>
      </trkpt>
      <trkpt lat="46.54896" lon="5.76983">
        <ele>613.94</ele>
        <time>2019-04-27T09:24:52Z</time>
      </trkpt>
      <trkpt lat="46.54897" lon="5.76985">
        <ele>613.93</ele>
        <time>2019-04-27T09:24:53Z</time>
      </trkpt>
      <trkpt lat="46.54897" lon="5.76987">
        <ele>613.92</ele>
        <time>2019-04-27T09:24:54Z</time>
      </trkpt>
      <trkpt lat="46.54897" lon="5.7699">
        <ele>613.92</ele>
        <time>2019-04-27T09:24:55Z</time>
      </trkpt>
      <trkpt lat="46.54897" lon="5.76992">
        <ele>613.91</ele>
        <time>2019-04-27T09:24:56Z</time>
      </trkpt>
      <trkpt lat="46.54898" lon="5.7701">
        <ele>613.84</ele>
        <time>2019-04-27T09:25:05Z</time>
      </trkpt>
      <trkpt lat="46.54898" lon="5.77012">
        <ele>613.83</ele>
        <time>2019-04-27T09:25:06Z</time>
      </trkpt>
      <trkpt lat="46.54899" lon="5.77021">
        <ele>613.81</ele>
        <time>2019-04-27T09:25:10Z</time>
      </trkpt>
      <trkpt lat="46.54899" lon="5.77026">
        <ele>613.78</ele>
        <time>2019-04-27T09:25:12Z</time>
      </trkpt>
      <trkpt lat="46.54894" lon="5.7705">
        <ele>613.7</ele>
        <time>2019-04-27T09:25:23Z</time>
      </trkpt>
      <trkpt lat="46.54897" lon="5.77071">
        <ele>613.65</ele>
        <time>2019-04-27T09:25:35Z</time>
      </trkpt>
      <trkpt lat="46.54896" lon="5.77074">
        <ele>613.65</ele>
        <time>2019-04-27T09:25:36Z</time>
      </trkpt>
      <trkpt lat="46.5489" lon="5.77094">
        <ele>613.64</ele>
        <time>2019-04-27T09:25:49Z</time>
      </trkpt>
      <trkpt lat="46.54882" lon="5.77108">
        <ele>613.66</ele>
        <time>2019-04-27T09:26:02Z</time>
      </trkpt>
      <trkpt lat="46.5488" lon="5.77111">
        <ele>612.88</ele>
        <time>2019-04-27T09:26:04Z</time>
      </trkpt>
      <trkpt lat="46.54879" lon="5.77112">
        <ele>612.89</ele>
        <time>2019-04-27T09:26:05Z</time>
      </trkpt>
      <trkpt lat="46.54878" lon="5.77115">
        <ele>612.89</ele>
        <time>2019-04-27T09:26:06Z</time>
      </trkpt>
      <trkpt lat="46.54876" lon="5.77117">
        <ele>612.9</ele>
        <time>2019-04-27T09:26:07Z</time>
      </trkpt>
      <trkpt lat="46.54876" lon="5.77119">
        <ele>612.91</ele>
        <time>2019-04-27T09:26:08Z</time>
      </trkpt>
      <trkpt lat="46.54875" lon="5.77122">
        <ele>612.91</ele>
        <time>2019-04-27T09:26:09Z</time>
      </trkpt>
      <trkpt lat="46.54874" lon="5.77124">
        <ele>612.91</ele>
        <time>2019-04-27T09:26:10Z</time>
      </trkpt>
      <trkpt lat="46.54873" lon="5.77126">
        <ele>612.91</ele>
        <time>2019-04-27T09:26:11Z</time>
      </trkpt>
      <trkpt lat="46.54871" lon="5.77128">
        <ele>612.92</ele>
        <time>2019-04-27T09:26:12Z</time>
      </trkpt>
      <trkpt lat="46.5487" lon="5.77129">
        <ele>612.92</ele>
        <time>2019-04-27T09:26:13Z</time>
      </trkpt>
      <trkpt lat="46.54869" lon="5.77131">
        <ele>612.93</ele>
        <time>2019-04-27T09:26:14Z</time>
      </trkpt>
      <trkpt lat="46.54868" lon="5.77133">
        <ele>612.94</ele>
        <time>2019-04-27T09:26:15Z</time>
      </trkpt>
      <trkpt lat="46.54867" lon="5.77135">
        <ele>612.94</ele>
        <time>2019-04-27T09:26:16Z</time>
      </trkpt>
      <trkpt lat="46.54861" lon="5.7715">
        <ele>612.99</ele>
        <time>2019-04-27T09:26:28Z</time>
      </trkpt>
      <trkpt lat="46.5485" lon="5.77174">
        <ele>613.03</ele>
        <time>2019-04-27T09:26:41Z</time>
      </trkpt>
      <trkpt lat="46.54838" lon="5.77186">
        <ele>615.29</ele>
        <time>2019-04-27T09:26:52Z</time>
      </trkpt>
      <trkpt lat="46.54834" lon="5.77193">
        <ele>616.06</ele>
        <time>2019-04-27T09:26:57Z</time>
      </trkpt>
      <trkpt lat="46.5483" lon="5.77202">
        <ele>616.04</ele>
        <time>2019-04-27T09:27:05Z</time>
      </trkpt>
      <trkpt lat="46.54827" lon="5.77214">
        <ele>616.85</ele>
        <time>2019-04-27T09:27:13Z</time>
      </trkpt>
      <trkpt lat="46.54827" lon="5.77218">
        <ele>617.6</ele>
        <time>2019-04-27T09:27:16Z</time>
      </trkpt>
      <trkpt lat="46.54826" lon="5.77226">
        <ele>617.59</ele>
        <time>2019-04-27T09:27:20Z</time>
      </trkpt>
      <trkpt lat="46.54829" lon="5.77248">
        <ele>618.38</ele>
        <time>2019-04-27T09:27:30Z</time>
      </trkpt>
      <trkpt lat="46.54831" lon="5.77258">
        <ele>618.36</ele>
        <time>2019-04-27T09:27:35Z</time>
      </trkpt>
      <trkpt lat="46.54832" lon="5.77273">
        <ele>618.35</ele>
        <time>2019-04-27T09:27:43Z</time>
      </trkpt>
      <trkpt lat="46.54835" lon="5.77293">
        <ele>618.35</ele>
        <time>2019-04-27T09:27:54Z</time>
      </trkpt>
      <trkpt lat="46.54837" lon="5.77301">
        <ele>618.37</ele>
        <time>2019-04-27T09:27:58Z</time>
      </trkpt>
      <trkpt lat="46.54841" lon="5.77309">
        <ele>619.25</ele>
        <time>2019-04-27T09:28:03Z</time>
      </trkpt>
      <trkpt lat="46.54849" lon="5.77315">
        <ele>620.04</ele>
        <time>2019-04-27T09:28:11Z</time>
      </trkpt>
      <trkpt lat="46.54855" lon="5.7732">
        <ele>620.96</ele>
        <time>2019-04-27T09:28:17Z</time>
      </trkpt>
      <trkpt lat="46.54863" lon="5.77329">
        <ele>621.81</ele>
        <time>2019-04-27T09:28:25Z</time>
      </trkpt>
      <trkpt lat="46.54867" lon="5.77354">
        <ele>624.41</ele>
        <time>2019-04-27T09:28:38Z</time>
      </trkpt>
      <trkpt lat="46.54869" lon="5.77357">
        <ele>624.42</ele>
        <time>2019-04-27T09:28:40Z</time>
      </trkpt>
      <trkpt lat="46.54869" lon="5.7736">
        <ele>625.3</ele>
        <time>2019-04-27T09:28:42Z</time>
      </trkpt>
      <trkpt lat="46.54871" lon="5.77363">
        <ele>625.3</ele>
        <time>2019-04-27T09:28:44Z</time>
      </trkpt>
      <trkpt lat="46.54877" lon="5.77377">
        <ele>625.29</ele>
        <time>2019-04-27T09:28:54Z</time>
      </trkpt>
      <trkpt lat="46.54886" lon="5.77388">
        <ele>622.99</ele>
        <time>2019-04-27T09:29:02Z</time>
      </trkpt>
      <trkpt lat="46.54895" lon="5.77402">
        <ele>621.17</ele>
        <time>2019-04-27T09:29:14Z</time>
      </trkpt>
      <trkpt lat="46.54901" lon="5.77416">
        <ele>620.24</ele>
        <time>2019-04-27T09:29:23Z</time>
      </trkpt>
      <trkpt lat="46.54901" lon="5.7744">
        <ele>617.66</ele>
        <time>2019-04-27T09:29:34Z</time>
      </trkpt>
      <trkpt lat="46.54914" lon="5.77453">
        <ele>613.79</ele>
        <time>2019-04-27T09:29:49Z</time>
      </trkpt>
      <trkpt lat="46.54922" lon="5.77455">
        <ele>610.63</ele>
        <time>2019-04-27T09:30:00Z</time>
      </trkpt>
      <trkpt lat="46.54934" lon="5.77461">
        <ele>608.97</ele>
        <time>2019-04-27T09:30:11Z</time>
      </trkpt>
      <trkpt lat="46.54941" lon="5.77465">
        <ele>608.99</ele>
        <time>2019-04-27T09:30:18Z</time>
      </trkpt>
      <trkpt lat="46.54953" lon="5.77485">
        <ele>607.37</ele>
        <time>2019-04-27T09:30:34Z</time>
      </trkpt>
      <trkpt lat="46.54957" lon="5.7749">
        <ele>607.39</ele>
        <time>2019-04-27T09:30:38Z</time>
      </trkpt>
      <trkpt lat="46.54972" lon="5.77508">
        <ele>606.38</ele>
        <time>2019-04-27T09:30:54Z</time>
      </trkpt>
      <trkpt lat="46.54993" lon="5.77528">
        <ele>606.42</ele>
        <time>2019-04-27T09:31:12Z</time>
      </trkpt>
      <trkpt lat="46.55004" lon="5.77535">
        <ele>605.64</ele>
        <time>2019-04-27T09:31:22Z</time>
      </trkpt>
      <trkpt lat="46.55013" lon="5.77552">
        <ele>605.72</ele>
        <time>2019-04-27T09:31:35Z</time>
      </trkpt>
      <trkpt lat="46.55008" lon="5.77577">
        <ele>605.82</ele>
        <time>2019-04-27T09:31:49Z</time>
      </trkpt>
      <trkpt lat="46.55002" lon="5.77595">
        <ele>608.34</ele>
        <time>2019-04-27T09:31:59Z</time>
      </trkpt>
      <trkpt lat="46.54988" lon="5.77619">
        <ele>609.3</ele>
        <time>2019-04-27T09:32:19Z</time>
      </trkpt>
      <trkpt lat="46.54962" lon="5.77626">
        <ele>610.11</ele>
        <time>2019-04-27T09:32:33Z</time>
      </trkpt>
      <trkpt lat="46.54941" lon="5.77626">
        <ele>610.15</ele>
        <time>2019-04-27T09:32:45Z</time>
      </trkpt>
      <trkpt lat="46.54936" lon="5.77621">
        <ele>610.16</ele>
        <time>2019-04-27T09:32:52Z</time>
      </trkpt>
      <trkpt lat="46.54928" lon="5.7762">
        <ele>610.93</ele>
        <time>2019-04-27T09:32:58Z</time>
      </trkpt>
      <trkpt lat="46.5491" lon="5.77607">
        <ele>611.76</ele>
        <time>2019-04-27T09:33:11Z</time>
      </trkpt>
      <trkpt lat="46.54898" lon="5.77592">
        <ele>612.6</ele>
        <time>2019-04-27T09:33:23Z</time>
      </trkpt>
      <trkpt lat="46.54897" lon="5.7759">
        <ele>612.61</ele>
        <time>2019-04-27T09:33:24Z</time>
      </trkpt>
      <trkpt lat="46.54893" lon="5.77581">
        <ele>613.75</ele>
        <time>2019-04-27T09:33:29Z</time>
      </trkpt>
      <trkpt lat="46.54882" lon="5.77568">
        <ele>615.38</ele>
        <time>2019-04-27T09:33:41Z</time>
      </trkpt>
      <trkpt lat="46.54879" lon="5.77566">
        <ele>615.39</ele>
        <time>2019-04-27T09:33:44Z</time>
      </trkpt>
      <trkpt lat="46.54868" lon="5.77559">
        <ele>617.02</ele>
        <time>2019-04-27T09:33:55Z</time>
      </trkpt>
      <trkpt lat="46.54856" lon="5.77559">
        <ele>618.62</ele>
        <time>2019-04-27T09:34:08Z</time>
      </trkpt>
      <trkpt lat="46.54851" lon="5.77562">
        <ele>622.01</ele>
        <time>2019-04-27T09:34:21Z</time>
      </trkpt>
      <trkpt lat="46.5484" lon="5.77564">
        <ele>625.55</ele>
        <time>2019-04-27T09:34:38Z</time>
      </trkpt>
      <trkpt lat="46.54825" lon="5.77572">
        <ele>629.24</ele>
        <time>2019-04-27T09:34:54Z</time>
      </trkpt>
      <trkpt lat="46.54808" lon="5.77585">
        <ele>632.88</ele>
        <time>2019-04-27T09:35:14Z</time>
      </trkpt>
      <trkpt lat="46.54791" lon="5.77602">
        <ele>634.74</ele>
        <time>2019-04-27T09:35:37Z</time>
      </trkpt>
      <trkpt lat="46.54782" lon="5.77624">
        <ele>635.6</ele>
        <time>2019-04-27T09:35:54Z</time>
      </trkpt>
      <trkpt lat="46.54782" lon="5.77648">
        <ele>638.15</ele>
        <time>2019-04-27T09:36:14Z</time>
      </trkpt>
      <trkpt lat="46.54776" lon="5.77672">
        <ele>641.44</ele>
        <time>2019-04-27T09:36:29Z</time>
      </trkpt>
      <trkpt lat="46.54768" lon="5.77708">
        <ele>644.78</ele>
        <time>2019-04-27T09:36:47Z</time>
      </trkpt>
      <trkpt lat="46.54759" lon="5.77725">
        <ele>648.16</ele>
        <time>2019-04-27T09:37:04Z</time>
      </trkpt>
      <trkpt lat="46.54764" lon="5.77745">
        <ele>650.78</ele>
        <time>2019-04-27T09:37:19Z</time>
      </trkpt>
      <trkpt lat="46.54777" lon="5.77765">
        <ele>651.68</ele>
        <time>2019-04-27T09:37:42Z</time>
      </trkpt>
      <trkpt lat="46.54792" lon="5.77794">
        <ele>653.4</ele>
        <time>2019-04-27T09:38:03Z</time>
      </trkpt>
      <trkpt lat="46.54799" lon="5.77817">
        <ele>656.3</ele>
        <time>2019-04-27T09:38:23Z</time>
      </trkpt>
      <trkpt lat="46.54805" lon="5.77831">
        <ele>658.99</ele>
        <time>2019-04-27T09:38:36Z</time>
      </trkpt>
      <trkpt lat="46.54811" lon="5.77858">
        <ele>660.8</ele>
        <time>2019-04-27T09:38:54Z</time>
      </trkpt>
      <trkpt lat="46.54812" lon="5.77891">
        <ele>662.26</ele>
        <time>2019-04-27T09:39:13Z</time>
      </trkpt>
      <trkpt lat="46.5482" lon="5.77933">
        <ele>662.3</ele>
        <time>2019-04-27T09:39:36Z</time>
      </trkpt>
      <trkpt lat="46.54833" lon="5.77962">
        <ele>663.06</ele>
        <time>2019-04-27T09:39:54Z</time>
      </trkpt>
      <trkpt lat="46.54835" lon="5.77968">
        <ele>663.01</ele>
        <time>2019-04-27T09:39:58Z</time>
      </trkpt>
      <trkpt lat="46.54848" lon="5.77987">
        <ele>663.91</ele>
        <time>2019-04-27T09:40:18Z</time>
      </trkpt>
      <trkpt lat="46.5486" lon="5.77989">
        <ele>664.65</ele>
        <time>2019-04-27T09:40:33Z</time>
      </trkpt>
      <trkpt lat="46.54861" lon="5.77992">
        <ele>664.66</ele>
        <time>2019-04-27T09:40:38Z</time>
      </trkpt>
      <trkpt lat="46.54866" lon="5.77994">
        <ele>662.31</ele>
        <time>2019-04-27T09:40:47Z</time>
      </trkpt>
      <trkpt lat="46.54871" lon="5.78001">
        <ele>658.74</ele>
        <time>2019-04-27T09:41:06Z</time>
      </trkpt>
      <trkpt lat="46.54879" lon="5.78004">
        <ele>655.25</ele>
        <time>2019-04-27T09:41:23Z</time>
      </trkpt>
      <trkpt lat="46.54887" lon="5.78001">
        <ele>651.85</ele>
        <time>2019-04-27T09:41:39Z</time>
      </trkpt>
      <trkpt lat="46.54896" lon="5.77995">
        <ele>650.35</ele>
        <time>2019-04-27T09:41:47Z</time>
      </trkpt>
      <trkpt lat="46.54914" lon="5.77979">
        <ele>647.96</ele>
        <time>2019-04-27T09:42:02Z</time>
      </trkpt>
      <trkpt lat="46.54921" lon="5.77976">
        <ele>647.03</ele>
        <time>2019-04-27T09:42:09Z</time>
      </trkpt>
      <trkpt lat="46.54924" lon="5.77974">
        <ele>647.09</ele>
        <time>2019-04-27T09:42:11Z</time>
      </trkpt>
      <trkpt lat="46.54932" lon="5.77969">
        <ele>644.63</ele>
        <time>2019-04-27T09:42:20Z</time>
      </trkpt>
      <trkpt lat="46.5494" lon="5.77968">
        <ele>643.89</ele>
        <time>2019-04-27T09:42:33Z</time>
      </trkpt>
      <trkpt lat="46.54948" lon="5.77973">
        <ele>646.62</ele>
        <time>2019-04-27T09:42:41Z</time>
      </trkpt>
      <trkpt lat="46.54952" lon="5.77983">
        <ele>650.42</ele>
        <time>2019-04-27T09:42:56Z</time>
      </trkpt>
      <trkpt lat="46.54961" lon="5.77985">
        <ele>652.42</ele>
        <time>2019-04-27T09:43:07Z</time>
      </trkpt>
      <trkpt lat="46.54974" lon="5.7798">
        <ele>657.14</ele>
        <time>2019-04-27T09:43:23Z</time>
      </trkpt>
      <trkpt lat="46.5498" lon="5.77984">
        <ele>660.87</ele>
        <time>2019-04-27T09:43:38Z</time>
      </trkpt>
      <trkpt lat="46.54987" lon="5.77989">
        <ele>663.96</ele>
        <time>2019-04-27T09:43:48Z</time>
      </trkpt>
      <trkpt lat="46.54995" lon="5.77996">
        <ele>667.05</ele>
        <time>2019-04-27T09:44:04Z</time>
      </trkpt>
      <trkpt lat="46.55003" lon="5.77994">
        <ele>667.03</ele>
        <time>2019-04-27T09:44:09Z</time>
      </trkpt>
      <trkpt lat="46.55014" lon="5.77979">
        <ele>666.94</ele>
        <time>2019-04-27T09:44:25Z</time>
      </trkpt>
      <trkpt lat="46.55026" lon="5.77956">
        <ele>668.05</ele>
        <time>2019-04-27T09:44:43Z</time>
      </trkpt>
      <trkpt lat="46.55037" lon="5.77946">
        <ele>668.05</ele>
        <time>2019-04-27T09:44:52Z</time>
      </trkpt>
      <trkpt lat="46.55046" lon="5.77935">
        <ele>668.03</ele>
        <time>2019-04-27T09:45:02Z</time>
      </trkpt>
      <trkpt lat="46.55061" lon="5.77919">
        <ele>668.15</ele>
        <time>2019-04-27T09:45:17Z</time>
      </trkpt>
      <trkpt lat="46.55078" lon="5.77897">
        <ele>670.9</ele>
        <time>2019-04-27T09:45:35Z</time>
      </trkpt>
      <trkpt lat="46.55094" lon="5.77881">
        <ele>671.7</ele>
        <time>2019-04-27T09:45:53Z</time>
      </trkpt>
      <trkpt lat="46.55107" lon="5.77875">
        <ele>669.33</ele>
        <time>2019-04-27T09:46:03Z</time>
      </trkpt>
      <trkpt lat="46.55134" lon="5.77864">
        <ele>669.6</ele>
        <time>2019-04-27T09:46:22Z</time>
      </trkpt>
      <trkpt lat="46.55136" lon="5.77863">
        <ele>669.61</ele>
        <time>2019-04-27T09:46:23Z</time>
      </trkpt>
      <trkpt lat="46.55137" lon="5.77862">
        <ele>669.62</ele>
        <time>2019-04-27T09:46:24Z</time>
      </trkpt>
      <trkpt lat="46.55153" lon="5.77866">
        <ele>669.72</ele>
        <time>2019-04-27T09:46:39Z</time>
      </trkpt>
      <trkpt lat="46.55171" lon="5.77866">
        <ele>669.81</ele>
        <time>2019-04-27T09:46:51Z</time>
      </trkpt>
      <trkpt lat="46.55177" lon="5.77866">
        <ele>669.93</ele>
        <time>2019-04-27T09:47:12Z</time>
      </trkpt>
      <trkpt lat="46.55178" lon="5.77869">
        <ele>670.14</ele>
        <time>2019-04-27T09:47:37Z</time>
      </trkpt>
      <trkpt lat="46.55168" lon="5.77879">
        <ele>670.22</ele>
        <time>2019-04-27T09:47:52Z</time>
      </trkpt>
      <trkpt lat="46.55157" lon="5.77893">
        <ele>669.54</ele>
        <time>2019-04-27T09:48:12Z</time>
      </trkpt>
      <trkpt lat="46.55153" lon="5.77899">
        <ele>668.83</ele>
        <time>2019-04-27T09:48:35Z</time>
      </trkpt>
      <trkpt lat="46.5515" lon="5.77904">
        <ele>668.91</ele>
        <time>2019-04-27T09:48:43Z</time>
      </trkpt>
      <trkpt lat="46.55134" lon="5.77911">
        <ele>669.04</ele>
        <time>2019-04-27T09:49:03Z</time>
      </trkpt>
      <trkpt lat="46.55116" lon="5.77912">
        <ele>669.16</ele>
        <time>2019-04-27T09:49:22Z</time>
      </trkpt>
      <trkpt lat="46.55108" lon="5.7791">
        <ele>671.55</ele>
        <time>2019-04-27T09:49:33Z</time>
      </trkpt>
      <trkpt lat="46.55104" lon="5.77901">
        <ele>673.99</ele>
        <time>2019-04-27T09:49:50Z</time>
      </trkpt>
      <trkpt lat="46.55101" lon="5.77892">
        <ele>674.93</ele>
        <time>2019-04-27T09:50:10Z</time>
      </trkpt>
      <trkpt lat="46.55103" lon="5.77895">
        <ele>674.86</ele>
        <time>2019-04-27T09:50:33Z</time>
      </trkpt>
      <trkpt lat="46.55105" lon="5.779">
        <ele>672.58</ele>
        <time>2019-04-27T09:50:40Z</time>
      </trkpt>
      <trkpt lat="46.55112" lon="5.77916">
        <ele>669.07</ele>
        <time>2019-04-27T09:50:53Z</time>
      </trkpt>
      <trkpt lat="46.55115" lon="5.77935">
        <ele>669.31</ele>
        <time>2019-04-27T09:51:09Z</time>
      </trkpt>
      <trkpt lat="46.55116" lon="5.77964">
        <ele>669.37</ele>
        <time>2019-04-27T09:51:31Z</time>
      </trkpt>
      <trkpt lat="46.55116" lon="5.77965">
        <ele>669.37</ele>
        <time>2019-04-27T09:51:32Z</time>
      </trkpt>
      <trkpt lat="46.55109" lon="5.77985">
        <ele>669.37</ele>
        <time>2019-04-27T09:51:44Z</time>
      </trkpt>
      <trkpt lat="46.55106" lon="5.77997">
        <ele>664.75</ele>
        <time>2019-04-27T09:51:50Z</time>
      </trkpt>
      <trkpt lat="46.55105" lon="5.77998">
        <ele>671.9</ele>
        <time>2019-04-27T09:51:51Z</time>
      </trkpt>
      <trkpt lat="46.55104" lon="5.78">
        <ele>673.03</ele>
        <time>2019-04-27T09:51:53Z</time>
      </trkpt>
      <trkpt lat="46.55092" lon="5.78018">
        <ele>672.96</ele>
        <time>2019-04-27T09:52:06Z</time>
      </trkpt>
      <trkpt lat="46.55077" lon="5.78044">
        <ele>672.94</ele>
        <time>2019-04-27T09:52:26Z</time>
      </trkpt>
      <trkpt lat="46.55068" lon="5.78066">
        <ele>672.87</ele>
        <time>2019-04-27T09:52:47Z</time>
      </trkpt>
      <trkpt lat="46.55066" lon="5.78065">
        <ele>672.86</ele>
        <time>2019-04-27T09:52:52Z</time>
      </trkpt>
      <trkpt lat="46.5506" lon="5.78078">
        <ele>672.82</ele>
        <time>2019-04-27T09:53:03Z</time>
      </trkpt>
      <trkpt lat="46.55054" lon="5.78094">
        <ele>673.6</ele>
        <time>2019-04-27T09:53:19Z</time>
      </trkpt>
      <trkpt lat="46.55041" lon="5.78103">
        <ele>674.33</ele>
        <time>2019-04-27T09:53:38Z</time>
      </trkpt>
      <trkpt lat="46.55018" lon="5.78115">
        <ele>674.24</ele>
        <time>2019-04-27T09:53:59Z</time>
      </trkpt>
      <trkpt lat="46.55009" lon="5.7812">
        <ele>675</ele>
        <time>2019-04-27T09:54:16Z</time>
      </trkpt>
      <trkpt lat="46.55008" lon="5.78123">
        <ele>674.99</ele>
        <time>2019-04-27T09:54:30Z</time>
      </trkpt>
      <trkpt lat="46.55012" lon="5.78127">
        <ele>676.7</ele>
        <time>2019-04-27T09:54:52Z</time>
      </trkpt>
      <trkpt lat="46.55011" lon="5.78131">
        <ele>679.2</ele>
        <time>2019-04-27T09:55:13Z</time>
      </trkpt>
      <trkpt lat="46.55012" lon="5.78139">
        <ele>679.04</ele>
        <time>2019-04-27T09:55:59Z</time>
      </trkpt>
      <trkpt lat="46.55012" lon="5.78137">
        <ele>678.93</ele>
        <time>2019-04-27T09:56:31Z</time>
      </trkpt>
      <trkpt lat="46.55013" lon="5.78137">
        <ele>679.71</ele>
        <time>2019-04-27T09:56:59Z</time>
      </trkpt>
      <trkpt lat="46.55009" lon="5.78144">
        <ele>679.72</ele>
        <time>2019-04-27T09:57:27Z</time>
      </trkpt>
      <trkpt lat="46.55007" lon="5.78142">
        <ele>679.74</ele>
        <time>2019-04-27T09:57:57Z</time>
      </trkpt>
      <trkpt lat="46.55004" lon="5.78142">
        <ele>679.86</ele>
        <time>2019-04-27T09:58:30Z</time>
      </trkpt>
      <trkpt lat="46.55012" lon="5.78136">
        <ele>679.91</ele>
        <time>2019-04-27T09:58:59Z</time>
      </trkpt>
      <trkpt lat="46.55013" lon="5.78136">
        <ele>679.92</ele>
        <time>2019-04-27T09:59:01Z</time>
      </trkpt>
      <trkpt lat="46.55021" lon="5.78136">
        <ele>679.97</ele>
        <time>2019-04-27T09:59:31Z</time>
      </trkpt>
      <trkpt lat="46.55021" lon="5.78144">
        <ele>680.06</ele>
        <time>2019-04-27T10:00:06Z</time>
      </trkpt>
      <trkpt lat="46.55018" lon="5.7815">
        <ele>680.13</ele>
        <time>2019-04-27T10:00:30Z</time>
      </trkpt>
      <trkpt lat="46.55012" lon="5.7815">
        <ele>680.23</ele>
        <time>2019-04-27T10:01:00Z</time>
      </trkpt>
      <trkpt lat="46.55011" lon="5.78152">
        <ele>680.37</ele>
        <time>2019-04-27T10:01:29Z</time>
      </trkpt>
      <trkpt lat="46.55012" lon="5.78151">
        <ele>680.54</ele>
        <time>2019-04-27T10:01:58Z</time>
      </trkpt>
      <trkpt lat="46.55021" lon="5.78147">
        <ele>680.67</ele>
        <time>2019-04-27T10:02:28Z</time>
      </trkpt>
      <trkpt lat="46.55018" lon="5.78147">
        <ele>680.78</ele>
        <time>2019-04-27T10:03:00Z</time>
      </trkpt>
      <trkpt lat="46.55013" lon="5.78154">
        <ele>680.89</ele>
        <time>2019-04-27T10:03:31Z</time>
      </trkpt>
      <trkpt lat="46.55011" lon="5.78147">
        <ele>680.96</ele>
        <time>2019-04-27T10:03:54Z</time>
      </trkpt>
      <trkpt lat="46.55012" lon="5.78142">
        <ele>681.07</ele>
        <time>2019-04-27T10:04:20Z</time>
      </trkpt>
      <trkpt lat="46.55009" lon="5.78143">
        <ele>681.25</ele>
        <time>2019-04-27T10:04:54Z</time>
      </trkpt>
      <trkpt lat="46.55006" lon="5.78144">
        <ele>681.45</ele>
        <time>2019-04-27T10:05:26Z</time>
      </trkpt>
      <trkpt lat="46.55013" lon="5.78145">
        <ele>681.63</ele>
        <time>2019-04-27T10:05:57Z</time>
      </trkpt>
      <trkpt lat="46.5501" lon="5.78146">
        <ele>681.8</ele>
        <time>2019-04-27T10:06:30Z</time>
      </trkpt>
      <trkpt lat="46.55008" lon="5.78152">
        <ele>681.95</ele>
        <time>2019-04-27T10:07:04Z</time>
      </trkpt>
      <trkpt lat="46.55012" lon="5.78149">
        <ele>682.05</ele>
        <time>2019-04-27T10:07:31Z</time>
      </trkpt>
      <trkpt lat="46.55012" lon="5.78148">
        <ele>682.16</ele>
        <time>2019-04-27T10:07:57Z</time>
      </trkpt>
      <trkpt lat="46.55017" lon="5.78144">
        <ele>682.19</ele>
        <time>2019-04-27T10:08:04Z</time>
      </trkpt>
      <trkpt lat="46.55015" lon="5.78145">
        <ele>682.34</ele>
        <time>2019-04-27T10:08:33Z</time>
      </trkpt>
      <trkpt lat="46.5501" lon="5.7815">
        <ele>682.52</ele>
        <time>2019-04-27T10:09:06Z</time>
      </trkpt>
      <trkpt lat="46.55009" lon="5.78145">
        <ele>682.7</ele>
        <time>2019-04-27T10:09:37Z</time>
      </trkpt>
      <trkpt lat="46.55013" lon="5.78145">
        <ele>683.61</ele>
        <time>2019-04-27T10:10:06Z</time>
      </trkpt>
      <trkpt lat="46.55016" lon="5.78145">
        <ele>683.76</ele>
        <time>2019-04-27T10:10:37Z</time>
      </trkpt>
      <trkpt lat="46.55024" lon="5.7814">
        <ele>683.9</ele>
        <time>2019-04-27T10:11:00Z</time>
      </trkpt>
      <trkpt lat="46.55025" lon="5.78139">
        <ele>683.94</ele>
        <time>2019-04-27T10:11:08Z</time>
      </trkpt>
      <trkpt lat="46.55024" lon="5.78138">
        <ele>684.13</ele>
        <time>2019-04-27T10:11:43Z</time>
      </trkpt>
      <trkpt lat="46.55024" lon="5.78142">
        <ele>684.26</ele>
        <time>2019-04-27T10:12:09Z</time>
      </trkpt>
      <trkpt lat="46.55021" lon="5.78144">
        <ele>684.3</ele>
        <time>2019-04-27T10:12:14Z</time>
      </trkpt>
      <trkpt lat="46.55023" lon="5.78139">
        <ele>684.37</ele>
        <time>2019-04-27T10:12:26Z</time>
      </trkpt>
      <trkpt lat="46.55019" lon="5.78144">
        <ele>684.55</ele>
        <time>2019-04-27T10:12:59Z</time>
      </trkpt>
      <trkpt lat="46.55019" lon="5.78144">
        <ele>684.76</ele>
        <time>2019-04-27T10:13:30Z</time>
      </trkpt>
      <trkpt lat="46.55016" lon="5.78152">
        <ele>684.87</ele>
        <time>2019-04-27T10:13:48Z</time>
      </trkpt>
      <trkpt lat="46.55011" lon="5.78146">
        <ele>685.04</ele>
        <time>2019-04-27T10:14:16Z</time>
      </trkpt>
      <trkpt lat="46.55012" lon="5.78144">
        <ele>685.06</ele>
        <time>2019-04-27T10:14:20Z</time>
      </trkpt>
      <trkpt lat="46.55024" lon="5.78141">
        <ele>685.2</ele>
        <time>2019-04-27T10:14:49Z</time>
      </trkpt>
      <trkpt lat="46.55021" lon="5.78146">
        <ele>685.35</ele>
        <time>2019-04-27T10:15:20Z</time>
      </trkpt>
      <trkpt lat="46.55023" lon="5.78147">
        <ele>685.51</ele>
        <time>2019-04-27T10:15:50Z</time>
      </trkpt>
      <trkpt lat="46.5502" lon="5.78142">
        <ele>685.67</ele>
        <time>2019-04-27T10:16:20Z</time>
      </trkpt>
      <trkpt lat="46.5502" lon="5.78142">
        <ele>685.88</ele>
        <time>2019-04-27T10:16:51Z</time>
      </trkpt>
      <trkpt lat="46.55018" lon="5.78143">
        <ele>686.02</ele>
        <time>2019-04-27T10:17:18Z</time>
      </trkpt>
      <trkpt lat="46.55017" lon="5.78144">
        <ele>686.05</ele>
        <time>2019-04-27T10:17:23Z</time>
      </trkpt>
      <trkpt lat="46.55007" lon="5.78151">
        <ele>686.18</ele>
        <time>2019-04-27T10:17:50Z</time>
      </trkpt>
      <trkpt lat="46.55014" lon="5.78143">
        <ele>686.3</ele>
        <time>2019-04-27T10:18:21Z</time>
      </trkpt>
      <trkpt lat="46.55008" lon="5.78145">
        <ele>686.44</ele>
        <time>2019-04-27T10:18:51Z</time>
      </trkpt>
      <trkpt lat="46.55004" lon="5.78141">
        <ele>686.6</ele>
        <time>2019-04-27T10:19:23Z</time>
      </trkpt>
      <trkpt lat="46.54999" lon="5.78146">
        <ele>686.73</ele>
        <time>2019-04-27T10:19:51Z</time>
      </trkpt>
      <trkpt lat="46.55007" lon="5.7814">
        <ele>687.82</ele>
        <time>2019-04-27T10:20:21Z</time>
      </trkpt>
      <trkpt lat="46.55006" lon="5.78143">
        <ele>688.02</ele>
        <time>2019-04-27T10:20:52Z</time>
      </trkpt>
      <trkpt lat="46.55006" lon="5.78149">
        <ele>688.19</ele>
        <time>2019-04-27T10:21:23Z</time>
      </trkpt>
      <trkpt lat="46.5501" lon="5.78157">
        <ele>688.27</ele>
        <time>2019-04-27T10:21:45Z</time>
      </trkpt>
      <trkpt lat="46.55008" lon="5.78167">
        <ele>690.17</ele>
        <time>2019-04-27T10:22:06Z</time>
      </trkpt>
      <trkpt lat="46.55008" lon="5.78171">
        <ele>691.02</ele>
        <time>2019-04-27T10:22:15Z</time>
      </trkpt>
      <trkpt lat="46.55014" lon="5.78175">
        <ele>690.92</ele>
        <time>2019-04-27T10:22:35Z</time>
      </trkpt>
      <trkpt lat="46.55017" lon="5.7818">
        <ele>688.56</ele>
        <time>2019-04-27T10:22:49Z</time>
      </trkpt>
      <trkpt lat="46.55019" lon="5.78192">
        <ele>686.84</ele>
        <time>2019-04-27T10:23:06Z</time>
      </trkpt>
      <trkpt lat="46.55013" lon="5.78202">
        <ele>686.94</ele>
        <time>2019-04-27T10:23:24Z</time>
      </trkpt>
      <trkpt lat="46.55007" lon="5.78219">
        <ele>687.03</ele>
        <time>2019-04-27T10:23:45Z</time>
      </trkpt>
      <trkpt lat="46.54997" lon="5.78257">
        <ele>687.04</ele>
        <time>2019-04-27T10:24:07Z</time>
      </trkpt>
      <trkpt lat="46.54995" lon="5.78277">
        <ele>687.03</ele>
        <time>2019-04-27T10:24:21Z</time>
      </trkpt>
      <trkpt lat="46.54991" lon="5.78286">
        <ele>689.31</ele>
        <time>2019-04-27T10:24:25Z</time>
      </trkpt>
      <trkpt lat="46.54979" lon="5.78324">
        <ele>691.01</ele>
        <time>2019-04-27T10:24:44Z</time>
      </trkpt>
      <trkpt lat="46.54985" lon="5.78357">
        <ele>692.56</ele>
        <time>2019-04-27T10:24:58Z</time>
      </trkpt>
      <trkpt lat="46.55001" lon="5.78388">
        <ele>694.83</ele>
        <time>2019-04-27T10:25:18Z</time>
      </trkpt>
      <trkpt lat="46.55002" lon="5.78389">
        <ele>694.81</ele>
        <time>2019-04-27T10:25:19Z</time>
      </trkpt>
      <trkpt lat="46.55004" lon="5.78392">
        <ele>695.51</ele>
        <time>2019-04-27T10:25:22Z</time>
      </trkpt>
      <trkpt lat="46.5502" lon="5.78408">
        <ele>696.34</ele>
        <time>2019-04-27T10:25:31Z</time>
      </trkpt>
      <trkpt lat="46.55021" lon="5.78411">
        <ele>696.33</ele>
        <time>2019-04-27T10:25:33Z</time>
      </trkpt>
      <trkpt lat="46.55022" lon="5.78412">
        <ele>696.31</ele>
        <time>2019-04-27T10:25:34Z</time>
      </trkpt>
      <trkpt lat="46.55033" lon="5.78423">
        <ele>697.04</ele>
        <time>2019-04-27T10:25:45Z</time>
      </trkpt>
      <trkpt lat="46.55037" lon="5.78427">
        <ele>697.82</ele>
        <time>2019-04-27T10:25:50Z</time>
      </trkpt>
      <trkpt lat="46.5505" lon="5.78443">
        <ele>698.34</ele>
        <time>2019-04-27T10:26:07Z</time>
      </trkpt>
      <trkpt lat="46.55052" lon="5.78447">
        <ele>699.08</ele>
        <time>2019-04-27T10:26:09Z</time>
      </trkpt>
      <trkpt lat="46.55067" lon="5.78459">
        <ele>699.94</ele>
        <time>2019-04-27T10:26:21Z</time>
      </trkpt>
      <trkpt lat="46.55068" lon="5.78464">
        <ele>700.81</ele>
        <time>2019-04-27T10:26:25Z</time>
      </trkpt>
      <trkpt lat="46.55081" lon="5.78483">
        <ele>701.48</ele>
        <time>2019-04-27T10:26:37Z</time>
      </trkpt>
      <trkpt lat="46.55092" lon="5.78495">
        <ele>702.24</ele>
        <time>2019-04-27T10:26:50Z</time>
      </trkpt>
      <trkpt lat="46.55113" lon="5.78517">
        <ele>701.98</ele>
        <time>2019-04-27T10:27:06Z</time>
      </trkpt>
      <trkpt lat="46.55131" lon="5.78537">
        <ele>701.82</ele>
        <time>2019-04-27T10:27:26Z</time>
      </trkpt>
      <trkpt lat="46.55143" lon="5.78545">
        <ele>701.66</ele>
        <time>2019-04-27T10:27:38Z</time>
      </trkpt>
      <trkpt lat="46.55145" lon="5.78545">
        <ele>701.63</ele>
        <time>2019-04-27T10:27:40Z</time>
      </trkpt>
      <trkpt lat="46.55147" lon="5.78545">
        <ele>701.61</ele>
        <time>2019-04-27T10:27:42Z</time>
      </trkpt>
      <trkpt lat="46.55172" lon="5.78553">
        <ele>701.46</ele>
        <time>2019-04-27T10:28:00Z</time>
      </trkpt>
      <trkpt lat="46.55186" lon="5.78556">
        <ele>702.18</ele>
        <time>2019-04-27T10:28:12Z</time>
      </trkpt>
      <trkpt lat="46.55195" lon="5.78553">
        <ele>702.11</ele>
        <time>2019-04-27T10:28:19Z</time>
      </trkpt>
      <trkpt lat="46.55221" lon="5.78543">
        <ele>701.98</ele>
        <time>2019-04-27T10:28:37Z</time>
      </trkpt>
      <trkpt lat="46.55238" lon="5.78536">
        <ele>702.68</ele>
        <time>2019-04-27T10:28:51Z</time>
      </trkpt>
      <trkpt lat="46.55266" lon="5.78527">
        <ele>704.05</ele>
        <time>2019-04-27T10:29:14Z</time>
      </trkpt>
      <trkpt lat="46.55281" lon="5.7851">
        <ele>703.87</ele>
        <time>2019-04-27T10:29:32Z</time>
      </trkpt>
      <trkpt lat="46.55285" lon="5.78511">
        <ele>703.86</ele>
        <time>2019-04-27T10:29:36Z</time>
      </trkpt>
      <trkpt lat="46.55304" lon="5.78518">
        <ele>704.57</ele>
        <time>2019-04-27T10:29:48Z</time>
      </trkpt>
      <trkpt lat="46.55308" lon="5.78519">
        <ele>704.55</ele>
        <time>2019-04-27T10:29:50Z</time>
      </trkpt>
      <trkpt lat="46.55311" lon="5.7852">
        <ele>704.51</ele>
        <time>2019-04-27T10:29:54Z</time>
      </trkpt>
      <trkpt lat="46.55329" lon="5.78534">
        <ele>704.4</ele>
        <time>2019-04-27T10:30:12Z</time>
      </trkpt>
      <trkpt lat="46.55332" lon="5.78535">
        <ele>704.39</ele>
        <time>2019-04-27T10:30:14Z</time>
      </trkpt>
      <trkpt lat="46.55342" lon="5.78545">
        <ele>704.33</ele>
        <time>2019-04-27T10:30:23Z</time>
      </trkpt>
      <trkpt lat="46.55363" lon="5.78557">
        <ele>706.23</ele>
        <time>2019-04-27T10:30:40Z</time>
      </trkpt>
      <trkpt lat="46.55369" lon="5.78564">
        <ele>707.98</ele>
        <time>2019-04-27T10:30:46Z</time>
      </trkpt>
      <trkpt lat="46.55383" lon="5.78582">
        <ele>711.45</ele>
        <time>2019-04-27T10:31:04Z</time>
      </trkpt>
      <trkpt lat="46.55393" lon="5.78594">
        <ele>711.3</ele>
        <time>2019-04-27T10:31:13Z</time>
      </trkpt>
      <trkpt lat="46.55402" lon="5.78599">
        <ele>708.85</ele>
        <time>2019-04-27T10:31:23Z</time>
      </trkpt>
      <trkpt lat="46.55418" lon="5.7862">
        <ele>706.3</ele>
        <time>2019-04-27T10:31:39Z</time>
      </trkpt>
      <trkpt lat="46.55425" lon="5.78644">
        <ele>706.45</ele>
        <time>2019-04-27T10:31:58Z</time>
      </trkpt>
      <trkpt lat="46.55425" lon="5.78648">
        <ele>709.13</ele>
        <time>2019-04-27T10:32:02Z</time>
      </trkpt>
      <trkpt lat="46.55424" lon="5.78657">
        <ele>712.62</ele>
        <time>2019-04-27T10:32:12Z</time>
      </trkpt>
      <trkpt lat="46.55424" lon="5.78671">
        <ele>716.32</ele>
        <time>2019-04-27T10:32:26Z</time>
      </trkpt>
      <trkpt lat="46.55428" lon="5.78689">
        <ele>719.64</ele>
        <time>2019-04-27T10:32:45Z</time>
      </trkpt>
      <trkpt lat="46.55434" lon="5.78707">
        <ele>721.24</ele>
        <time>2019-04-27T10:33:04Z</time>
      </trkpt>
      <trkpt lat="46.5544" lon="5.78717">
        <ele>722.09</ele>
        <time>2019-04-27T10:33:23Z</time>
      </trkpt>
      <trkpt lat="46.55447" lon="5.78728">
        <ele>719.64</ele>
        <time>2019-04-27T10:33:35Z</time>
      </trkpt>
      <trkpt lat="46.55448" lon="5.78733">
        <ele>719.67</ele>
        <time>2019-04-27T10:33:37Z</time>
      </trkpt>
      <trkpt lat="46.55449" lon="5.78737">
        <ele>719.67</ele>
        <time>2019-04-27T10:33:39Z</time>
      </trkpt>
      <trkpt lat="46.55457" lon="5.78742">
        <ele>718.8</ele>
        <time>2019-04-27T10:33:47Z</time>
      </trkpt>
      <trkpt lat="46.55461" lon="5.78748">
        <ele>718.83</ele>
        <time>2019-04-27T10:33:51Z</time>
      </trkpt>
      <trkpt lat="46.55473" lon="5.78764">
        <ele>721.38</ele>
        <time>2019-04-27T10:34:06Z</time>
      </trkpt>
      <trkpt lat="46.55475" lon="5.78765">
        <ele>721.4</ele>
        <time>2019-04-27T10:34:07Z</time>
      </trkpt>
      <trkpt lat="46.55493" lon="5.78766">
        <ele>723.26</ele>
        <time>2019-04-27T10:34:20Z</time>
      </trkpt>
      <trkpt lat="46.55511" lon="5.78767">
        <ele>724.93</ele>
        <time>2019-04-27T10:34:38Z</time>
      </trkpt>
      <trkpt lat="46.55516" lon="5.78769">
        <ele>725.67</ele>
        <time>2019-04-27T10:34:41Z</time>
      </trkpt>
      <trkpt lat="46.55536" lon="5.78776">
        <ele>727.39</ele>
        <time>2019-04-27T10:35:01Z</time>
      </trkpt>
      <trkpt lat="46.55551" lon="5.78759">
        <ele>728.65</ele>
        <time>2019-04-27T10:35:19Z</time>
      </trkpt>
      <trkpt lat="46.55561" lon="5.78739">
        <ele>728.69</ele>
        <time>2019-04-27T10:35:32Z</time>
      </trkpt>
      <trkpt lat="46.55579" lon="5.78727">
        <ele>728.78</ele>
        <time>2019-04-27T10:35:47Z</time>
      </trkpt>
      <trkpt lat="46.5559" lon="5.78724">
        <ele>729.75</ele>
        <time>2019-04-27T10:35:57Z</time>
      </trkpt>
      <trkpt lat="46.55608" lon="5.78711">
        <ele>733.54</ele>
        <time>2019-04-27T10:36:13Z</time>
      </trkpt>
      <trkpt lat="46.55623" lon="5.78699">
        <ele>738.8</ele>
        <time>2019-04-27T10:36:27Z</time>
      </trkpt>
      <trkpt lat="46.55624" lon="5.78698">
        <ele>738.8</ele>
        <time>2019-04-27T10:36:28Z</time>
      </trkpt>
      <trkpt lat="46.5563" lon="5.78698">
        <ele>736.27</ele>
        <time>2019-04-27T10:36:33Z</time>
      </trkpt>
      <trkpt lat="46.55643" lon="5.78703">
        <ele>735.35</ele>
        <time>2019-04-27T10:36:46Z</time>
      </trkpt>
      <trkpt lat="46.5566" lon="5.78704">
        <ele>735.39</ele>
        <time>2019-04-27T10:36:59Z</time>
      </trkpt>
      <trkpt lat="46.55683" lon="5.78704">
        <ele>735.49</ele>
        <time>2019-04-27T10:37:16Z</time>
      </trkpt>
      <trkpt lat="46.55707" lon="5.78701">
        <ele>735.51</ele>
        <time>2019-04-27T10:37:32Z</time>
      </trkpt>
      <trkpt lat="46.55726" lon="5.78699">
        <ele>734.72</ele>
        <time>2019-04-27T10:37:45Z</time>
      </trkpt>
      <trkpt lat="46.55736" lon="5.78711">
        <ele>734.83</ele>
        <time>2019-04-27T10:37:56Z</time>
      </trkpt>
      <trkpt lat="46.55738" lon="5.78713">
        <ele>734.85</ele>
        <time>2019-04-27T10:37:58Z</time>
      </trkpt>
      <trkpt lat="46.5574" lon="5.78721">
        <ele>737.19</ele>
        <time>2019-04-27T10:38:03Z</time>
      </trkpt>
      <trkpt lat="46.55741" lon="5.78727">
        <ele>737.22</ele>
        <time>2019-04-27T10:38:07Z</time>
      </trkpt>
      <trkpt lat="46.55745" lon="5.78744">
        <ele>739.74</ele>
        <time>2019-04-27T10:38:18Z</time>
      </trkpt>
      <trkpt lat="46.5575" lon="5.78764">
        <ele>740.58</ele>
        <time>2019-04-27T10:38:28Z</time>
      </trkpt>
      <trkpt lat="46.55751" lon="5.78773">
        <ele>740.61</ele>
        <time>2019-04-27T10:38:32Z</time>
      </trkpt>
      <trkpt lat="46.55754" lon="5.78781">
        <ele>740.62</ele>
        <time>2019-04-27T10:38:36Z</time>
      </trkpt>
      <trkpt lat="46.55755" lon="5.78804">
        <ele>741.47</ele>
        <time>2019-04-27T10:38:48Z</time>
      </trkpt>
      <trkpt lat="46.55758" lon="5.78816">
        <ele>741.49</ele>
        <time>2019-04-27T10:38:54Z</time>
      </trkpt>
      <trkpt lat="46.55758" lon="5.78821">
        <ele>741.49</ele>
        <time>2019-04-27T10:38:56Z</time>
      </trkpt>
      <trkpt lat="46.55758" lon="5.78842">
        <ele>741.53</ele>
        <time>2019-04-27T10:39:08Z</time>
      </trkpt>
      <trkpt lat="46.55759" lon="5.78855">
        <ele>739.35</ele>
        <time>2019-04-27T10:39:14Z</time>
      </trkpt>
      <trkpt lat="46.55751" lon="5.78875">
        <ele>735.8</ele>
        <time>2019-04-27T10:39:27Z</time>
      </trkpt>
      <trkpt lat="46.55747" lon="5.78893">
        <ele>734.14</ele>
        <time>2019-04-27T10:39:38Z</time>
      </trkpt>
      <trkpt lat="46.55738" lon="5.78913">
        <ele>732.51</ele>
        <time>2019-04-27T10:39:52Z</time>
      </trkpt>
      <trkpt lat="46.55717" lon="5.78933">
        <ele>730.14</ele>
        <time>2019-04-27T10:40:09Z</time>
      </trkpt>
      <trkpt lat="46.55715" lon="5.78933">
        <ele>730.13</ele>
        <time>2019-04-27T10:40:11Z</time>
      </trkpt>
      <trkpt lat="46.55694" lon="5.78949">
        <ele>726.84</ele>
        <time>2019-04-27T10:40:31Z</time>
      </trkpt>
      <trkpt lat="46.55668" lon="5.78968">
        <ele>724.72</ele>
        <time>2019-04-27T10:40:52Z</time>
      </trkpt>
      <trkpt lat="46.55667" lon="5.78977">
        <ele>724.73</ele>
        <time>2019-04-27T10:40:56Z</time>
      </trkpt>
      <trkpt lat="46.55671" lon="5.78992">
        <ele>724.06</ele>
        <time>2019-04-27T10:41:05Z</time>
      </trkpt>
      <trkpt lat="46.55674" lon="5.78993">
        <ele>724.09</ele>
        <time>2019-04-27T10:41:08Z</time>
      </trkpt>
      <trkpt lat="46.55686" lon="5.79">
        <ele>723.29</ele>
        <time>2019-04-27T10:41:18Z</time>
      </trkpt>
      <trkpt lat="46.55702" lon="5.7901">
        <ele>722.37</ele>
        <time>2019-04-27T10:41:33Z</time>
      </trkpt>
      <trkpt lat="46.55721" lon="5.79016">
        <ele>722.46</ele>
        <time>2019-04-27T10:41:47Z</time>
      </trkpt>
      <trkpt lat="46.55737" lon="5.7902">
        <ele>722.51</ele>
        <time>2019-04-27T10:42:01Z</time>
      </trkpt>
      <trkpt lat="46.55754" lon="5.79028">
        <ele>722.59</ele>
        <time>2019-04-27T10:42:19Z</time>
      </trkpt>
      <trkpt lat="46.55771" lon="5.79034">
        <ele>725.06</ele>
        <time>2019-04-27T10:42:31Z</time>
      </trkpt>
      <trkpt lat="46.55787" lon="5.79037">
        <ele>725.86</ele>
        <time>2019-04-27T10:42:43Z</time>
      </trkpt>
      <trkpt lat="46.55816" lon="5.79032">
        <ele>725.9</ele>
        <time>2019-04-27T10:43:03Z</time>
      </trkpt>
      <trkpt lat="46.55833" lon="5.79024">
        <ele>725.97</ele>
        <time>2019-04-27T10:43:16Z</time>
      </trkpt>
      <trkpt lat="46.55836" lon="5.79022">
        <ele>725.99</ele>
        <time>2019-04-27T10:43:18Z</time>
      </trkpt>
      <trkpt lat="46.5584" lon="5.79018">
        <ele>726</ele>
        <time>2019-04-27T10:43:21Z</time>
      </trkpt>
      <trkpt lat="46.55843" lon="5.79015">
        <ele>726.01</ele>
        <time>2019-04-27T10:43:23Z</time>
      </trkpt>
      <trkpt lat="46.55845" lon="5.79013">
        <ele>723.71</ele>
        <time>2019-04-27T10:43:25Z</time>
      </trkpt>
      <trkpt lat="46.55859" lon="5.79006">
        <ele>722.94</ele>
        <time>2019-04-27T10:43:34Z</time>
      </trkpt>
      <trkpt lat="46.55863" lon="5.79004">
        <ele>722.99</ele>
        <time>2019-04-27T10:43:36Z</time>
      </trkpt>
      <trkpt lat="46.55867" lon="5.79004">
        <ele>723</ele>
        <time>2019-04-27T10:43:39Z</time>
      </trkpt>
      <trkpt lat="46.55875" lon="5.79008">
        <ele>722.15</ele>
        <time>2019-04-27T10:43:44Z</time>
      </trkpt>
      <trkpt lat="46.55894" lon="5.79022">
        <ele>721.39</ele>
        <time>2019-04-27T10:43:56Z</time>
      </trkpt>
      <trkpt lat="46.55899" lon="5.79035">
        <ele>720.55</ele>
        <time>2019-04-27T10:44:04Z</time>
      </trkpt>
      <trkpt lat="46.559" lon="5.79041">
        <ele>720.56</ele>
        <time>2019-04-27T10:44:07Z</time>
      </trkpt>
      <trkpt lat="46.559" lon="5.7906">
        <ele>720.6</ele>
        <time>2019-04-27T10:44:16Z</time>
      </trkpt>
      <trkpt lat="46.55901" lon="5.79071">
        <ele>720.65</ele>
        <time>2019-04-27T10:44:22Z</time>
      </trkpt>
      <trkpt lat="46.55903" lon="5.79076">
        <ele>720.65</ele>
        <time>2019-04-27T10:44:25Z</time>
      </trkpt>
      <trkpt lat="46.55909" lon="5.79099">
        <ele>720.71</ele>
        <time>2019-04-27T10:44:38Z</time>
      </trkpt>
      <trkpt lat="46.55916" lon="5.79117">
        <ele>720.74</ele>
        <time>2019-04-27T10:44:45Z</time>
      </trkpt>
      <trkpt lat="46.55933" lon="5.79142">
        <ele>720.78</ele>
        <time>2019-04-27T10:44:59Z</time>
      </trkpt>
      <trkpt lat="46.55947" lon="5.79164">
        <ele>720.82</ele>
        <time>2019-04-27T10:45:11Z</time>
      </trkpt>
      <trkpt lat="46.55953" lon="5.79175">
        <ele>720.83</ele>
        <time>2019-04-27T10:45:17Z</time>
      </trkpt>
      <trkpt lat="46.55959" lon="5.79189">
        <ele>716.01</ele>
        <time>2019-04-27T10:45:24Z</time>
      </trkpt>
      <trkpt lat="46.5596" lon="5.7919">
        <ele>721.06</ele>
        <time>2019-04-27T10:45:25Z</time>
      </trkpt>
      <trkpt lat="46.55961" lon="5.79192">
        <ele>717.35</ele>
        <time>2019-04-27T10:45:26Z</time>
      </trkpt>
      <trkpt lat="46.55962" lon="5.79194">
        <ele>725.58</ele>
        <time>2019-04-27T10:45:27Z</time>
      </trkpt>
      <trkpt lat="46.55963" lon="5.79195">
        <ele>725.58</ele>
        <time>2019-04-27T10:45:28Z</time>
      </trkpt>
      <trkpt lat="46.55964" lon="5.79197">
        <ele>722.27</ele>
        <time>2019-04-27T10:45:29Z</time>
      </trkpt>
      <trkpt lat="46.55965" lon="5.79198">
        <ele>722.26</ele>
        <time>2019-04-27T10:45:30Z</time>
      </trkpt>
      <trkpt lat="46.55967" lon="5.79202">
        <ele>721.15</ele>
        <time>2019-04-27T10:45:32Z</time>
      </trkpt>
      <trkpt lat="46.55975" lon="5.79216">
        <ele>721.19</ele>
        <time>2019-04-27T10:45:41Z</time>
      </trkpt>
      <trkpt lat="46.5598" lon="5.79222">
        <ele>721.23</ele>
        <time>2019-04-27T10:45:46Z</time>
      </trkpt>
      <trkpt lat="46.55992" lon="5.79237">
        <ele>720.48</ele>
        <time>2019-04-27T10:45:57Z</time>
      </trkpt>
      <trkpt lat="46.56002" lon="5.79248">
        <ele>719.7</ele>
        <time>2019-04-27T10:46:06Z</time>
      </trkpt>
      <trkpt lat="46.56004" lon="5.79251">
        <ele>719.71</ele>
        <time>2019-04-27T10:46:09Z</time>
      </trkpt>
      <trkpt lat="46.56012" lon="5.79259">
        <ele>712.79</ele>
        <time>2019-04-27T10:46:17Z</time>
      </trkpt>
      <trkpt lat="46.56013" lon="5.7926">
        <ele>719.21</ele>
        <time>2019-04-27T10:46:18Z</time>
      </trkpt>
      <trkpt lat="46.56014" lon="5.79263">
        <ele>721.94</ele>
        <time>2019-04-27T10:46:20Z</time>
      </trkpt>
      <trkpt lat="46.56017" lon="5.79266">
        <ele>719.32</ele>
        <time>2019-04-27T10:46:23Z</time>
      </trkpt>
      <trkpt lat="46.56031" lon="5.79282">
        <ele>718.55</ele>
        <time>2019-04-27T10:46:36Z</time>
      </trkpt>
      <trkpt lat="46.56044" lon="5.79288">
        <ele>711.72</ele>
        <time>2019-04-27T10:46:45Z</time>
      </trkpt>
      <trkpt lat="46.56045" lon="5.79289">
        <ele>719.41</ele>
        <time>2019-04-27T10:46:46Z</time>
      </trkpt>
      <trkpt lat="46.56046" lon="5.79289">
        <ele>720.31</ele>
        <time>2019-04-27T10:46:48Z</time>
      </trkpt>
      <trkpt lat="46.56064" lon="5.79292">
        <ele>717.99</ele>
        <time>2019-04-27T10:47:02Z</time>
      </trkpt>
      <trkpt lat="46.56069" lon="5.79292">
        <ele>715.46</ele>
        <time>2019-04-27T10:47:05Z</time>
      </trkpt>
      <trkpt lat="46.56069" lon="5.79292">
        <ele>720.8</ele>
        <time>2019-04-27T10:47:06Z</time>
      </trkpt>
      <trkpt lat="46.56071" lon="5.79291">
        <ele>720.81</ele>
        <time>2019-04-27T10:47:07Z</time>
      </trkpt>
      <trkpt lat="46.56076" lon="5.79292">
        <ele>718.53</ele>
        <time>2019-04-27T10:47:10Z</time>
      </trkpt>
      <trkpt lat="46.5609" lon="5.79296">
        <ele>717.76</ele>
        <time>2019-04-27T10:47:23Z</time>
      </trkpt>
      <trkpt lat="46.56097" lon="5.79299">
        <ele>717.76</ele>
        <time>2019-04-27T10:47:28Z</time>
      </trkpt>
      <trkpt lat="46.56125" lon="5.79304">
        <ele>717.76</ele>
        <time>2019-04-27T10:47:46Z</time>
      </trkpt>
      <trkpt lat="46.56151" lon="5.79309">
        <ele>717.74</ele>
        <time>2019-04-27T10:48:07Z</time>
      </trkpt>
      <trkpt lat="46.56157" lon="5.79326">
        <ele>716.86</ele>
        <time>2019-04-27T10:48:23Z</time>
      </trkpt>
      <trkpt lat="46.56173" lon="5.79353">
        <ele>715.06</ele>
        <time>2019-04-27T10:48:43Z</time>
      </trkpt>
      <trkpt lat="46.5618" lon="5.79385">
        <ele>712.59</ele>
        <time>2019-04-27T10:49:01Z</time>
      </trkpt>
      <trkpt lat="46.56187" lon="5.79417">
        <ele>710.9</ele>
        <time>2019-04-27T10:49:20Z</time>
      </trkpt>
      <trkpt lat="46.56199" lon="5.79441">
        <ele>712.58</ele>
        <time>2019-04-27T10:49:38Z</time>
      </trkpt>
      <trkpt lat="46.56205" lon="5.79449">
        <ele>713.33</ele>
        <time>2019-04-27T10:49:46Z</time>
      </trkpt>
      <trkpt lat="46.56213" lon="5.7946">
        <ele>714.13</ele>
        <time>2019-04-27T10:49:52Z</time>
      </trkpt>
      <trkpt lat="46.56215" lon="5.79464">
        <ele>714.15</ele>
        <time>2019-04-27T10:49:55Z</time>
      </trkpt>
      <trkpt lat="46.5622" lon="5.79477">
        <ele>714.93</ele>
        <time>2019-04-27T10:50:02Z</time>
      </trkpt>
      <trkpt lat="46.56227" lon="5.79487">
        <ele>714.9</ele>
        <time>2019-04-27T10:50:09Z</time>
      </trkpt>
      <trkpt lat="46.56236" lon="5.79488">
        <ele>714.87</ele>
        <time>2019-04-27T10:50:22Z</time>
      </trkpt>
      <trkpt lat="46.56245" lon="5.79474">
        <ele>717.27</ele>
        <time>2019-04-27T10:50:40Z</time>
      </trkpt>
      <trkpt lat="46.56262" lon="5.79455">
        <ele>718.95</ele>
        <time>2019-04-27T10:51:00Z</time>
      </trkpt>
      <trkpt lat="46.56282" lon="5.79444">
        <ele>718.92</ele>
        <time>2019-04-27T10:51:19Z</time>
      </trkpt>
      <trkpt lat="46.56307" lon="5.79426">
        <ele>718.95</ele>
        <time>2019-04-27T10:51:39Z</time>
      </trkpt>
      <trkpt lat="46.56318" lon="5.79426">
        <ele>718.96</ele>
        <time>2019-04-27T10:51:48Z</time>
      </trkpt>
      <trkpt lat="46.56331" lon="5.79414">
        <ele>718.97</ele>
        <time>2019-04-27T10:52:03Z</time>
      </trkpt>
      <trkpt lat="46.56334" lon="5.79412">
        <ele>714.42</ele>
        <time>2019-04-27T10:52:05Z</time>
      </trkpt>
      <trkpt lat="46.56335" lon="5.79412">
        <ele>710.98</ele>
        <time>2019-04-27T10:52:06Z</time>
      </trkpt>
      <trkpt lat="46.56336" lon="5.79411">
        <ele>725</ele>
        <time>2019-04-27T10:52:07Z</time>
      </trkpt>
      <trkpt lat="46.56337" lon="5.79411">
        <ele>725</ele>
        <time>2019-04-27T10:52:08Z</time>
      </trkpt>
      <trkpt lat="46.56337" lon="5.79411">
        <ele>721.98</ele>
        <time>2019-04-27T10:52:09Z</time>
      </trkpt>
      <trkpt lat="46.56338" lon="5.79409">
        <ele>720.91</ele>
        <time>2019-04-27T10:52:11Z</time>
      </trkpt>
      <trkpt lat="46.56356" lon="5.79397">
        <ele>720.95</ele>
        <time>2019-04-27T10:52:30Z</time>
      </trkpt>
      <trkpt lat="46.56361" lon="5.79389">
        <ele>723.23</ele>
        <time>2019-04-27T10:52:37Z</time>
      </trkpt>
      <trkpt lat="46.56365" lon="5.79382">
        <ele>723.21</ele>
        <time>2019-04-27T10:52:42Z</time>
      </trkpt>
      <trkpt lat="46.56372" lon="5.79374">
        <ele>724.07</ele>
        <time>2019-04-27T10:52:51Z</time>
      </trkpt>
      <trkpt lat="46.5638" lon="5.79364">
        <ele>725.6</ele>
        <time>2019-04-27T10:53:04Z</time>
      </trkpt>
      <trkpt lat="46.56382" lon="5.79348">
        <ele>729.12</ele>
        <time>2019-04-27T10:53:16Z</time>
      </trkpt>
      <trkpt lat="46.56384" lon="5.79343">
        <ele>729.92</ele>
        <time>2019-04-27T10:53:20Z</time>
      </trkpt>
      <trkpt lat="46.56393" lon="5.79331">
        <ele>733.14</ele>
        <time>2019-04-27T10:53:31Z</time>
      </trkpt>
      <trkpt lat="46.564" lon="5.7932">
        <ele>736.75</ele>
        <time>2019-04-27T10:53:45Z</time>
      </trkpt>
      <trkpt lat="46.56402" lon="5.79316">
        <ele>737.53</ele>
        <time>2019-04-27T10:53:51Z</time>
      </trkpt>
      <trkpt lat="46.56414" lon="5.79304">
        <ele>740.13</ele>
        <time>2019-04-27T10:54:07Z</time>
      </trkpt>
      <trkpt lat="46.56421" lon="5.79298">
        <ele>741.66</ele>
        <time>2019-04-27T10:54:23Z</time>
      </trkpt>
      <trkpt lat="46.5643" lon="5.79297">
        <ele>742.42</ele>
        <time>2019-04-27T10:54:42Z</time>
      </trkpt>
      <trkpt lat="46.56435" lon="5.79294">
        <ele>743.14</ele>
        <time>2019-04-27T10:55:00Z</time>
      </trkpt>
      <trkpt lat="46.56436" lon="5.79289">
        <ele>746.71</ele>
        <time>2019-04-27T10:55:13Z</time>
      </trkpt>
      <trkpt lat="46.56452" lon="5.79279">
        <ele>749.52</ele>
        <time>2019-04-27T10:55:32Z</time>
      </trkpt>
      <trkpt lat="46.56467" lon="5.7928">
        <ele>750.91</ele>
        <time>2019-04-27T10:55:45Z</time>
      </trkpt>
      <trkpt lat="46.56485" lon="5.79278">
        <ele>751.71</ele>
        <time>2019-04-27T10:55:58Z</time>
      </trkpt>
      <trkpt lat="46.5649" lon="5.79277">
        <ele>751.66</ele>
        <time>2019-04-27T10:56:02Z</time>
      </trkpt>
      <trkpt lat="46.56498" lon="5.79283">
        <ele>751.65</ele>
        <time>2019-04-27T10:56:11Z</time>
      </trkpt>
      <trkpt lat="46.56509" lon="5.79289">
        <ele>752.39</ele>
        <time>2019-04-27T10:56:25Z</time>
      </trkpt>
      <trkpt lat="46.56511" lon="5.79285">
        <ele>752.43</ele>
        <time>2019-04-27T10:56:44Z</time>
      </trkpt>
      <trkpt lat="46.56514" lon="5.79282">
        <ele>752.46</ele>
        <time>2019-04-27T10:56:50Z</time>
      </trkpt>
      <trkpt lat="46.56516" lon="5.7928">
        <ele>752.49</ele>
        <time>2019-04-27T10:56:52Z</time>
      </trkpt>
      <trkpt lat="46.56531" lon="5.79275">
        <ele>752.44</ele>
        <time>2019-04-27T10:57:04Z</time>
      </trkpt>
      <trkpt lat="46.56547" lon="5.79259">
        <ele>752.39</ele>
        <time>2019-04-27T10:57:17Z</time>
      </trkpt>
      <trkpt lat="46.56559" lon="5.7925">
        <ele>752.44</ele>
        <time>2019-04-27T10:57:29Z</time>
      </trkpt>
      <trkpt lat="46.56563" lon="5.79245">
        <ele>749.89</ele>
        <time>2019-04-27T10:57:34Z</time>
      </trkpt>
      <trkpt lat="46.56576" lon="5.79239">
        <ele>747.09</ele>
        <time>2019-04-27T10:57:48Z</time>
      </trkpt>
      <trkpt lat="46.5658" lon="5.79239">
        <ele>747.11</ele>
        <time>2019-04-27T10:57:51Z</time>
      </trkpt>
      <trkpt lat="46.56591" lon="5.79238">
        <ele>744.38</ele>
        <time>2019-04-27T10:58:00Z</time>
      </trkpt>
      <trkpt lat="46.56612" lon="5.79236">
        <ele>742.85</ele>
        <time>2019-04-27T10:58:15Z</time>
      </trkpt>
      <trkpt lat="46.56624" lon="5.79244">
        <ele>742.98</ele>
        <time>2019-04-27T10:58:28Z</time>
      </trkpt>
      <trkpt lat="46.56625" lon="5.79249">
        <ele>745.3</ele>
        <time>2019-04-27T10:58:34Z</time>
      </trkpt>
      <trkpt lat="46.56625" lon="5.79252">
        <ele>745.32</ele>
        <time>2019-04-27T10:58:36Z</time>
      </trkpt>
      <trkpt lat="46.56628" lon="5.79251">
        <ele>747.32</ele>
        <time>2019-04-27T10:58:52Z</time>
      </trkpt>
      <trkpt lat="46.56629" lon="5.79242">
        <ele>744.56</ele>
        <time>2019-04-27T10:58:58Z</time>
      </trkpt>
      <trkpt lat="46.56628" lon="5.79228">
        <ele>742.63</ele>
        <time>2019-04-27T10:59:07Z</time>
      </trkpt>
      <trkpt lat="46.56628" lon="5.79224">
        <ele>742.65</ele>
        <time>2019-04-27T10:59:09Z</time>
      </trkpt>
      <trkpt lat="46.56629" lon="5.79206">
        <ele>741.73</ele>
        <time>2019-04-27T10:59:17Z</time>
      </trkpt>
      <trkpt lat="46.56628" lon="5.79201">
        <ele>741.79</ele>
        <time>2019-04-27T10:59:19Z</time>
      </trkpt>
      <trkpt lat="46.56635" lon="5.79188">
        <ele>741.81</ele>
        <time>2019-04-27T10:59:29Z</time>
      </trkpt>
      <trkpt lat="46.56648" lon="5.79158">
        <ele>741.8</ele>
        <time>2019-04-27T10:59:47Z</time>
      </trkpt>
      <trkpt lat="46.56664" lon="5.7913">
        <ele>740.73</ele>
        <time>2019-04-27T11:00:07Z</time>
      </trkpt>
      <trkpt lat="46.5667" lon="5.79124">
        <ele>740.71</ele>
        <time>2019-04-27T11:00:11Z</time>
      </trkpt>
      <trkpt lat="46.56672" lon="5.79118">
        <ele>739.84</ele>
        <time>2019-04-27T11:00:15Z</time>
      </trkpt>
      <trkpt lat="46.56676" lon="5.79115">
        <ele>739.03</ele>
        <time>2019-04-27T11:00:18Z</time>
      </trkpt>
      <trkpt lat="46.56684" lon="5.79097">
        <ele>738.2</ele>
        <time>2019-04-27T11:00:27Z</time>
      </trkpt>
      <trkpt lat="46.56692" lon="5.7908">
        <ele>737.44</ele>
        <time>2019-04-27T11:00:35Z</time>
      </trkpt>
      <trkpt lat="46.56695" lon="5.79071">
        <ele>737.44</ele>
        <time>2019-04-27T11:00:40Z</time>
      </trkpt>
      <trkpt lat="46.56695" lon="5.79062">
        <ele>737.44</ele>
        <time>2019-04-27T11:00:46Z</time>
      </trkpt>
      <trkpt lat="46.56696" lon="5.79053">
        <ele>738.7</ele>
        <time>2019-04-27T11:00:53Z</time>
      </trkpt>
      <trkpt lat="46.56692" lon="5.79046">
        <ele>738.66</ele>
        <time>2019-04-27T11:00:57Z</time>
      </trkpt>
      <trkpt lat="46.5669" lon="5.7904">
        <ele>738.65</ele>
        <time>2019-04-27T11:01:01Z</time>
      </trkpt>
      <trkpt lat="46.56683" lon="5.79021">
        <ele>738.48</ele>
        <time>2019-04-27T11:01:12Z</time>
      </trkpt>
      <trkpt lat="46.56674" lon="5.79013">
        <ele>738.39</ele>
        <time>2019-04-27T11:01:29Z</time>
      </trkpt>
      <trkpt lat="46.56666" lon="5.79019">
        <ele>740.11</ele>
        <time>2019-04-27T11:01:40Z</time>
      </trkpt>
      <trkpt lat="46.56645" lon="5.7903">
        <ele>742.35</ele>
        <time>2019-04-27T11:01:59Z</time>
      </trkpt>
      <trkpt lat="46.5663" lon="5.79044">
        <ele>743.78</ele>
        <time>2019-04-27T11:02:11Z</time>
      </trkpt>
      <trkpt lat="46.56619" lon="5.79053">
        <ele>744.3</ele>
        <time>2019-04-27T11:02:21Z</time>
      </trkpt>
      <trkpt lat="46.56605" lon="5.79058">
        <ele>743.99</ele>
        <time>2019-04-27T11:02:33Z</time>
      </trkpt>
      <trkpt lat="46.56583" lon="5.79049">
        <ele>743.73</ele>
        <time>2019-04-27T11:02:48Z</time>
      </trkpt>
      <trkpt lat="46.56569" lon="5.7904">
        <ele>743.54</ele>
        <time>2019-04-27T11:02:59Z</time>
      </trkpt>
      <trkpt lat="46.56558" lon="5.79036">
        <ele>743.35</ele>
        <time>2019-04-27T11:03:10Z</time>
      </trkpt>
      <trkpt lat="46.56544" lon="5.79032">
        <ele>743.25</ele>
        <time>2019-04-27T11:03:19Z</time>
      </trkpt>
      <trkpt lat="46.56537" lon="5.79024">
        <ele>740.75</ele>
        <time>2019-04-27T11:03:24Z</time>
      </trkpt>
      <trkpt lat="46.56525" lon="5.79016">
        <ele>740.62</ele>
        <time>2019-04-27T11:03:35Z</time>
      </trkpt>
      <trkpt lat="46.56511" lon="5.7901">
        <ele>740.42</ele>
        <time>2019-04-27T11:03:52Z</time>
      </trkpt>
      <trkpt lat="46.56496" lon="5.79">
        <ele>740.18</ele>
        <time>2019-04-27T11:04:12Z</time>
      </trkpt>
      <trkpt lat="46.5648" lon="5.7899">
        <ele>739.92</ele>
        <time>2019-04-27T11:04:24Z</time>
      </trkpt>
      <trkpt lat="46.56458" lon="5.78972">
        <ele>737.17</ele>
        <time>2019-04-27T11:04:40Z</time>
      </trkpt>
      <trkpt lat="46.56451" lon="5.78969">
        <ele>737.14</ele>
        <time>2019-04-27T11:04:43Z</time>
      </trkpt>
      <trkpt lat="46.56427" lon="5.78955">
        <ele>735.25</ele>
        <time>2019-04-27T11:04:57Z</time>
      </trkpt>
      <trkpt lat="46.56411" lon="5.7895">
        <ele>733.54</ele>
        <time>2019-04-27T11:05:07Z</time>
      </trkpt>
      <trkpt lat="46.56408" lon="5.78947">
        <ele>733.5</ele>
        <time>2019-04-27T11:05:10Z</time>
      </trkpt>
      <trkpt lat="46.56401" lon="5.78943">
        <ele>733.45</ele>
        <time>2019-04-27T11:05:17Z</time>
      </trkpt>
      <trkpt lat="46.56387" lon="5.78927">
        <ele>732.48</ele>
        <time>2019-04-27T11:05:33Z</time>
      </trkpt>
      <trkpt lat="46.56386" lon="5.78926">
        <ele>732.48</ele>
        <time>2019-04-27T11:05:34Z</time>
      </trkpt>
      <trkpt lat="46.56378" lon="5.78919">
        <ele>732.46</ele>
        <time>2019-04-27T11:05:40Z</time>
      </trkpt>
      <trkpt lat="46.56375" lon="5.78915">
        <ele>732.44</ele>
        <time>2019-04-27T11:05:43Z</time>
      </trkpt>
      <trkpt lat="46.56363" lon="5.78906">
        <ele>732.34</ele>
        <time>2019-04-27T11:05:53Z</time>
      </trkpt>
      <trkpt lat="46.56359" lon="5.78905">
        <ele>732.26</ele>
        <time>2019-04-27T11:05:57Z</time>
      </trkpt>
      <trkpt lat="46.56352" lon="5.78901">
        <ele>731.13</ele>
        <time>2019-04-27T11:06:03Z</time>
      </trkpt>
      <trkpt lat="46.5634" lon="5.78893">
        <ele>730.28</ele>
        <time>2019-04-27T11:06:17Z</time>
      </trkpt>
      <trkpt lat="46.56333" lon="5.78879">
        <ele>730.21</ele>
        <time>2019-04-27T11:06:31Z</time>
      </trkpt>
      <trkpt lat="46.56333" lon="5.78877">
        <ele>730.19</ele>
        <time>2019-04-27T11:06:33Z</time>
      </trkpt>
      <trkpt lat="46.56332" lon="5.78873">
        <ele>730.16</ele>
        <time>2019-04-27T11:06:35Z</time>
      </trkpt>
      <trkpt lat="46.5633" lon="5.78868">
        <ele>732.63</ele>
        <time>2019-04-27T11:06:38Z</time>
      </trkpt>
      <trkpt lat="46.56327" lon="5.78858">
        <ele>732.52</ele>
        <time>2019-04-27T11:06:44Z</time>
      </trkpt>
      <trkpt lat="46.56326" lon="5.7885">
        <ele>732.45</ele>
        <time>2019-04-27T11:06:48Z</time>
      </trkpt>
      <trkpt lat="46.56318" lon="5.78834">
        <ele>732.2</ele>
        <time>2019-04-27T11:06:58Z</time>
      </trkpt>
      <trkpt lat="46.56313" lon="5.78816">
        <ele>732.06</ele>
        <time>2019-04-27T11:07:08Z</time>
      </trkpt>
      <trkpt lat="46.56301" lon="5.78796">
        <ele>732.71</ele>
        <time>2019-04-27T11:07:24Z</time>
      </trkpt>
      <trkpt lat="46.56294" lon="5.78784">
        <ele>735.96</ele>
        <time>2019-04-27T11:07:37Z</time>
      </trkpt>
      <trkpt lat="46.56292" lon="5.78781">
        <ele>735.93</ele>
        <time>2019-04-27T11:07:39Z</time>
      </trkpt>
      <trkpt lat="46.56282" lon="5.78772">
        <ele>737.37</ele>
        <time>2019-04-27T11:07:47Z</time>
      </trkpt>
      <trkpt lat="46.56282" lon="5.78755">
        <ele>737.93</ele>
        <time>2019-04-27T11:07:58Z</time>
      </trkpt>
      <trkpt lat="46.56288" lon="5.78752">
        <ele>738.75</ele>
        <time>2019-04-27T11:08:02Z</time>
      </trkpt>
      <trkpt lat="46.563" lon="5.78744">
        <ele>740.24</ele>
        <time>2019-04-27T11:08:12Z</time>
      </trkpt>
      <trkpt lat="46.56307" lon="5.78723">
        <ele>743.7</ele>
        <time>2019-04-27T11:08:29Z</time>
      </trkpt>
      <trkpt lat="46.56308" lon="5.78721">
        <ele>743.67</ele>
        <time>2019-04-27T11:08:30Z</time>
      </trkpt>
      <trkpt lat="46.56311" lon="5.78714">
        <ele>744.46</ele>
        <time>2019-04-27T11:08:35Z</time>
      </trkpt>
      <trkpt lat="46.56313" lon="5.78706">
        <ele>745.23</ele>
        <time>2019-04-27T11:08:41Z</time>
      </trkpt>
      <trkpt lat="46.56316" lon="5.787">
        <ele>746.04</ele>
        <time>2019-04-27T11:08:45Z</time>
      </trkpt>
      <trkpt lat="46.56323" lon="5.78683">
        <ele>747.41</ele>
        <time>2019-04-27T11:08:58Z</time>
      </trkpt>
      <trkpt lat="46.56331" lon="5.78659">
        <ele>749.57</ele>
        <time>2019-04-27T11:09:15Z</time>
      </trkpt>
      <trkpt lat="46.56328" lon="5.7865">
        <ele>749.47</ele>
        <time>2019-04-27T11:09:20Z</time>
      </trkpt>
      <trkpt lat="46.56334" lon="5.78632">
        <ele>750.13</ele>
        <time>2019-04-27T11:09:30Z</time>
      </trkpt>
      <trkpt lat="46.56327" lon="5.78617">
        <ele>749.98</ele>
        <time>2019-04-27T11:09:42Z</time>
      </trkpt>
      <trkpt lat="46.56318" lon="5.78614">
        <ele>749.93</ele>
        <time>2019-04-27T11:09:55Z</time>
      </trkpt>
      <trkpt lat="46.56303" lon="5.78614">
        <ele>751.46</ele>
        <time>2019-04-27T11:10:09Z</time>
      </trkpt>
      <trkpt lat="46.56296" lon="5.78617">
        <ele>753.33</ele>
        <time>2019-04-27T11:10:19Z</time>
      </trkpt>
      <trkpt lat="46.56283" lon="5.78618">
        <ele>756.56</ele>
        <time>2019-04-27T11:10:34Z</time>
      </trkpt>
      <trkpt lat="46.56265" lon="5.78605">
        <ele>759.16</ele>
        <time>2019-04-27T11:10:51Z</time>
      </trkpt>
      <trkpt lat="46.56257" lon="5.78592">
        <ele>759.04</ele>
        <time>2019-04-27T11:10:58Z</time>
      </trkpt>
      <trkpt lat="46.56253" lon="5.78587">
        <ele>758.97</ele>
        <time>2019-04-27T11:11:01Z</time>
      </trkpt>
      <trkpt lat="46.5625" lon="5.78579">
        <ele>758.93</ele>
        <time>2019-04-27T11:11:05Z</time>
      </trkpt>
      <trkpt lat="46.56246" lon="5.7856">
        <ele>758.84</ele>
        <time>2019-04-27T11:11:13Z</time>
      </trkpt>
      <trkpt lat="46.56245" lon="5.78551">
        <ele>758.8</ele>
        <time>2019-04-27T11:11:17Z</time>
      </trkpt>
      <trkpt lat="46.56239" lon="5.78537">
        <ele>758.68</ele>
        <time>2019-04-27T11:11:24Z</time>
      </trkpt>
      <trkpt lat="46.56239" lon="5.78528">
        <ele>756.35</ele>
        <time>2019-04-27T11:11:28Z</time>
      </trkpt>
      <trkpt lat="46.56239" lon="5.78524">
        <ele>756.35</ele>
        <time>2019-04-27T11:11:30Z</time>
      </trkpt>
      <trkpt lat="46.5624" lon="5.78519">
        <ele>756.31</ele>
        <time>2019-04-27T11:11:32Z</time>
      </trkpt>
      <trkpt lat="46.56241" lon="5.78513">
        <ele>755.51</ele>
        <time>2019-04-27T11:11:34Z</time>
      </trkpt>
      <trkpt lat="46.56247" lon="5.78499">
        <ele>754.43</ele>
        <time>2019-04-27T11:11:42Z</time>
      </trkpt>
      <trkpt lat="46.56258" lon="5.78484">
        <ele>751.49</ele>
        <time>2019-04-27T11:11:53Z</time>
      </trkpt>
      <trkpt lat="46.56264" lon="5.78477">
        <ele>750.41</ele>
        <time>2019-04-27T11:11:57Z</time>
      </trkpt>
      <trkpt lat="46.56269" lon="5.7847">
        <ele>748.24</ele>
        <time>2019-04-27T11:12:02Z</time>
      </trkpt>
      <trkpt lat="46.56272" lon="5.78461">
        <ele>746.35</ele>
        <time>2019-04-27T11:12:08Z</time>
      </trkpt>
      <trkpt lat="46.56274" lon="5.78456">
        <ele>745.44</ele>
        <time>2019-04-27T11:12:11Z</time>
      </trkpt>
      <trkpt lat="46.56279" lon="5.78446">
        <ele>745.44</ele>
        <time>2019-04-27T11:12:17Z</time>
      </trkpt>
      <trkpt lat="46.56283" lon="5.78442">
        <ele>745.47</ele>
        <time>2019-04-27T11:12:20Z</time>
      </trkpt>
      <trkpt lat="46.56297" lon="5.78431">
        <ele>743.64</ele>
        <time>2019-04-27T11:12:28Z</time>
      </trkpt>
      <trkpt lat="46.56313" lon="5.78408">
        <ele>742.55</ele>
        <time>2019-04-27T11:12:41Z</time>
      </trkpt>
      <trkpt lat="46.56315" lon="5.78399">
        <ele>741.52</ele>
        <time>2019-04-27T11:12:45Z</time>
      </trkpt>
      <trkpt lat="46.56315" lon="5.78394">
        <ele>740.69</ele>
        <time>2019-04-27T11:12:48Z</time>
      </trkpt>
      <trkpt lat="46.56316" lon="5.78387">
        <ele>739.81</ele>
        <time>2019-04-27T11:12:52Z</time>
      </trkpt>
      <trkpt lat="46.5632" lon="5.78375">
        <ele>738.73</ele>
        <time>2019-04-27T11:12:59Z</time>
      </trkpt>
      <trkpt lat="46.56323" lon="5.78356">
        <ele>735.85</ele>
        <time>2019-04-27T11:13:09Z</time>
      </trkpt>
      <trkpt lat="46.56337" lon="5.7834">
        <ele>733</ele>
        <time>2019-04-27T11:13:20Z</time>
      </trkpt>
      <trkpt lat="46.56343" lon="5.78331">
        <ele>731.9</ele>
        <time>2019-04-27T11:13:26Z</time>
      </trkpt>
      <trkpt lat="46.56345" lon="5.78323">
        <ele>730.11</ele>
        <time>2019-04-27T11:13:30Z</time>
      </trkpt>
      <trkpt lat="46.56345" lon="5.78315">
        <ele>729.22</ele>
        <time>2019-04-27T11:13:34Z</time>
      </trkpt>
      <trkpt lat="46.56345" lon="5.78303">
        <ele>728.14</ele>
        <time>2019-04-27T11:13:39Z</time>
      </trkpt>
      <trkpt lat="46.56347" lon="5.78291">
        <ele>726.11</ele>
        <time>2019-04-27T11:13:45Z</time>
      </trkpt>
      <trkpt lat="46.56347" lon="5.78274">
        <ele>723.1</ele>
        <time>2019-04-27T11:13:54Z</time>
      </trkpt>
      <trkpt lat="46.56345" lon="5.78263">
        <ele>720.87</ele>
        <time>2019-04-27T11:14:01Z</time>
      </trkpt>
      <trkpt lat="46.5634" lon="5.78249">
        <ele>717.69</ele>
        <time>2019-04-27T11:14:10Z</time>
      </trkpt>
      <trkpt lat="46.56335" lon="5.78237">
        <ele>716.69</ele>
        <time>2019-04-27T11:14:15Z</time>
      </trkpt>
      <trkpt lat="46.56326" lon="5.78214">
        <ele>714.07</ele>
        <time>2019-04-27T11:14:27Z</time>
      </trkpt>
      <trkpt lat="46.56321" lon="5.78207">
        <ele>711.29</ele>
        <time>2019-04-27T11:14:35Z</time>
      </trkpt>
      <trkpt lat="46.56309" lon="5.78185">
        <ele>709.15</ele>
        <time>2019-04-27T11:14:47Z</time>
      </trkpt>
      <trkpt lat="46.56305" lon="5.78174">
        <ele>708.02</ele>
        <time>2019-04-27T11:14:54Z</time>
      </trkpt>
      <trkpt lat="46.56305" lon="5.78172">
        <ele>706.93</ele>
        <time>2019-04-27T11:14:56Z</time>
      </trkpt>
      <trkpt lat="46.56304" lon="5.78169">
        <ele>706.84</ele>
        <time>2019-04-27T11:14:59Z</time>
      </trkpt>
      <trkpt lat="46.56295" lon="5.78152">
        <ele>705.88</ele>
        <time>2019-04-27T11:15:09Z</time>
      </trkpt>
      <trkpt lat="46.5629" lon="5.78143">
        <ele>704.97</ele>
        <time>2019-04-27T11:15:15Z</time>
      </trkpt>
      <trkpt lat="46.56291" lon="5.7814">
        <ele>703.91</ele>
        <time>2019-04-27T11:15:18Z</time>
      </trkpt>
      <trkpt lat="46.56284" lon="5.78127">
        <ele>703.04</ele>
        <time>2019-04-27T11:15:25Z</time>
      </trkpt>
      <trkpt lat="46.56277" lon="5.78114">
        <ele>700.99</ele>
        <time>2019-04-27T11:15:35Z</time>
      </trkpt>
      <trkpt lat="46.56273" lon="5.78099">
        <ele>700.1</ele>
        <time>2019-04-27T11:15:43Z</time>
      </trkpt>
      <trkpt lat="46.56263" lon="5.78079">
        <ele>699.11</ele>
        <time>2019-04-27T11:15:57Z</time>
      </trkpt>
      <trkpt lat="46.56245" lon="5.78057">
        <ele>697.09</ele>
        <time>2019-04-27T11:16:10Z</time>
      </trkpt>
      <trkpt lat="46.56227" lon="5.78038">
        <ele>696.01</ele>
        <time>2019-04-27T11:16:22Z</time>
      </trkpt>
      <trkpt lat="46.56226" lon="5.78031">
        <ele>695.16</ele>
        <time>2019-04-27T11:16:25Z</time>
      </trkpt>
      <trkpt lat="46.5622" lon="5.78018">
        <ele>693.41</ele>
        <time>2019-04-27T11:16:33Z</time>
      </trkpt>
      <trkpt lat="46.56213" lon="5.77988">
        <ele>690.98</ele>
        <time>2019-04-27T11:16:47Z</time>
      </trkpt>
      <trkpt lat="46.56212" lon="5.77971">
        <ele>689.07</ele>
        <time>2019-04-27T11:16:57Z</time>
      </trkpt>
      <trkpt lat="46.56214" lon="5.7796">
        <ele>689.04</ele>
        <time>2019-04-27T11:17:02Z</time>
      </trkpt>
      <trkpt lat="46.56214" lon="5.77956">
        <ele>688.15</ele>
        <time>2019-04-27T11:17:04Z</time>
      </trkpt>
      <trkpt lat="46.56222" lon="5.77938">
        <ele>686.49</ele>
        <time>2019-04-27T11:17:15Z</time>
      </trkpt>
      <trkpt lat="46.56224" lon="5.77931">
        <ele>686.44</ele>
        <time>2019-04-27T11:17:19Z</time>
      </trkpt>
      <trkpt lat="46.56225" lon="5.77926">
        <ele>685.61</ele>
        <time>2019-04-27T11:17:22Z</time>
      </trkpt>
      <trkpt lat="46.56229" lon="5.77922">
        <ele>685.57</ele>
        <time>2019-04-27T11:17:25Z</time>
      </trkpt>
      <trkpt lat="46.56228" lon="5.77918">
        <ele>685.56</ele>
        <time>2019-04-27T11:17:26Z</time>
      </trkpt>
      <trkpt lat="46.56228" lon="5.77916">
        <ele>685.53</ele>
        <time>2019-04-27T11:17:27Z</time>
      </trkpt>
      <trkpt lat="46.56227" lon="5.77913">
        <ele>684.8</ele>
        <time>2019-04-27T11:17:28Z</time>
      </trkpt>
      <trkpt lat="46.56227" lon="5.77911">
        <ele>684.79</ele>
        <time>2019-04-27T11:17:29Z</time>
      </trkpt>
      <trkpt lat="46.5622" lon="5.779">
        <ele>684.7</ele>
        <time>2019-04-27T11:17:41Z</time>
      </trkpt>
      <trkpt lat="46.56211" lon="5.77871">
        <ele>683.63</ele>
        <time>2019-04-27T11:18:09Z</time>
      </trkpt>
      <trkpt lat="46.56209" lon="5.77849">
        <ele>680.24</ele>
        <time>2019-04-27T11:18:24Z</time>
      </trkpt>
      <trkpt lat="46.56207" lon="5.77842">
        <ele>679.44</ele>
        <time>2019-04-27T11:18:28Z</time>
      </trkpt>
      <trkpt lat="46.56207" lon="5.7784">
        <ele>679.45</ele>
        <time>2019-04-27T11:18:29Z</time>
      </trkpt>
      <trkpt lat="46.56206" lon="5.77838">
        <ele>679.45</ele>
        <time>2019-04-27T11:18:30Z</time>
      </trkpt>
      <trkpt lat="46.56206" lon="5.77837">
        <ele>679.44</ele>
        <time>2019-04-27T11:18:31Z</time>
      </trkpt>
      <trkpt lat="46.562" lon="5.77817">
        <ele>676.14</ele>
        <time>2019-04-27T11:18:46Z</time>
      </trkpt>
      <trkpt lat="46.56185" lon="5.77787">
        <ele>673.56</ele>
        <time>2019-04-27T11:19:02Z</time>
      </trkpt>
      <trkpt lat="46.56179" lon="5.77761">
        <ele>673.78</ele>
        <time>2019-04-27T11:19:21Z</time>
      </trkpt>
      <trkpt lat="46.56175" lon="5.77752">
        <ele>672.9</ele>
        <time>2019-04-27T11:19:26Z</time>
      </trkpt>
      <trkpt lat="46.56176" lon="5.7775">
        <ele>672.91</ele>
        <time>2019-04-27T11:19:27Z</time>
      </trkpt>
      <trkpt lat="46.56177" lon="5.77749">
        <ele>672.91</ele>
        <time>2019-04-27T11:19:28Z</time>
      </trkpt>
      <trkpt lat="46.56177" lon="5.77747">
        <ele>672.92</ele>
        <time>2019-04-27T11:19:29Z</time>
      </trkpt>
      <trkpt lat="46.56177" lon="5.77745">
        <ele>672.93</ele>
        <time>2019-04-27T11:19:30Z</time>
      </trkpt>
      <trkpt lat="46.56176" lon="5.77736">
        <ele>672.98</ele>
        <time>2019-04-27T11:19:36Z</time>
      </trkpt>
      <trkpt lat="46.56174" lon="5.77731">
        <ele>673</ele>
        <time>2019-04-27T11:19:39Z</time>
      </trkpt>
      <trkpt lat="46.56173" lon="5.77729">
        <ele>673.02</ele>
        <time>2019-04-27T11:19:40Z</time>
      </trkpt>
      <trkpt lat="46.56173" lon="5.77727">
        <ele>672.21</ele>
        <time>2019-04-27T11:19:41Z</time>
      </trkpt>
      <trkpt lat="46.5617" lon="5.7771">
        <ele>672.27</ele>
        <time>2019-04-27T11:19:49Z</time>
      </trkpt>
      <trkpt lat="46.5617" lon="5.77708">
        <ele>672.29</ele>
        <time>2019-04-27T11:19:50Z</time>
      </trkpt>
      <trkpt lat="46.56168" lon="5.77696">
        <ele>671.37</ele>
        <time>2019-04-27T11:19:56Z</time>
      </trkpt>
      <trkpt lat="46.56168" lon="5.77692">
        <ele>671.39</ele>
        <time>2019-04-27T11:19:58Z</time>
      </trkpt>
      <trkpt lat="46.56168" lon="5.7769">
        <ele>671.4</ele>
        <time>2019-04-27T11:19:59Z</time>
      </trkpt>
      <trkpt lat="46.56168" lon="5.77688">
        <ele>671.42</ele>
        <time>2019-04-27T11:20:00Z</time>
      </trkpt>
      <trkpt lat="46.56168" lon="5.77686">
        <ele>671.43</ele>
        <time>2019-04-27T11:20:01Z</time>
      </trkpt>
      <trkpt lat="46.56167" lon="5.77684">
        <ele>671.45</ele>
        <time>2019-04-27T11:20:02Z</time>
      </trkpt>
      <trkpt lat="46.56167" lon="5.77682">
        <ele>671.45</ele>
        <time>2019-04-27T11:20:03Z</time>
      </trkpt>
      <trkpt lat="46.56169" lon="5.77679">
        <ele>671.48</ele>
        <time>2019-04-27T11:20:05Z</time>
      </trkpt>
      <trkpt lat="46.56171" lon="5.77674">
        <ele>670.66</ele>
        <time>2019-04-27T11:20:09Z</time>
      </trkpt>
      <trkpt lat="46.56172" lon="5.77672">
        <ele>670.67</ele>
        <time>2019-04-27T11:20:10Z</time>
      </trkpt>
      <trkpt lat="46.56173" lon="5.7767">
        <ele>670.69</ele>
        <time>2019-04-27T11:20:11Z</time>
      </trkpt>
      <trkpt lat="46.56174" lon="5.77668">
        <ele>670.71</ele>
        <time>2019-04-27T11:20:12Z</time>
      </trkpt>
      <trkpt lat="46.56174" lon="5.77664">
        <ele>670.71</ele>
        <time>2019-04-27T11:20:13Z</time>
      </trkpt>
      <trkpt lat="46.56173" lon="5.77661">
        <ele>669.8</ele>
        <time>2019-04-27T11:20:14Z</time>
      </trkpt>
      <trkpt lat="46.56172" lon="5.77646">
        <ele>669.09</ele>
        <time>2019-04-27T11:20:21Z</time>
      </trkpt>
      <trkpt lat="46.5617" lon="5.77639">
        <ele>669.15</ele>
        <time>2019-04-27T11:20:24Z</time>
      </trkpt>
      <trkpt lat="46.5617" lon="5.77636">
        <ele>669.15</ele>
        <time>2019-04-27T11:20:25Z</time>
      </trkpt>
      <trkpt lat="46.5617" lon="5.77634">
        <ele>669.16</ele>
        <time>2019-04-27T11:20:26Z</time>
      </trkpt>
      <trkpt lat="46.5617" lon="5.77632">
        <ele>668.28</ele>
        <time>2019-04-27T11:20:27Z</time>
      </trkpt>
      <trkpt lat="46.5617" lon="5.77629">
        <ele>668.29</ele>
        <time>2019-04-27T11:20:28Z</time>
      </trkpt>
      <trkpt lat="46.56169" lon="5.77627">
        <ele>668.3</ele>
        <time>2019-04-27T11:20:29Z</time>
      </trkpt>
      <trkpt lat="46.56168" lon="5.77624">
        <ele>668.31</ele>
        <time>2019-04-27T11:20:30Z</time>
      </trkpt>
      <trkpt lat="46.56166" lon="5.77603">
        <ele>666.68</ele>
        <time>2019-04-27T11:20:42Z</time>
      </trkpt>
      <trkpt lat="46.56158" lon="5.77589">
        <ele>665.91</ele>
        <time>2019-04-27T11:20:49Z</time>
      </trkpt>
      <trkpt lat="46.56156" lon="5.77587">
        <ele>665.93</ele>
        <time>2019-04-27T11:20:50Z</time>
      </trkpt>
      <trkpt lat="46.56154" lon="5.77585">
        <ele>665.11</ele>
        <time>2019-04-27T11:20:52Z</time>
      </trkpt>
      <trkpt lat="46.56153" lon="5.77583">
        <ele>665.12</ele>
        <time>2019-04-27T11:20:53Z</time>
      </trkpt>
      <trkpt lat="46.56151" lon="5.77581">
        <ele>665.14</ele>
        <time>2019-04-27T11:20:54Z</time>
      </trkpt>
      <trkpt lat="46.56148" lon="5.77578">
        <ele>665.18</ele>
        <time>2019-04-27T11:20:58Z</time>
      </trkpt>
      <trkpt lat="46.5614" lon="5.77567">
        <ele>663.64</ele>
        <time>2019-04-27T11:21:11Z</time>
      </trkpt>
      <trkpt lat="46.56137" lon="5.77556">
        <ele>661.91</ele>
        <time>2019-04-27T11:21:19Z</time>
      </trkpt>
      <trkpt lat="46.56135" lon="5.77552">
        <ele>661.94</ele>
        <time>2019-04-27T11:21:21Z</time>
      </trkpt>
      <trkpt lat="46.56134" lon="5.7755">
        <ele>661.96</ele>
        <time>2019-04-27T11:21:22Z</time>
      </trkpt>
      <trkpt lat="46.56133" lon="5.77548">
        <ele>661.97</ele>
        <time>2019-04-27T11:21:23Z</time>
      </trkpt>
      <trkpt lat="46.5613" lon="5.77536">
        <ele>660.4</ele>
        <time>2019-04-27T11:21:34Z</time>
      </trkpt>
      <trkpt lat="46.56125" lon="5.77532">
        <ele>660.59</ele>
        <time>2019-04-27T11:21:51Z</time>
      </trkpt>
      <trkpt lat="46.56125" lon="5.77533">
        <ele>660.6</ele>
        <time>2019-04-27T11:21:52Z</time>
      </trkpt>
      <trkpt lat="46.56126" lon="5.77535">
        <ele>660.61</ele>
        <time>2019-04-27T11:21:53Z</time>
      </trkpt>
      <trkpt lat="46.5613" lon="5.77544">
        <ele>660.67</ele>
        <time>2019-04-27T11:21:59Z</time>
      </trkpt>
      <trkpt lat="46.56133" lon="5.77551">
        <ele>663</ele>
        <time>2019-04-27T11:22:05Z</time>
      </trkpt>
      <trkpt lat="46.56142" lon="5.77564">
        <ele>664.73</ele>
        <time>2019-04-27T11:22:24Z</time>
      </trkpt>
      <trkpt lat="46.56157" lon="5.77577">
        <ele>666.56</ele>
        <time>2019-04-27T11:22:44Z</time>
      </trkpt>
      <trkpt lat="46.56162" lon="5.77587">
        <ele>667.44</ele>
        <time>2019-04-27T11:22:51Z</time>
      </trkpt>
      <trkpt lat="46.56166" lon="5.7761">
        <ele>669.47</ele>
        <time>2019-04-27T11:23:03Z</time>
      </trkpt>
      <trkpt lat="46.56161" lon="5.77629">
        <ele>671.37</ele>
        <time>2019-04-27T11:23:17Z</time>
      </trkpt>
      <trkpt lat="46.56156" lon="5.77647">
        <ele>672.95</ele>
        <time>2019-04-27T11:23:27Z</time>
      </trkpt>
      <trkpt lat="46.56162" lon="5.77661">
        <ele>673.76</ele>
        <time>2019-04-27T11:23:45Z</time>
      </trkpt>
      <trkpt lat="46.56165" lon="5.77663">
        <ele>673.82</ele>
        <time>2019-04-27T11:24:01Z</time>
      </trkpt>
      <trkpt lat="46.56159" lon="5.77673">
        <ele>673.87</ele>
        <time>2019-04-27T11:24:11Z</time>
      </trkpt>
      <trkpt lat="46.56169" lon="5.77701">
        <ele>674.73</ele>
        <time>2019-04-27T11:24:25Z</time>
      </trkpt>
      <trkpt lat="46.56169" lon="5.77702">
        <ele>674.74</ele>
        <time>2019-04-27T11:24:26Z</time>
      </trkpt>
      <trkpt lat="46.56175" lon="5.77719">
        <ele>675.69</ele>
        <time>2019-04-27T11:24:38Z</time>
      </trkpt>
      <trkpt lat="46.56182" lon="5.77752">
        <ele>676.44</ele>
        <time>2019-04-27T11:24:54Z</time>
      </trkpt>
      <trkpt lat="46.56183" lon="5.77755">
        <ele>676.44</ele>
        <time>2019-04-27T11:24:56Z</time>
      </trkpt>
      <trkpt lat="46.56183" lon="5.77765">
        <ele>677.3</ele>
        <time>2019-04-27T11:25:02Z</time>
      </trkpt>
      <trkpt lat="46.56183" lon="5.77768">
        <ele>677.28</ele>
        <time>2019-04-27T11:25:04Z</time>
      </trkpt>
      <trkpt lat="46.5619" lon="5.77787">
        <ele>679.02</ele>
        <time>2019-04-27T11:25:17Z</time>
      </trkpt>
      <trkpt lat="46.56197" lon="5.77809">
        <ele>682.17</ele>
        <time>2019-04-27T11:25:33Z</time>
      </trkpt>
      <trkpt lat="46.56207" lon="5.77831">
        <ele>683.79</ele>
        <time>2019-04-27T11:25:49Z</time>
      </trkpt>
      <trkpt lat="46.5621" lon="5.77852">
        <ele>686.05</ele>
        <time>2019-04-27T11:26:04Z</time>
      </trkpt>
      <trkpt lat="46.56211" lon="5.7786">
        <ele>686.89</ele>
        <time>2019-04-27T11:26:07Z</time>
      </trkpt>
      <trkpt lat="46.5621" lon="5.77867">
        <ele>686.85</ele>
        <time>2019-04-27T11:26:11Z</time>
      </trkpt>
      <trkpt lat="46.56213" lon="5.7788">
        <ele>687.73</ele>
        <time>2019-04-27T11:26:18Z</time>
      </trkpt>
      <trkpt lat="46.56212" lon="5.77907">
        <ele>688.65</ele>
        <time>2019-04-27T11:26:29Z</time>
      </trkpt>
      <trkpt lat="46.56212" lon="5.7791">
        <ele>688.65</ele>
        <time>2019-04-27T11:26:30Z</time>
      </trkpt>
      <trkpt lat="46.56212" lon="5.77917">
        <ele>688.64</ele>
        <time>2019-04-27T11:26:33Z</time>
      </trkpt>
      <trkpt lat="46.5621" lon="5.77935">
        <ele>689.37</ele>
        <time>2019-04-27T11:26:43Z</time>
      </trkpt>
      <trkpt lat="46.5621" lon="5.77946">
        <ele>690.27</ele>
        <time>2019-04-27T11:26:49Z</time>
      </trkpt>
      <trkpt lat="46.56207" lon="5.7795">
        <ele>690.25</ele>
        <time>2019-04-27T11:26:52Z</time>
      </trkpt>
      <trkpt lat="46.5621" lon="5.77968">
        <ele>691.96</ele>
        <time>2019-04-27T11:27:05Z</time>
      </trkpt>
      <trkpt lat="46.56212" lon="5.78002">
        <ele>694.5</ele>
        <time>2019-04-27T11:27:25Z</time>
      </trkpt>
      <trkpt lat="46.56213" lon="5.78013">
        <ele>693.99</ele>
        <time>2019-04-27T11:27:40Z</time>
      </trkpt>
      <trkpt lat="46.56212" lon="5.78013">
        <ele>698.03</ele>
        <time>2019-04-27T11:27:41Z</time>
      </trkpt>
      <trkpt lat="46.56212" lon="5.78012">
        <ele>690</ele>
        <time>2019-04-27T11:27:42Z</time>
      </trkpt>
      <trkpt lat="46.56212" lon="5.78013">
        <ele>699.18</ele>
        <time>2019-04-27T11:27:43Z</time>
      </trkpt>
      <trkpt lat="46.56214" lon="5.78017">
        <ele>696.92</ele>
        <time>2019-04-27T11:27:48Z</time>
      </trkpt>
      <trkpt lat="46.56228" lon="5.78039">
        <ele>699.41</ele>
        <time>2019-04-27T11:28:07Z</time>
      </trkpt>
      <trkpt lat="46.56233" lon="5.78043">
        <ele>699.4</ele>
        <time>2019-04-27T11:28:12Z</time>
      </trkpt>
      <trkpt lat="46.56248" lon="5.78064">
        <ele>700.11</ele>
        <time>2019-04-27T11:28:31Z</time>
      </trkpt>
      <trkpt lat="46.56264" lon="5.78092">
        <ele>701.99</ele>
        <time>2019-04-27T11:28:51Z</time>
      </trkpt>
      <trkpt lat="46.56269" lon="5.78101">
        <ele>702.78</ele>
        <time>2019-04-27T11:28:58Z</time>
      </trkpt>
      <trkpt lat="46.5627" lon="5.78105">
        <ele>702.85</ele>
        <time>2019-04-27T11:29:01Z</time>
      </trkpt>
      <trkpt lat="46.56285" lon="5.7813">
        <ele>706.53</ele>
        <time>2019-04-27T11:29:21Z</time>
      </trkpt>
      <trkpt lat="46.56297" lon="5.78154">
        <ele>708.02</ele>
        <time>2019-04-27T11:29:42Z</time>
      </trkpt>
      <trkpt lat="46.56311" lon="5.78176">
        <ele>708.85</ele>
        <time>2019-04-27T11:29:59Z</time>
      </trkpt>
      <trkpt lat="46.56316" lon="5.78192">
        <ele>711.53</ele>
        <time>2019-04-27T11:30:17Z</time>
      </trkpt>
      <trkpt lat="46.56324" lon="5.78204">
        <ele>713.33</ele>
        <time>2019-04-27T11:30:24Z</time>
      </trkpt>
      <trkpt lat="46.56331" lon="5.78227">
        <ele>716.05</ele>
        <time>2019-04-27T11:30:40Z</time>
      </trkpt>
      <trkpt lat="46.56338" lon="5.78239">
        <ele>719.4</ele>
        <time>2019-04-27T11:30:54Z</time>
      </trkpt>
      <trkpt lat="46.5635" lon="5.78249">
        <ele>721.41</ele>
        <time>2019-04-27T11:31:15Z</time>
      </trkpt>
      <trkpt lat="46.56354" lon="5.78253">
        <ele>725.06</ele>
        <time>2019-04-27T11:31:30Z</time>
      </trkpt>
      <trkpt lat="46.56366" lon="5.78245">
        <ele>725.8</ele>
        <time>2019-04-27T11:31:52Z</time>
      </trkpt>
      <trkpt lat="46.5637" lon="5.78247">
        <ele>723.43</ele>
        <time>2019-04-27T11:31:57Z</time>
      </trkpt>
      <trkpt lat="46.56384" lon="5.78252">
        <ele>720.84</ele>
        <time>2019-04-27T11:32:14Z</time>
      </trkpt>
      <trkpt lat="46.56402" lon="5.78261">
        <ele>720.89</ele>
        <time>2019-04-27T11:32:33Z</time>
      </trkpt>
      <trkpt lat="46.56405" lon="5.78264">
        <ele>723.21</ele>
        <time>2019-04-27T11:32:38Z</time>
      </trkpt>
      <trkpt lat="46.56413" lon="5.78268">
        <ele>726.24</ele>
        <time>2019-04-27T11:32:47Z</time>
      </trkpt>
      <trkpt lat="46.56421" lon="5.78276">
        <ele>729.89</ele>
        <time>2019-04-27T11:33:05Z</time>
      </trkpt>
      <trkpt lat="46.56427" lon="5.78284">
        <ele>730.55</ele>
        <time>2019-04-27T11:33:27Z</time>
      </trkpt>
      <trkpt lat="46.5644" lon="5.78292">
        <ele>733.55</ele>
        <time>2019-04-27T11:33:40Z</time>
      </trkpt>
      <trkpt lat="46.56456" lon="5.78299">
        <ele>735.76</ele>
        <time>2019-04-27T11:33:57Z</time>
      </trkpt>
      <trkpt lat="46.56476" lon="5.78313">
        <ele>736.52</ele>
        <time>2019-04-27T11:34:21Z</time>
      </trkpt>
      <trkpt lat="46.56492" lon="5.78325">
        <ele>738.2</ele>
        <time>2019-04-27T11:34:44Z</time>
      </trkpt>
      <trkpt lat="46.56498" lon="5.78333">
        <ele>740.27</ele>
        <time>2019-04-27T11:34:53Z</time>
      </trkpt>
      <trkpt lat="46.56514" lon="5.78354">
        <ele>742.69</ele>
        <time>2019-04-27T11:35:14Z</time>
      </trkpt>
      <trkpt lat="46.56529" lon="5.78367">
        <ele>743.38</ele>
        <time>2019-04-27T11:35:34Z</time>
      </trkpt>
      <trkpt lat="46.5654" lon="5.78377">
        <ele>738.09</ele>
        <time>2019-04-27T11:35:47Z</time>
      </trkpt>
      <trkpt lat="46.56541" lon="5.78378">
        <ele>746.89</ele>
        <time>2019-04-27T11:35:48Z</time>
      </trkpt>
      <trkpt lat="46.56542" lon="5.78379">
        <ele>735.61</ele>
        <time>2019-04-27T11:35:49Z</time>
      </trkpt>
      <trkpt lat="46.56543" lon="5.78379">
        <ele>749.59</ele>
        <time>2019-04-27T11:35:50Z</time>
      </trkpt>
      <trkpt lat="46.56546" lon="5.78381">
        <ele>745.23</ele>
        <time>2019-04-27T11:35:53Z</time>
      </trkpt>
      <trkpt lat="46.56547" lon="5.78382">
        <ele>745.22</ele>
        <time>2019-04-27T11:35:54Z</time>
      </trkpt>
      <trkpt lat="46.56552" lon="5.78385">
        <ele>743.15</ele>
        <time>2019-04-27T11:36:00Z</time>
      </trkpt>
      <trkpt lat="46.5656" lon="5.7839">
        <ele>741.58</ele>
        <time>2019-04-27T11:36:18Z</time>
      </trkpt>
      <trkpt lat="46.56571" lon="5.78394">
        <ele>737.85</ele>
        <time>2019-04-27T11:36:29Z</time>
      </trkpt>
      <trkpt lat="46.56577" lon="5.78399">
        <ele>734.11</ele>
        <time>2019-04-27T11:36:41Z</time>
      </trkpt>
      <trkpt lat="46.56577" lon="5.78399">
        <ele>734.1</ele>
        <time>2019-04-27T11:36:42Z</time>
      </trkpt>
      <trkpt lat="46.56581" lon="5.78405">
        <ele>731.29</ele>
        <time>2019-04-27T11:36:52Z</time>
      </trkpt>
      <trkpt lat="46.56588" lon="5.78413">
        <ele>728.04</ele>
        <time>2019-04-27T11:37:06Z</time>
      </trkpt>
      <trkpt lat="46.56593" lon="5.78414">
        <ele>723.83</ele>
        <time>2019-04-27T11:37:12Z</time>
      </trkpt>
      <trkpt lat="46.56594" lon="5.78415">
        <ele>728.44</ele>
        <time>2019-04-27T11:37:15Z</time>
      </trkpt>
      <trkpt lat="46.56596" lon="5.78416">
        <ele>728.47</ele>
        <time>2019-04-27T11:37:16Z</time>
      </trkpt>
      <trkpt lat="46.56598" lon="5.78419">
        <ele>725.96</ele>
        <time>2019-04-27T11:37:19Z</time>
      </trkpt>
      <trkpt lat="46.566" lon="5.78423">
        <ele>725.05</ele>
        <time>2019-04-27T11:37:23Z</time>
      </trkpt>
      <trkpt lat="46.56608" lon="5.7843">
        <ele>723.58</ele>
        <time>2019-04-27T11:37:29Z</time>
      </trkpt>
      <trkpt lat="46.5661" lon="5.78432">
        <ele>723.33</ele>
        <time>2019-04-27T11:37:31Z</time>
      </trkpt>
      <trkpt lat="46.56609" lon="5.78446">
        <ele>723.63</ele>
        <time>2019-04-27T11:37:43Z</time>
      </trkpt>
      <trkpt lat="46.56609" lon="5.78448">
        <ele>726</ele>
        <time>2019-04-27T11:37:45Z</time>
      </trkpt>
      <trkpt lat="46.56614" lon="5.78454">
        <ele>723.12</ele>
        <time>2019-04-27T11:37:57Z</time>
      </trkpt>
      <trkpt lat="46.56618" lon="5.78451">
        <ele>720.08</ele>
        <time>2019-04-27T11:38:06Z</time>
      </trkpt>
      <trkpt lat="46.5663" lon="5.78441">
        <ele>716.53</ele>
        <time>2019-04-27T11:38:21Z</time>
      </trkpt>
      <trkpt lat="46.56642" lon="5.78415">
        <ele>713.29</ele>
        <time>2019-04-27T11:38:38Z</time>
      </trkpt>
      <trkpt lat="46.56649" lon="5.78388">
        <ele>712.49</ele>
        <time>2019-04-27T11:38:56Z</time>
      </trkpt>
      <trkpt lat="46.56674" lon="5.78364">
        <ele>711.43</ele>
        <time>2019-04-27T11:39:10Z</time>
      </trkpt>
      <trkpt lat="46.56685" lon="5.78344">
        <ele>708.1</ele>
        <time>2019-04-27T11:39:20Z</time>
      </trkpt>
      <trkpt lat="46.56685" lon="5.78342">
        <ele>708.1</ele>
        <time>2019-04-27T11:39:21Z</time>
      </trkpt>
      <trkpt lat="46.56687" lon="5.78321">
        <ele>706.21</ele>
        <time>2019-04-27T11:39:31Z</time>
      </trkpt>
      <trkpt lat="46.56685" lon="5.78316">
        <ele>705.32</ele>
        <time>2019-04-27T11:39:34Z</time>
      </trkpt>
      <trkpt lat="46.56689" lon="5.783">
        <ele>703.23</ele>
        <time>2019-04-27T11:39:43Z</time>
      </trkpt>
      <trkpt lat="46.56692" lon="5.78293">
        <ele>701.08</ele>
        <time>2019-04-27T11:39:48Z</time>
      </trkpt>
      <trkpt lat="46.56693" lon="5.78288">
        <ele>699.79</ele>
        <time>2019-04-27T11:39:51Z</time>
      </trkpt>
      <trkpt lat="46.56691" lon="5.78275">
        <ele>698.17</ele>
        <time>2019-04-27T11:40:01Z</time>
      </trkpt>
      <trkpt lat="46.56691" lon="5.78268">
        <ele>695.93</ele>
        <time>2019-04-27T11:40:04Z</time>
      </trkpt>
      <trkpt lat="46.56691" lon="5.78262">
        <ele>694.94</ele>
        <time>2019-04-27T11:40:08Z</time>
      </trkpt>
      <trkpt lat="46.56688" lon="5.78256">
        <ele>693.89</ele>
        <time>2019-04-27T11:40:12Z</time>
      </trkpt>
      <trkpt lat="46.56687" lon="5.78253">
        <ele>693.8</ele>
        <time>2019-04-27T11:40:14Z</time>
      </trkpt>
      <trkpt lat="46.56686" lon="5.78246">
        <ele>691.84</ele>
        <time>2019-04-27T11:40:18Z</time>
      </trkpt>
      <trkpt lat="46.56688" lon="5.78238">
        <ele>690.76</ele>
        <time>2019-04-27T11:40:23Z</time>
      </trkpt>
      <trkpt lat="46.5669" lon="5.78235">
        <ele>689.85</ele>
        <time>2019-04-27T11:40:26Z</time>
      </trkpt>
      <trkpt lat="46.56691" lon="5.78232">
        <ele>689.05</ele>
        <time>2019-04-27T11:40:29Z</time>
      </trkpt>
      <trkpt lat="46.567" lon="5.78213">
        <ele>688.13</ele>
        <time>2019-04-27T11:40:40Z</time>
      </trkpt>
      <trkpt lat="46.56704" lon="5.78209">
        <ele>687.18</ele>
        <time>2019-04-27T11:40:44Z</time>
      </trkpt>
      <trkpt lat="46.56707" lon="5.78216">
        <ele>685.74</ele>
        <time>2019-04-27T11:40:50Z</time>
      </trkpt>
      <trkpt lat="46.5671" lon="5.7822">
        <ele>688.12</ele>
        <time>2019-04-27T11:40:55Z</time>
      </trkpt>
      <trkpt lat="46.56715" lon="5.78224">
        <ele>689.08</ele>
        <time>2019-04-27T11:41:01Z</time>
      </trkpt>
      <trkpt lat="46.5672" lon="5.78226">
        <ele>677.84</ele>
        <time>2019-04-27T11:41:05Z</time>
      </trkpt>
      <trkpt lat="46.56721" lon="5.78227">
        <ele>692.18</ele>
        <time>2019-04-27T11:41:06Z</time>
      </trkpt>
      <trkpt lat="46.56724" lon="5.78228">
        <ele>693.41</ele>
        <time>2019-04-27T11:41:08Z</time>
      </trkpt>
      <trkpt lat="46.56725" lon="5.78227">
        <ele>693.37</ele>
        <time>2019-04-27T11:41:09Z</time>
      </trkpt>
      <trkpt lat="46.56727" lon="5.78227">
        <ele>690.74</ele>
        <time>2019-04-27T11:41:11Z</time>
      </trkpt>
      <trkpt lat="46.56737" lon="5.78236">
        <ele>693.44</ele>
        <time>2019-04-27T11:41:21Z</time>
      </trkpt>
      <trkpt lat="46.56747" lon="5.78245">
        <ele>693.49</ele>
        <time>2019-04-27T11:41:32Z</time>
      </trkpt>
      <trkpt lat="46.56756" lon="5.78256">
        <ele>685.64</ele>
        <time>2019-04-27T11:41:41Z</time>
      </trkpt>
      <trkpt lat="46.56757" lon="5.78258">
        <ele>697.24</ele>
        <time>2019-04-27T11:41:42Z</time>
      </trkpt>
      <trkpt lat="46.56758" lon="5.78259">
        <ele>697.26</ele>
        <time>2019-04-27T11:41:43Z</time>
      </trkpt>
      <trkpt lat="46.56761" lon="5.78263">
        <ele>694.56</ele>
        <time>2019-04-27T11:41:47Z</time>
      </trkpt>
      <trkpt lat="46.56766" lon="5.78269">
        <ele>688.75</ele>
        <time>2019-04-27T11:41:54Z</time>
      </trkpt>
      <trkpt lat="46.56767" lon="5.7827">
        <ele>691.62</ele>
        <time>2019-04-27T11:41:55Z</time>
      </trkpt>
      <trkpt lat="46.56768" lon="5.78271">
        <ele>698.44</ele>
        <time>2019-04-27T11:41:56Z</time>
      </trkpt>
      <trkpt lat="46.56768" lon="5.78272">
        <ele>698.42</ele>
        <time>2019-04-27T11:41:57Z</time>
      </trkpt>
      <trkpt lat="46.5677" lon="5.78275">
        <ele>696.04</ele>
        <time>2019-04-27T11:41:59Z</time>
      </trkpt>
      <trkpt lat="46.56782" lon="5.78289">
        <ele>697.7</ele>
        <time>2019-04-27T11:42:14Z</time>
      </trkpt>
      <trkpt lat="46.56785" lon="5.78296">
        <ele>697.7</ele>
        <time>2019-04-27T11:42:20Z</time>
      </trkpt>
      <trkpt lat="46.56788" lon="5.78301">
        <ele>698.69</ele>
        <time>2019-04-27T11:42:24Z</time>
      </trkpt>
      <trkpt lat="46.56794" lon="5.78308">
        <ele>694.01</ele>
        <time>2019-04-27T11:42:32Z</time>
      </trkpt>
      <trkpt lat="46.56794" lon="5.78309">
        <ele>702.37</ele>
        <time>2019-04-27T11:42:33Z</time>
      </trkpt>
      <trkpt lat="46.56795" lon="5.7831">
        <ele>702.37</ele>
        <time>2019-04-27T11:42:34Z</time>
      </trkpt>
      <trkpt lat="46.56804" lon="5.78328">
        <ele>703.17</ele>
        <time>2019-04-27T11:42:53Z</time>
      </trkpt>
      <trkpt lat="46.56805" lon="5.78333">
        <ele>698.38</ele>
        <time>2019-04-27T11:42:59Z</time>
      </trkpt>
      <trkpt lat="46.56805" lon="5.78334">
        <ele>702.38</ele>
        <time>2019-04-27T11:43:00Z</time>
      </trkpt>
      <trkpt lat="46.56806" lon="5.78335">
        <ele>707.91</ele>
        <time>2019-04-27T11:43:01Z</time>
      </trkpt>
      <trkpt lat="46.56807" lon="5.78337">
        <ele>708.77</ele>
        <time>2019-04-27T11:43:03Z</time>
      </trkpt>
      <trkpt lat="46.56808" lon="5.78339">
        <ele>706.38</ele>
        <time>2019-04-27T11:43:05Z</time>
      </trkpt>
      <trkpt lat="46.56819" lon="5.78346">
        <ele>707.82</ele>
        <time>2019-04-27T11:43:20Z</time>
      </trkpt>
      <trkpt lat="46.56835" lon="5.78356">
        <ele>710.18</ele>
        <time>2019-04-27T11:43:35Z</time>
      </trkpt>
      <trkpt lat="46.56851" lon="5.78362">
        <ele>712.69</ele>
        <time>2019-04-27T11:43:50Z</time>
      </trkpt>
      <trkpt lat="46.56867" lon="5.78371">
        <ele>716.12</ele>
        <time>2019-04-27T11:44:08Z</time>
      </trkpt>
      <trkpt lat="46.56871" lon="5.78376">
        <ele>716.96</ele>
        <time>2019-04-27T11:44:12Z</time>
      </trkpt>
      <trkpt lat="46.5688" lon="5.78392">
        <ele>719.86</ele>
        <time>2019-04-27T11:44:24Z</time>
      </trkpt>
      <trkpt lat="46.5689" lon="5.78409">
        <ele>721.62</ele>
        <time>2019-04-27T11:44:40Z</time>
      </trkpt>
      <trkpt lat="46.56903" lon="5.78425">
        <ele>723.4</ele>
        <time>2019-04-27T11:44:56Z</time>
      </trkpt>
      <trkpt lat="46.56913" lon="5.78446">
        <ele>725.09</ele>
        <time>2019-04-27T11:45:12Z</time>
      </trkpt>
      <trkpt lat="46.56918" lon="5.78459">
        <ele>725.86</ele>
        <time>2019-04-27T11:45:21Z</time>
      </trkpt>
      <trkpt lat="46.56922" lon="5.78497">
        <ele>727.55</ele>
        <time>2019-04-27T11:45:43Z</time>
      </trkpt>
      <trkpt lat="46.56926" lon="5.78533">
        <ele>729.13</ele>
        <time>2019-04-27T11:46:04Z</time>
      </trkpt>
      <trkpt lat="46.56936" lon="5.78573">
        <ele>731.01</ele>
        <time>2019-04-27T11:46:27Z</time>
      </trkpt>
      <trkpt lat="46.56947" lon="5.78603">
        <ele>733.71</ele>
        <time>2019-04-27T11:46:46Z</time>
      </trkpt>
      <trkpt lat="46.56954" lon="5.78615">
        <ele>734.29</ele>
        <time>2019-04-27T11:47:00Z</time>
      </trkpt>
      <trkpt lat="46.56963" lon="5.78613">
        <ele>734.19</ele>
        <time>2019-04-27T11:47:15Z</time>
      </trkpt>
      <trkpt lat="46.5698" lon="5.78605">
        <ele>734.1</ele>
        <time>2019-04-27T11:47:30Z</time>
      </trkpt>
      <trkpt lat="46.5699" lon="5.78602">
        <ele>734.05</ele>
        <time>2019-04-27T11:47:38Z</time>
      </trkpt>
      <trkpt lat="46.57013" lon="5.78609">
        <ele>734.01</ele>
        <time>2019-04-27T11:47:58Z</time>
      </trkpt>
      <trkpt lat="46.57019" lon="5.78614">
        <ele>731.71</ele>
        <time>2019-04-27T11:48:04Z</time>
      </trkpt>
      <trkpt lat="46.57042" lon="5.78619">
        <ele>730.98</ele>
        <time>2019-04-27T11:48:21Z</time>
      </trkpt>
      <trkpt lat="46.5707" lon="5.7861">
        <ele>728.3</ele>
        <time>2019-04-27T11:48:44Z</time>
      </trkpt>
      <trkpt lat="46.57087" lon="5.78605">
        <ele>726.66</ele>
        <time>2019-04-27T11:48:58Z</time>
      </trkpt>
      <trkpt lat="46.57118" lon="5.78604">
        <ele>725.15</ele>
        <time>2019-04-27T11:49:20Z</time>
      </trkpt>
      <trkpt lat="46.57123" lon="5.78602">
        <ele>725.17</ele>
        <time>2019-04-27T11:49:22Z</time>
      </trkpt>
      <trkpt lat="46.57141" lon="5.78584">
        <ele>724.46</ele>
        <time>2019-04-27T11:49:42Z</time>
      </trkpt>
      <trkpt lat="46.57163" lon="5.78564">
        <ele>724.41</ele>
        <time>2019-04-27T11:50:00Z</time>
      </trkpt>
      <trkpt lat="46.57171" lon="5.78558">
        <ele>722.76</ele>
        <time>2019-04-27T11:50:05Z</time>
      </trkpt>
      <trkpt lat="46.57175" lon="5.78544">
        <ele>720.85</ele>
        <time>2019-04-27T11:50:14Z</time>
      </trkpt>
      <trkpt lat="46.5719" lon="5.78541">
        <ele>718.2</ele>
        <time>2019-04-27T11:50:28Z</time>
      </trkpt>
      <trkpt lat="46.57192" lon="5.78539">
        <ele>718.22</ele>
        <time>2019-04-27T11:50:30Z</time>
      </trkpt>
      <trkpt lat="46.57209" lon="5.78524">
        <ele>713.62</ele>
        <time>2019-04-27T11:50:43Z</time>
      </trkpt>
      <trkpt lat="46.57213" lon="5.78517">
        <ele>712.62</ele>
        <time>2019-04-27T11:50:48Z</time>
      </trkpt>
      <trkpt lat="46.57222" lon="5.7851">
        <ele>709.48</ele>
        <time>2019-04-27T11:50:58Z</time>
      </trkpt>
      <trkpt lat="46.57231" lon="5.78496">
        <ele>706.69</ele>
        <time>2019-04-27T11:51:09Z</time>
      </trkpt>
      <trkpt lat="46.57236" lon="5.78482">
        <ele>702.97</ele>
        <time>2019-04-27T11:51:21Z</time>
      </trkpt>
      <trkpt lat="46.5724" lon="5.78478">
        <ele>703.02</ele>
        <time>2019-04-27T11:51:24Z</time>
      </trkpt>
      <trkpt lat="46.57255" lon="5.78466">
        <ele>700.46</ele>
        <time>2019-04-27T11:51:36Z</time>
      </trkpt>
      <trkpt lat="46.5726" lon="5.78452">
        <ele>696.59</ele>
        <time>2019-04-27T11:51:46Z</time>
      </trkpt>
      <trkpt lat="46.57266" lon="5.78442">
        <ele>694.83</ele>
        <time>2019-04-27T11:51:54Z</time>
      </trkpt>
      <trkpt lat="46.57281" lon="5.78424">
        <ele>691.5</ele>
        <time>2019-04-27T11:52:09Z</time>
      </trkpt>
      <trkpt lat="46.57287" lon="5.78412">
        <ele>689.4</ele>
        <time>2019-04-27T11:52:18Z</time>
      </trkpt>
      <trkpt lat="46.57314" lon="5.7838">
        <ele>684.64</ele>
        <time>2019-04-27T11:52:37Z</time>
      </trkpt>
      <trkpt lat="46.57325" lon="5.7836">
        <ele>681</ele>
        <time>2019-04-27T11:52:50Z</time>
      </trkpt>
      <trkpt lat="46.57334" lon="5.78343">
        <ele>677.92</ele>
        <time>2019-04-27T11:53:00Z</time>
      </trkpt>
      <trkpt lat="46.57348" lon="5.78324">
        <ele>673.98</ele>
        <time>2019-04-27T11:53:15Z</time>
      </trkpt>
      <trkpt lat="46.5735" lon="5.78313">
        <ele>670.89</ele>
        <time>2019-04-27T11:53:23Z</time>
      </trkpt>
      <trkpt lat="46.5735" lon="5.78312">
        <ele>670.96</ele>
        <time>2019-04-27T11:53:24Z</time>
      </trkpt>
      <trkpt lat="46.57353" lon="5.78307">
        <ele>672.39</ele>
        <time>2019-04-27T11:53:28Z</time>
      </trkpt>
      <trkpt lat="46.5736" lon="5.78297">
        <ele>670.18</ele>
        <time>2019-04-27T11:53:36Z</time>
      </trkpt>
      <trkpt lat="46.57369" lon="5.78275">
        <ele>666.62</ele>
        <time>2019-04-27T11:53:52Z</time>
      </trkpt>
      <trkpt lat="46.57368" lon="5.78256">
        <ele>663.48</ele>
        <time>2019-04-27T11:54:04Z</time>
      </trkpt>
      <trkpt lat="46.57368" lon="5.78254">
        <ele>663.43</ele>
        <time>2019-04-27T11:54:06Z</time>
      </trkpt>
      <trkpt lat="46.57365" lon="5.78238">
        <ele>658.82</ele>
        <time>2019-04-27T11:54:20Z</time>
      </trkpt>
      <trkpt lat="46.57377" lon="5.78211">
        <ele>656.2</ele>
        <time>2019-04-27T11:54:40Z</time>
      </trkpt>
      <trkpt lat="46.57387" lon="5.7819">
        <ele>652.49</ele>
        <time>2019-04-27T11:54:55Z</time>
      </trkpt>
      <trkpt lat="46.57396" lon="5.78171">
        <ele>649.59</ele>
        <time>2019-04-27T11:55:09Z</time>
      </trkpt>
      <trkpt lat="46.57393" lon="5.78151">
        <ele>646.49</ele>
        <time>2019-04-27T11:55:21Z</time>
      </trkpt>
      <trkpt lat="46.57393" lon="5.7815">
        <ele>646.51</ele>
        <time>2019-04-27T11:55:22Z</time>
      </trkpt>
      <trkpt lat="46.57396" lon="5.78121">
        <ele>646.22</ele>
        <time>2019-04-27T11:55:42Z</time>
      </trkpt>
      <trkpt lat="46.57403" lon="5.78111">
        <ele>644.15</ele>
        <time>2019-04-27T11:55:51Z</time>
      </trkpt>
      <trkpt lat="46.57403" lon="5.78098">
        <ele>642.23</ele>
        <time>2019-04-27T11:56:05Z</time>
      </trkpt>
      <trkpt lat="46.57402" lon="5.78096">
        <ele>642.22</ele>
        <time>2019-04-27T11:56:09Z</time>
      </trkpt>
      <trkpt lat="46.57408" lon="5.78083">
        <ele>639.12</ele>
        <time>2019-04-27T11:56:19Z</time>
      </trkpt>
      <trkpt lat="46.57412" lon="5.7807">
        <ele>637.24</ele>
        <time>2019-04-27T11:56:28Z</time>
      </trkpt>
      <trkpt lat="46.57414" lon="5.78054">
        <ele>634.78</ele>
        <time>2019-04-27T11:56:38Z</time>
      </trkpt>
      <trkpt lat="46.57413" lon="5.78051">
        <ele>634.75</ele>
        <time>2019-04-27T11:56:40Z</time>
      </trkpt>
      <trkpt lat="46.57412" lon="5.78046">
        <ele>634.73</ele>
        <time>2019-04-27T11:56:42Z</time>
      </trkpt>
      <trkpt lat="46.57409" lon="5.78025">
        <ele>633.74</ele>
        <time>2019-04-27T11:56:57Z</time>
      </trkpt>
      <trkpt lat="46.5741" lon="5.78022">
        <ele>633.73</ele>
        <time>2019-04-27T11:56:59Z</time>
      </trkpt>
      <trkpt lat="46.57413" lon="5.78015">
        <ele>632.6</ele>
        <time>2019-04-27T11:57:05Z</time>
      </trkpt>
      <trkpt lat="46.57414" lon="5.78009">
        <ele>631.61</ele>
        <time>2019-04-27T11:57:07Z</time>
      </trkpt>
      <trkpt lat="46.57415" lon="5.78005">
        <ele>631.61</ele>
        <time>2019-04-27T11:57:09Z</time>
      </trkpt>
      <trkpt lat="46.57416" lon="5.78002">
        <ele>631.58</ele>
        <time>2019-04-27T11:57:11Z</time>
      </trkpt>
      <trkpt lat="46.5742" lon="5.77989">
        <ele>630.75</ele>
        <time>2019-04-27T11:57:18Z</time>
      </trkpt>
      <trkpt lat="46.57429" lon="5.77971">
        <ele>629.89</ele>
        <time>2019-04-27T11:57:28Z</time>
      </trkpt>
      <trkpt lat="46.57431" lon="5.77961">
        <ele>629.84</ele>
        <time>2019-04-27T11:57:34Z</time>
      </trkpt>
      <trkpt lat="46.57444" lon="5.77946">
        <ele>628.13</ele>
        <time>2019-04-27T11:57:51Z</time>
      </trkpt>
      <trkpt lat="46.57458" lon="5.77929">
        <ele>627.17</ele>
        <time>2019-04-27T11:58:05Z</time>
      </trkpt>
      <trkpt lat="46.57461" lon="5.77926">
        <ele>627.15</ele>
        <time>2019-04-27T11:58:08Z</time>
      </trkpt>
      <trkpt lat="46.57474" lon="5.77912">
        <ele>626.31</ele>
        <time>2019-04-27T11:58:22Z</time>
      </trkpt>
      <trkpt lat="46.57481" lon="5.779">
        <ele>625.54</ele>
        <time>2019-04-27T11:58:35Z</time>
      </trkpt>
      <trkpt lat="46.57484" lon="5.77899">
        <ele>624.64</ele>
        <time>2019-04-27T11:58:50Z</time>
      </trkpt>
      <trkpt lat="46.57483" lon="5.77898">
        <ele>624.77</ele>
        <time>2019-04-27T11:59:16Z</time>
      </trkpt>
      <trkpt lat="46.57481" lon="5.77897">
        <ele>625</ele>
        <time>2019-04-27T11:59:55Z</time>
      </trkpt>
      <trkpt lat="46.57481" lon="5.77897">
        <ele>625.23</ele>
        <time>2019-04-27T12:00:33Z</time>
      </trkpt>
      <trkpt lat="46.57479" lon="5.77896">
        <ele>625.42</ele>
        <time>2019-04-27T12:01:13Z</time>
      </trkpt>
      <trkpt lat="46.57486" lon="5.77897">
        <ele>625.65</ele>
        <time>2019-04-27T12:02:12Z</time>
      </trkpt>
      <trkpt lat="46.57488" lon="5.77899">
        <ele>625.9</ele>
        <time>2019-04-27T12:03:04Z</time>
      </trkpt>
      <trkpt lat="46.57488" lon="5.77897">
        <ele>626.11</ele>
        <time>2019-04-27T12:03:49Z</time>
      </trkpt>
      <trkpt lat="46.57488" lon="5.77897">
        <ele>626.26</ele>
        <time>2019-04-27T12:04:24Z</time>
      </trkpt>
      <trkpt lat="46.57481" lon="5.77891">
        <ele>626.33</ele>
        <time>2019-04-27T12:04:40Z</time>
      </trkpt>
      <trkpt lat="46.57466" lon="5.77888">
        <ele>628.83</ele>
        <time>2019-04-27T12:04:57Z</time>
      </trkpt>
      <trkpt lat="46.57454" lon="5.77882">
        <ele>628.85</ele>
        <time>2019-04-27T12:05:10Z</time>
      </trkpt>
      <trkpt lat="46.57453" lon="5.7788">
        <ele>628.85</ele>
        <time>2019-04-27T12:05:12Z</time>
      </trkpt>
      <trkpt lat="46.57449" lon="5.77856">
        <ele>628.79</ele>
        <time>2019-04-27T12:05:29Z</time>
      </trkpt>
      <trkpt lat="46.5745" lon="5.77853">
        <ele>626.14</ele>
        <time>2019-04-27T12:05:32Z</time>
      </trkpt>
      <trkpt lat="46.57456" lon="5.77832">
        <ele>623.57</ele>
        <time>2019-04-27T12:05:51Z</time>
      </trkpt>
      <trkpt lat="46.57451" lon="5.77796">
        <ele>622.62</ele>
        <time>2019-04-27T12:06:11Z</time>
      </trkpt>
      <trkpt lat="46.57445" lon="5.77766">
        <ele>622.47</ele>
        <time>2019-04-27T12:06:30Z</time>
      </trkpt>
      <trkpt lat="46.57445" lon="5.77732">
        <ele>622.26</ele>
        <time>2019-04-27T12:06:49Z</time>
      </trkpt>
      <trkpt lat="46.57454" lon="5.77715">
        <ele>621.25</ele>
        <time>2019-04-27T12:07:05Z</time>
      </trkpt>
      <trkpt lat="46.57471" lon="5.77705">
        <ele>618.4</ele>
        <time>2019-04-27T12:07:23Z</time>
      </trkpt>
      <trkpt lat="46.5748" lon="5.77695">
        <ele>615.05</ele>
        <time>2019-04-27T12:07:39Z</time>
      </trkpt>
      <trkpt lat="46.57472" lon="5.77679">
        <ele>613.28</ele>
        <time>2019-04-27T12:07:58Z</time>
      </trkpt>
      <trkpt lat="46.57465" lon="5.77669">
        <ele>613.22</ele>
        <time>2019-04-27T12:08:08Z</time>
      </trkpt>
      <trkpt lat="46.57462" lon="5.77659">
        <ele>613.2</ele>
        <time>2019-04-27T12:08:13Z</time>
      </trkpt>
      <trkpt lat="46.5746" lon="5.77652">
        <ele>613.19</ele>
        <time>2019-04-27T12:08:17Z</time>
      </trkpt>
      <trkpt lat="46.57454" lon="5.7762">
        <ele>613.03</ele>
        <time>2019-04-27T12:08:36Z</time>
      </trkpt>
      <trkpt lat="46.57453" lon="5.7761">
        <ele>615.5</ele>
        <time>2019-04-27T12:08:42Z</time>
      </trkpt>
      <trkpt lat="46.57449" lon="5.77583">
        <ele>619.24</ele>
        <time>2019-04-27T12:08:58Z</time>
      </trkpt>
      <trkpt lat="46.57448" lon="5.77553">
        <ele>619.85</ele>
        <time>2019-04-27T12:09:18Z</time>
      </trkpt>
      <trkpt lat="46.57446" lon="5.77523">
        <ele>617.41</ele>
        <time>2019-04-27T12:09:33Z</time>
      </trkpt>
      <trkpt lat="46.57448" lon="5.77491">
        <ele>615.43</ele>
        <time>2019-04-27T12:09:50Z</time>
      </trkpt>
      <trkpt lat="46.57447" lon="5.77467">
        <ele>612.34</ele>
        <time>2019-04-27T12:10:03Z</time>
      </trkpt>
      <trkpt lat="46.57448" lon="5.77455">
        <ele>609.23</ele>
        <time>2019-04-27T12:10:11Z</time>
      </trkpt>
      <trkpt lat="46.57449" lon="5.77437">
        <ele>605.62</ele>
        <time>2019-04-27T12:10:23Z</time>
      </trkpt>
      <trkpt lat="46.57451" lon="5.77419">
        <ele>602.36</ele>
        <time>2019-04-27T12:10:33Z</time>
      </trkpt>
      <trkpt lat="46.57454" lon="5.7741">
        <ele>601.19</ele>
        <time>2019-04-27T12:10:38Z</time>
      </trkpt>
      <trkpt lat="46.57454" lon="5.77406">
        <ele>599.89</ele>
        <time>2019-04-27T12:10:40Z</time>
      </trkpt>
      <trkpt lat="46.57457" lon="5.77396">
        <ele>597.2</ele>
        <time>2019-04-27T12:10:47Z</time>
      </trkpt>
      <trkpt lat="46.57466" lon="5.77378">
        <ele>594.42</ele>
        <time>2019-04-27T12:11:00Z</time>
      </trkpt>
      <trkpt lat="46.57467" lon="5.77363">
        <ele>591.7</ele>
        <time>2019-04-27T12:11:10Z</time>
      </trkpt>
      <trkpt lat="46.57466" lon="5.77354">
        <ele>590.84</ele>
        <time>2019-04-27T12:11:14Z</time>
      </trkpt>
      <trkpt lat="46.57467" lon="5.77328">
        <ele>588.66</ele>
        <time>2019-04-27T12:11:25Z</time>
      </trkpt>
      <trkpt lat="46.57467" lon="5.77319">
        <ele>587.82</ele>
        <time>2019-04-27T12:11:29Z</time>
      </trkpt>
      <trkpt lat="46.57464" lon="5.77294">
        <ele>587.72</ele>
        <time>2019-04-27T12:11:42Z</time>
      </trkpt>
      <trkpt lat="46.57463" lon="5.77269">
        <ele>586.75</ele>
        <time>2019-04-27T12:11:53Z</time>
      </trkpt>
      <trkpt lat="46.57462" lon="5.77243">
        <ele>584.79</ele>
        <time>2019-04-27T12:12:07Z</time>
      </trkpt>
      <trkpt lat="46.57456" lon="5.77214">
        <ele>584.68</ele>
        <time>2019-04-27T12:12:22Z</time>
      </trkpt>
      <trkpt lat="46.57453" lon="5.77185">
        <ele>583.68</ele>
        <time>2019-04-27T12:12:35Z</time>
      </trkpt>
      <trkpt lat="46.57447" lon="5.77155">
        <ele>581.88</ele>
        <time>2019-04-27T12:12:48Z</time>
      </trkpt>
      <trkpt lat="46.57447" lon="5.77153">
        <ele>581.94</ele>
        <time>2019-04-27T12:12:49Z</time>
      </trkpt>
      <trkpt lat="46.57443" lon="5.77126">
        <ele>580.18</ele>
        <time>2019-04-27T12:13:04Z</time>
      </trkpt>
      <trkpt lat="46.57439" lon="5.77098">
        <ele>578.39</ele>
        <time>2019-04-27T12:13:18Z</time>
      </trkpt>
      <trkpt lat="46.57439" lon="5.77092">
        <ele>578.42</ele>
        <time>2019-04-27T12:13:21Z</time>
      </trkpt>
      <trkpt lat="46.57439" lon="5.77074">
        <ele>578.22</ele>
        <time>2019-04-27T12:13:37Z</time>
      </trkpt>
      <trkpt lat="46.57436" lon="5.77064">
        <ele>578.14</ele>
        <time>2019-04-27T12:13:45Z</time>
      </trkpt>
      <trkpt lat="46.57434" lon="5.77053">
        <ele>578.08</ele>
        <time>2019-04-27T12:13:52Z</time>
      </trkpt>
      <trkpt lat="46.57427" lon="5.77029">
        <ele>577.96</ele>
        <time>2019-04-27T12:14:04Z</time>
      </trkpt>
      <trkpt lat="46.57425" lon="5.77019">
        <ele>577.92</ele>
        <time>2019-04-27T12:14:09Z</time>
      </trkpt>
      <trkpt lat="46.57425" lon="5.77015">
        <ele>577.93</ele>
        <time>2019-04-27T12:14:11Z</time>
      </trkpt>
      <trkpt lat="46.5742" lon="5.76993">
        <ele>577.84</ele>
        <time>2019-04-27T12:14:24Z</time>
      </trkpt>
      <trkpt lat="46.57411" lon="5.76971">
        <ele>577.63</ele>
        <time>2019-04-27T12:14:39Z</time>
      </trkpt>
      <trkpt lat="46.57408" lon="5.76965">
        <ele>577.59</ele>
        <time>2019-04-27T12:14:42Z</time>
      </trkpt>
      <trkpt lat="46.57402" lon="5.76956">
        <ele>577.55</ele>
        <time>2019-04-27T12:14:47Z</time>
      </trkpt>
      <trkpt lat="46.57386" lon="5.76936">
        <ele>577.41</ele>
        <time>2019-04-27T12:15:03Z</time>
      </trkpt>
      <trkpt lat="46.57373" lon="5.76927">
        <ele>579.5</ele>
        <time>2019-04-27T12:15:14Z</time>
      </trkpt>
      <trkpt lat="46.57356" lon="5.7692">
        <ele>579.39</ele>
        <time>2019-04-27T12:15:26Z</time>
      </trkpt>
      <trkpt lat="46.57343" lon="5.7691">
        <ele>579.15</ele>
        <time>2019-04-27T12:15:40Z</time>
      </trkpt>
      <trkpt lat="46.57342" lon="5.76893">
        <ele>579.04</ele>
        <time>2019-04-27T12:15:49Z</time>
      </trkpt>
      <trkpt lat="46.57344" lon="5.7689">
        <ele>576.55</ele>
        <time>2019-04-27T12:15:51Z</time>
      </trkpt>
      <trkpt lat="46.57361" lon="5.7688">
        <ele>576.58</ele>
        <time>2019-04-27T12:16:05Z</time>
      </trkpt>
      <trkpt lat="46.57364" lon="5.76878">
        <ele>574.17</ele>
        <time>2019-04-27T12:16:08Z</time>
      </trkpt>
      <trkpt lat="46.57374" lon="5.76867">
        <ele>571.52</ele>
        <time>2019-04-27T12:16:19Z</time>
      </trkpt>
      <trkpt lat="46.57386" lon="5.7685">
        <ele>569.06</ele>
        <time>2019-04-27T12:16:32Z</time>
      </trkpt>
      <trkpt lat="46.57387" lon="5.76847">
        <ele>568.28</ele>
        <time>2019-04-27T12:16:34Z</time>
      </trkpt>
      <trkpt lat="46.57388" lon="5.76844">
        <ele>568.26</ele>
        <time>2019-04-27T12:16:36Z</time>
      </trkpt>
      <trkpt lat="46.57401" lon="5.76828">
        <ele>565.67</ele>
        <time>2019-04-27T12:16:51Z</time>
      </trkpt>
      <trkpt lat="46.57407" lon="5.76813">
        <ele>562.61</ele>
        <time>2019-04-27T12:17:02Z</time>
      </trkpt>
      <trkpt lat="46.5741" lon="5.76809">
        <ele>561.29</ele>
        <time>2019-04-27T12:17:05Z</time>
      </trkpt>
      <trkpt lat="46.57419" lon="5.76795">
        <ele>557.75</ele>
        <time>2019-04-27T12:17:16Z</time>
      </trkpt>
      <trkpt lat="46.57424" lon="5.76779">
        <ele>554.74</ele>
        <time>2019-04-27T12:17:25Z</time>
      </trkpt>
      <trkpt lat="46.5743" lon="5.76762">
        <ele>551.86</ele>
        <time>2019-04-27T12:17:35Z</time>
      </trkpt>
      <trkpt lat="46.57436" lon="5.7674">
        <ele>548.18</ele>
        <time>2019-04-27T12:17:47Z</time>
      </trkpt>
      <trkpt lat="46.57449" lon="5.76722">
        <ele>544.74</ele>
        <time>2019-04-27T12:17:58Z</time>
      </trkpt>
      <trkpt lat="46.57455" lon="5.76703">
        <ele>541.34</ele>
        <time>2019-04-27T12:18:09Z</time>
      </trkpt>
      <trkpt lat="46.57462" lon="5.76684">
        <ele>538.71</ele>
        <time>2019-04-27T12:18:20Z</time>
      </trkpt>
      <trkpt lat="46.5747" lon="5.7666">
        <ele>535.97</ele>
        <time>2019-04-27T12:18:34Z</time>
      </trkpt>
      <trkpt lat="46.57471" lon="5.76649">
        <ele>534.06</ele>
        <time>2019-04-27T12:18:39Z</time>
      </trkpt>
      <trkpt lat="46.57473" lon="5.76631">
        <ele>533.11</ele>
        <time>2019-04-27T12:18:47Z</time>
      </trkpt>
      <trkpt lat="46.57481" lon="5.76603">
        <ele>532.39</ele>
        <time>2019-04-27T12:19:03Z</time>
      </trkpt>
      <trkpt lat="46.57482" lon="5.76578">
        <ele>531.5</ele>
        <time>2019-04-27T12:19:18Z</time>
      </trkpt>
      <trkpt lat="46.57482" lon="5.76576">
        <ele>531.48</ele>
        <time>2019-04-27T12:19:19Z</time>
      </trkpt>
      <trkpt lat="46.57483" lon="5.76568">
        <ele>529</ele>
        <time>2019-04-27T12:19:24Z</time>
      </trkpt>
      <trkpt lat="46.57483" lon="5.76563">
        <ele>531.53</ele>
        <time>2019-04-27T12:19:26Z</time>
      </trkpt>
      <trkpt lat="46.57483" lon="5.76556">
        <ele>531.49</ele>
        <time>2019-04-27T12:19:30Z</time>
      </trkpt>
      <trkpt lat="46.57484" lon="5.76542">
        <ele>531.43</ele>
        <time>2019-04-27T12:19:37Z</time>
      </trkpt>
      <trkpt lat="46.57487" lon="5.7653">
        <ele>529</ele>
        <time>2019-04-27T12:19:43Z</time>
      </trkpt>
      <trkpt lat="46.57488" lon="5.76517">
        <ele>528.12</ele>
        <time>2019-04-27T12:19:49Z</time>
      </trkpt>
      <trkpt lat="46.57483" lon="5.76494">
        <ele>525.4</ele>
        <time>2019-04-27T12:20:03Z</time>
      </trkpt>
      <trkpt lat="46.57477" lon="5.76478">
        <ele>523.64</ele>
        <time>2019-04-27T12:20:11Z</time>
      </trkpt>
      <trkpt lat="46.57475" lon="5.76464">
        <ele>522.53</ele>
        <time>2019-04-27T12:20:17Z</time>
      </trkpt>
      <trkpt lat="46.57474" lon="5.76459">
        <ele>522.5</ele>
        <time>2019-04-27T12:20:19Z</time>
      </trkpt>
      <trkpt lat="46.57465" lon="5.76433">
        <ele>520.7</ele>
        <time>2019-04-27T12:20:32Z</time>
      </trkpt>
      <trkpt lat="46.5746" lon="5.76418">
        <ele>518.85</ele>
        <time>2019-04-27T12:20:41Z</time>
      </trkpt>
      <trkpt lat="46.57454" lon="5.76401">
        <ele>517.96</ele>
        <time>2019-04-27T12:20:49Z</time>
      </trkpt>
      <trkpt lat="46.5745" lon="5.76388">
        <ele>516.18</ele>
        <time>2019-04-27T12:20:56Z</time>
      </trkpt>
      <trkpt lat="46.57446" lon="5.76362">
        <ele>512.17</ele>
        <time>2019-04-27T12:21:10Z</time>
      </trkpt>
      <trkpt lat="46.57446" lon="5.7636">
        <ele>512.18</ele>
        <time>2019-04-27T12:21:11Z</time>
      </trkpt>
      <trkpt lat="46.57446" lon="5.76357">
        <ele>512.14</ele>
        <time>2019-04-27T12:21:13Z</time>
      </trkpt>
      <trkpt lat="46.57442" lon="5.76327">
        <ele>511.95</ele>
        <time>2019-04-27T12:21:28Z</time>
      </trkpt>
      <trkpt lat="46.57435" lon="5.76292">
        <ele>509.05</ele>
        <time>2019-04-27T12:21:45Z</time>
      </trkpt>
      <trkpt lat="46.57433" lon="5.76261">
        <ele>509.03</ele>
        <time>2019-04-27T12:22:00Z</time>
      </trkpt>
      <trkpt lat="46.57428" lon="5.7624">
        <ele>508.11</ele>
        <time>2019-04-27T12:22:11Z</time>
      </trkpt>
      <trkpt lat="46.57428" lon="5.76234">
        <ele>508.08</ele>
        <time>2019-04-27T12:22:16Z</time>
      </trkpt>
      <trkpt lat="46.57423" lon="5.76215">
        <ele>507.24</ele>
        <time>2019-04-27T12:22:25Z</time>
      </trkpt>
      <trkpt lat="46.57421" lon="5.76183">
        <ele>507.2</ele>
        <time>2019-04-27T12:22:42Z</time>
      </trkpt>
      <trkpt lat="46.57416" lon="5.76162">
        <ele>506.39</ele>
        <time>2019-04-27T12:22:53Z</time>
      </trkpt>
      <trkpt lat="46.57409" lon="5.7613">
        <ele>504.75</ele>
        <time>2019-04-27T12:23:07Z</time>
      </trkpt>
      <trkpt lat="46.57409" lon="5.76091">
        <ele>503.87</ele>
        <time>2019-04-27T12:23:23Z</time>
      </trkpt>
      <trkpt lat="46.5741" lon="5.76055">
        <ele>502.96</ele>
        <time>2019-04-27T12:23:38Z</time>
      </trkpt>
      <trkpt lat="46.57411" lon="5.76021">
        <ele>502.07</ele>
        <time>2019-04-27T12:23:54Z</time>
      </trkpt>
      <trkpt lat="46.57412" lon="5.76005">
        <ele>502.04</ele>
        <time>2019-04-27T12:24:02Z</time>
      </trkpt>
      <trkpt lat="46.57426" lon="5.75973">
        <ele>501.9</ele>
        <time>2019-04-27T12:24:18Z</time>
      </trkpt>
      <trkpt lat="46.57437" lon="5.7595">
        <ele>501.79</ele>
        <time>2019-04-27T12:24:29Z</time>
      </trkpt>
      <trkpt lat="46.57451" lon="5.75931">
        <ele>500.92</ele>
        <time>2019-04-27T12:24:41Z</time>
      </trkpt>
      <trkpt lat="46.57457" lon="5.75926">
        <ele>500.89</ele>
        <time>2019-04-27T12:24:45Z</time>
      </trkpt>
      <trkpt lat="46.57463" lon="5.75892">
        <ele>500.77</ele>
        <time>2019-04-27T12:25:00Z</time>
      </trkpt>
      <trkpt lat="46.57464" lon="5.75875">
        <ele>500.75</ele>
        <time>2019-04-27T12:25:08Z</time>
      </trkpt>
      <trkpt lat="46.57462" lon="5.75848">
        <ele>499.94</ele>
        <time>2019-04-27T12:25:22Z</time>
      </trkpt>
      <trkpt lat="46.5746" lon="5.75825">
        <ele>498.33</ele>
        <time>2019-04-27T12:25:32Z</time>
      </trkpt>
      <trkpt lat="46.5746" lon="5.75814">
        <ele>498.32</ele>
        <time>2019-04-27T12:25:37Z</time>
      </trkpt>
      <trkpt lat="46.57458" lon="5.75794">
        <ele>497.52</ele>
        <time>2019-04-27T12:25:46Z</time>
      </trkpt>
      <trkpt lat="46.57453" lon="5.75786">
        <ele>497.53</ele>
        <time>2019-04-27T12:25:51Z</time>
      </trkpt>
      <trkpt lat="46.57448" lon="5.75764">
        <ele>500.16</ele>
        <time>2019-04-27T12:26:03Z</time>
      </trkpt>
      <trkpt lat="46.57444" lon="5.7574">
        <ele>503.93</ele>
        <time>2019-04-27T12:26:19Z</time>
      </trkpt>
      <trkpt lat="46.57441" lon="5.75716">
        <ele>507.07</ele>
        <time>2019-04-27T12:26:36Z</time>
      </trkpt>
      <trkpt lat="46.57442" lon="5.75684">
        <ele>509.56</ele>
        <time>2019-04-27T12:26:56Z</time>
      </trkpt>
      <trkpt lat="46.57447" lon="5.75665">
        <ele>512.86</ele>
        <time>2019-04-27T12:27:11Z</time>
      </trkpt>
      <trkpt lat="46.57449" lon="5.75645">
        <ele>516.82</ele>
        <time>2019-04-27T12:27:24Z</time>
      </trkpt>
      <trkpt lat="46.57463" lon="5.75614">
        <ele>519.28</ele>
        <time>2019-04-27T12:27:43Z</time>
      </trkpt>
      <trkpt lat="46.57464" lon="5.75609">
        <ele>519.27</ele>
        <time>2019-04-27T12:27:47Z</time>
      </trkpt>
      <trkpt lat="46.57481" lon="5.75597">
        <ele>519.22</ele>
        <time>2019-04-27T12:28:02Z</time>
      </trkpt>
      <trkpt lat="46.57499" lon="5.75591">
        <ele>519.24</ele>
        <time>2019-04-27T12:28:16Z</time>
      </trkpt>
      <trkpt lat="46.57515" lon="5.75588">
        <ele>516.99</ele>
        <time>2019-04-27T12:28:27Z</time>
      </trkpt>
      <trkpt lat="46.57536" lon="5.75576">
        <ele>516.14</ele>
        <time>2019-04-27T12:28:42Z</time>
      </trkpt>
      <trkpt lat="46.57549" lon="5.75556">
        <ele>516.38</ele>
        <time>2019-04-27T12:28:59Z</time>
      </trkpt>
      <trkpt lat="46.57554" lon="5.75544">
        <ele>518.81</ele>
        <time>2019-04-27T12:29:07Z</time>
      </trkpt>
      <trkpt lat="46.57571" lon="5.75508">
        <ele>519</ele>
        <time>2019-04-27T12:29:28Z</time>
      </trkpt>
      <trkpt lat="46.57586" lon="5.75481">
        <ele>519.25</ele>
        <time>2019-04-27T12:29:45Z</time>
      </trkpt>
      <trkpt lat="46.57601" lon="5.75455">
        <ele>519.47</ele>
        <time>2019-04-27T12:30:03Z</time>
      </trkpt>
      <trkpt lat="46.57612" lon="5.75441">
        <ele>519.67</ele>
        <time>2019-04-27T12:30:17Z</time>
      </trkpt>
      <trkpt lat="46.57611" lon="5.7544">
        <ele>519.68</ele>
        <time>2019-04-27T12:30:18Z</time>
      </trkpt>
      <trkpt lat="46.57591" lon="5.75423">
        <ele>519.98</ele>
        <time>2019-04-27T12:30:37Z</time>
      </trkpt>
      <trkpt lat="46.57583" lon="5.75415">
        <ele>520.17</ele>
        <time>2019-04-27T12:30:52Z</time>
      </trkpt>
      <trkpt lat="46.5758" lon="5.7542">
        <ele>520.34</ele>
        <time>2019-04-27T12:31:07Z</time>
      </trkpt>
      <trkpt lat="46.57579" lon="5.75422">
        <ele>520.6</ele>
        <time>2019-04-27T12:31:28Z</time>
      </trkpt>
      <trkpt lat="46.57582" lon="5.75421">
        <ele>520.85</ele>
        <time>2019-04-27T12:31:48Z</time>
      </trkpt>
      <trkpt lat="46.57583" lon="5.75421">
        <ele>521.16</ele>
        <time>2019-04-27T12:32:12Z</time>
      </trkpt>
      <trkpt lat="46.57584" lon="5.75414">
        <ele>521.37</ele>
        <time>2019-04-27T12:32:29Z</time>
      </trkpt>
      <trkpt lat="46.57582" lon="5.75412">
        <ele>521.55</ele>
        <time>2019-04-27T12:32:42Z</time>
      </trkpt>
      <trkpt lat="46.57579" lon="5.75408">
        <ele>521.68</ele>
        <time>2019-04-27T12:32:55Z</time>
      </trkpt>
      <trkpt lat="46.57574" lon="5.75406">
        <ele>521.81</ele>
        <time>2019-04-27T12:33:04Z</time>
      </trkpt>
      <trkpt lat="46.57568" lon="5.75402">
        <ele>522</ele>
        <time>2019-04-27T12:33:18Z</time>
      </trkpt>
      <trkpt lat="46.57554" lon="5.75391">
        <ele>522.16</ele>
        <time>2019-04-27T12:33:30Z</time>
      </trkpt>
      <trkpt lat="46.57534" lon="5.75371">
        <ele>522.37</ele>
        <time>2019-04-27T12:33:48Z</time>
      </trkpt>
      <trkpt lat="46.57526" lon="5.7536">
        <ele>523.42</ele>
        <time>2019-04-27T12:34:05Z</time>
      </trkpt>
      <trkpt lat="46.57525" lon="5.7536">
        <ele>475.03</ele>
        <time>2019-04-27T12:34:11Z</time>
      </trkpt>
    </trkseg>
  </trk>
</gpx>